ECMWFNIL_sfc_dewp_000.txt.gz
Dewpoint
46 46 46 46 45 45 45 46 47 47 48 48 49 49 50 51 52 52 53 53 54 55 56 57 59 60 62 63 63 63 63 62 62 62 62 61 60 60 59 58 58 58
45 45 47 46 45 45 46 46 46 47 47 47 48 48 49 50 51 51 52 53 53 54 54 56 57 59 60 61 62 62 62 62 62 62 61 61 61 60 59 59 58 58
44 44 44 45 45 45 45 46 46 46 46 47 47 48 49 51 52 52 52 52 53 54 54 55 55 57 59 60 61 62 62 62 62 62 62 61 61 60 59 60 58 58
44 45 45 45 45 45 45 45 45 45 46 46 46 48 48 49 49 50 51 52 53 53 53 54 55 56 57 58 60 61 61 62 62 62 62 62 61 61 59 58 58 58
45 44 44 44 44 45 45 45 45 45 45 45 46 47 47 48 48 48 49 49 50 51 53 54 54 55 56 57 58 59 60 61 62 61 61 61 62 62 60 59 58 57
44 44 44 44 44 45 45 44 44 44 45 45 46 46 46 47 48 48 48 49 51 53 53 53 53 54 55 56 57 58 59 60 61 61 61 61 61 61 61 60 59 58
44 44 44 44 44 44 44 44 44 44 44 45 45 45 46 46 46 46 47 48 50 51 52 53 54 54 54 55 56 57 58 59 60 61 61 61 61 61 61 61 60 59
44 44 44 44 44 44 44 44 44 44 45 44 44 45 46 46 45 45 46 47 49 51 53 53 53 53 54 55 55 56 56 58 59 60 60 60 61 60 61 60 60 59
44 44 44 44 44 43 43 43 43 43 43 44 44 44 44 44 44 44 45 46 48 49 51 53 53 53 54 55 55 55 55 57 58 59 60 60 60 60 60 60 60 59
44 44 44 43 43 43 43 43 43 43 43 43 43 43 43 43 44 44 44 45 46 48 49 51 53 53 53 54 55 55 55 56 57 59 59 60 60 59 60 60 59 59
44 44 43 43 43 43 43 43 43 42 43 42 43 43 42 42 43 44 44 44 45 46 48 51 52 53 53 53 54 55 56 57 57 58 59 59 59 59 58 59 59 59
44 43 43 42 42 42 42 42 42 42 42 42 41 41 41 41 42 42 43 44 45 46 47 49 52 52 53 52 53 54 56 57 58 58 59 59 59 59 59 59 58 58
43 43 43 42 42 42 43 42 42 42 41 40 40 40 40 40 41 41 42 43 43 45 46 48 51 52 53 53 53 53 54 56 57 58 59 59 59 59 59 58 58 58
43 43 43 43 43 43 42 42 41 41 41 40 40 40 40 39 40 40 41 42 43 44 46 48 50 52 53 53 53 53 54 55 56 57 58 59 58 58 58 58 57 57
43 43 43 43 43 42 42 42 41 41 40 39 39 39 39 39 40 41 41 42 43 44 45 47 50 52 53 53 53 53 55 56 56 57 58 58 58 58 58 57 56 56
43 43 43 43 42 41 41 41 40 40 39 39 39 40 39 39 39 40 41 42 44 45 47 48 49 51 51 49 50 53 54 56 57 57 58 58 57 57 57 55 55 54
42 43 43 42 41 41 40 40 39 39 39 39 39 39 40 39 39 39 40 43 44 45 47 48 50 51 49 47 46 47 53 56 57 58 58 57 56 56 54 53 52 51
42 42 42 41 40 40 39 39 39 39 38 38 39 39 40 41 41 41 42 43 45 46 47 48 50 49 47 46 46 46 48 54 57 57 56 55 54 54 52 51 49 48
42 42 41 40 39 39 39 39 39 38 38 38 38 39 40 40 40 42 43 44 46 47 48 49 50 48 46 45 45 45 45 50 56 55 54 54 52 51 49 48 47 45
42 41 40 39 39 39 39 39 38 38 38 38 39 39 40 41 42 42 44 45 47 48 49 50 51 49 45 45 45 45 45 47 55 54 53 52 51 50 49 48 47 45
41 40 40 40 40 39 39 38 38 38 38 38 39 39 40 41 41 43 44 46 48 50 50 50 51 48 45 44 44 44 45 45 54 52 52 51 51 50 48 48 47 46
40 40 40 40 39 39 38 38 37 37 37 38 39 39 40 42 42 43 45 48 49 50 51 51 52 46 45 44 44 44 44 50 53 51 50 49 48 48 48 48 47 46
41 40 40 39 39 38 37 37 37 37 37 38 38 39 40 40 41 43 46 49 50 50 50 51 50 45 44 44 44 44 45 51 51 50 48 47 46 46 46 46 46 46
40 40 39 39 38 37 36 36 36 36 37 38 38 38 39 40 41 43 45 49 49 49 49 48 46 45 42 43 43 43 46 50 49 48 46 44 43 42 42 43 44 43
40 39 39 38 37 36 36 35 35 35 37 38 38 39 39 40 41 43 45 47 48 48 46 46 45 44 41 42 42 42 46 48 46 46 43 42 41 40 41 42 41 40
39 38 38 38 37 36 35 35 35 35 35 37 38 39 39 40 42 44 43 42 44 45 45 45 44 43 43 41 41 41 43 45 45 44 41 40 40 40 40 39 40 39

ECMWFNIL_sfc_dewp_003.txt.gz
Dewpoint
47 47 46 46 46 46 46 46 46 46 46 46 46 46 47 48 49 50 50 51 52 52 52 53 54 55 56 57 59 60 61 62 62 64 64 63 62 62 62 63 63 62
47 46 46 46 45 45 45 46 46 45 45 45 45 46 47 47 48 49 49 50 50 52 52 53 54 54 55 55 57 58 59 61 62 63 61 63 63 63 62 63 63 64
46 45 45 45 45 45 45 46 45 45 44 45 46 46 46 47 47 48 49 50 51 51 51 52 53 53 54 55 56 57 57 59 61 63 63 63 63 62 63 63 63 63
45 45 44 44 44 44 45 44 44 44 44 44 45 45 45 46 46 47 47 49 49 50 51 52 52 52 52 53 55 55 56 57 58 61 63 62 62 62 63 63 62 63
46 45 44 43 43 43 43 43 43 44 44 43 44 45 45 45 46 46 47 47 48 48 49 49 51 52 53 53 53 54 55 56 57 58 60 62 62 62 62 62 62 61
46 43 42 42 43 43 43 43 43 43 43 44 44 44 44 44 44 45 45 46 47 47 48 48 49 51 51 52 52 53 54 54 56 57 57 59 61 63 62 62 62 61
46 44 42 42 43 43 43 43 43 43 43 43 43 43 44 44 44 44 44 45 45 46 46 48 48 49 50 52 52 52 53 53 54 55 55 56 58 60 62 61 61 60
45 43 42 42 43 43 43 43 43 43 43 43 43 43 43 43 43 44 44 44 44 44 45 46 47 48 50 51 50 51 52 53 53 54 55 55 57 58 60 62 62 61
45 43 42 43 43 43 43 42 42 43 43 43 42 42 42 42 42 43 43 43 43 44 44 45 46 47 49 50 51 51 51 52 53 53 54 55 56 57 57 60 61 61
44 43 42 42 43 43 43 43 42 42 42 42 42 42 42 42 42 42 42 43 43 43 43 44 44 46 47 48 49 51 52 51 51 52 52 53 55 55 55 58 59 61
44 43 42 42 43 42 43 42 42 42 42 41 42 41 41 42 42 42 42 42 42 42 43 43 44 44 46 47 49 50 52 52 51 51 52 52 54 55 55 57 58 60
43 42 42 42 42 42 42 42 42 42 42 42 41 41 40 41 41 40 41 40 41 41 42 43 43 44 44 45 47 49 51 53 52 52 51 51 52 54 55 55 57 58
42 42 41 42 42 42 42 41 42 42 41 41 41 41 40 40 40 39 40 40 40 40 41 42 42 43 44 45 45 47 49 51 52 53 52 52 52 52 54 55 56 57
41 42 42 41 42 42 42 42 42 42 41 40 40 40 40 39 38 38 38 39 39 39 40 41 42 42 43 44 45 46 48 49 50 51 52 52 53 52 54 55 55 57
41 42 42 42 41 41 42 42 41 40 40 39 39 39 40 38 38 38 38 37 38 39 39 40 41 42 42 43 44 45 46 49 50 50 51 52 52 53 54 55 55 56
41 41 41 40 41 41 40 40 39 38 38 38 38 38 38 38 38 38 37 37 38 38 39 40 41 42 42 42 43 45 46 48 50 51 51 51 52 53 54 55 55 56
41 40 39 39 40 39 38 38 37 38 38 38 38 38 38 38 38 37 37 37 38 38 38 39 40 41 41 40 41 42 46 48 50 51 52 52 52 52 53 54 55 55
39 39 39 39 38 37 37 37 37 38 38 38 37 37 38 38 37 37 37 37 38 38 38 39 39 40 40 40 41 41 43 47 49 52 52 52 52 52 52 54 55 56
39 39 39 38 37 36 37 38 37 37 37 37 37 37 38 37 37 37 37 37 37 37 38 39 39 39 39 40 41 41 42 44 47 50 52 53 52 52 52 54 55 56
39 39 38 37 36 36 37 37 37 37 37 37 37 37 37 37 37 37 37 37 37 37 38 39 39 40 39 41 41 41 41 43 47 49 51 53 53 53 55 55 55 55
39 38 37 36 36 36 37 36 37 37 36 36 36 36 36 36 36 36 37 37 37 38 38 39 40 40 40 40 41 41 42 42 48 49 51 53 53 54 55 55 56 55
38 37 36 34 35 36 36 36 36 36 35 35 36 35 36 36 36 36 36 37 37 38 39 40 41 40 40 41 41 41 42 46 48 49 51 53 53 53 54 54 55 56
38 37 35 33 35 36 35 35 35 35 36 36 35 35 35 35 35 35 36 36 37 38 39 41 42 42 41 41 41 42 43 47 49 50 51 53 53 54 55 55 55 55
37 36 35 34 35 35 36 36 36 35 35 35 35 35 35 35 36 36 36 37 37 38 39 41 43 44 43 42 42 42 44 48 49 50 51 54 54 54 54 54 54 50
37 36 36 35 36 36 36 36 35 35 35 35 35 35 36 36 36 36 37 38 38 39 40 41 42 44 44 43 42 42 44 49 50 51 52 53 53 53 54 54 54 50
37 36 36 36 36 36 36 36 35 35 35 35 36 36 36 36 37 38 39 39 40 40 41 42 43 46 48 43 43 43 43 49 51 51 51 51 51 50 48 49 51 50

ECMWFNIL_sfc_dewp_006.txt.gz
Dewpoint
50 49 48 47 47 48 49 49 49 49 48 48 47 47 46 48 48 49 50 50 52 51 52 52 53 53 53 54 55 55 54 56 57 60 61 61 62 62 62 62 62 62
50 49 47 47 47 47 48 48 49 48 48 49 48 47 48 48 48 48 49 48 49 50 51 52 52 53 53 53 54 54 54 54 55 56 59 61 61 60 61 60 62 63
49 49 48 48 47 48 49 49 49 48 47 48 49 49 48 48 48 48 47 48 48 49 51 52 52 52 52 52 53 54 53 54 54 55 57 57 59 60 63 63 63 63
49 49 47 47 47 47 48 47 47 47 47 47 47 48 48 48 47 47 46 47 47 48 49 50 51 51 52 52 53 52 53 53 53 54 55 56 57 60 62 61 62 63
49 48 48 47 47 47 47 47 46 46 46 46 47 47 47 47 45 45 45 45 46 47 47 48 50 51 51 52 53 52 52 52 53 54 53 54 56 57 59 61 62 60
48 45 45 46 46 47 46 45 44 45 44 45 45 45 45 46 44 43 44 45 45 45 46 48 48 50 50 50 51 52 52 52 52 53 52 52 53 55 55 58 60 60
48 47 47 46 46 46 46 45 45 45 44 43 41 42 43 44 44 42 41 43 44 44 44 45 46 48 49 50 50 51 51 51 51 51 51 51 51 52 54 56 56 57
48 47 46 46 46 46 45 44 44 43 43 41 43 41 41 42 41 42 42 43 43 43 44 44 45 45 47 48 49 50 51 51 51 51 52 51 51 50 51 53 56 56
46 46 45 45 46 45 45 44 43 43 40 42 41 41 41 42 42 43 42 42 41 43 43 43 44 44 46 46 47 48 48 50 51 51 51 52 52 51 49 50 53 55
45 44 45 45 45 45 45 45 43 42 40 40 41 41 40 41 42 42 42 42 42 42 42 42 43 44 45 45 46 46 48 49 50 50 50 51 51 51 50 50 52 53
45 44 44 45 45 44 45 43 43 42 40 38 40 41 41 42 42 42 42 41 42 41 42 42 43 43 43 44 45 46 47 48 49 49 50 50 51 51 51 52 51 52
44 44 44 44 44 43 43 42 41 41 40 41 41 42 42 42 42 41 41 40 40 40 41 41 41 42 42 42 43 44 46 47 48 49 50 50 50 51 51 52 53 52
42 42 42 43 43 43 42 40 40 41 41 41 41 41 41 40 40 40 41 40 40 40 40 40 41 41 42 43 43 43 44 45 47 48 49 50 51 50 50 52 52 52
42 42 42 42 42 40 39 40 40 41 40 40 40 40 40 39 39 39 40 39 40 40 40 40 40 40 40 41 42 43 44 44 45 47 48 49 51 51 50 51 51 52
41 41 41 41 39 39 38 39 39 40 40 39 39 40 40 39 39 39 39 39 39 39 39 39 40 40 40 41 41 42 43 44 45 45 47 48 50 50 51 50 51 52
38 39 39 39 39 38 37 38 39 39 39 38 38 38 38 39 38 39 38 39 38 38 39 40 40 40 40 40 40 41 43 43 44 45 46 47 48 50 50 50 50 52
37 37 38 37 37 36 38 38 37 38 38 38 38 38 39 39 39 38 38 38 38 38 38 39 40 39 39 38 38 40 41 43 44 44 46 46 47 49 50 50 51 50
36 36 36 37 36 35 36 36 37 37 37 37 38 39 39 39 38 38 38 38 38 38 38 38 39 39 37 38 38 38 40 42 42 43 45 46 46 47 49 50 50 51
35 36 35 35 35 36 36 36 36 36 37 37 37 39 39 38 37 38 38 38 37 37 37 37 38 37 37 37 38 38 38 40 41 41 42 44 46 47 48 50 50 51
35 34 34 34 36 36 35 34 35 35 37 37 37 38 37 37 37 37 37 37 37 36 37 37 37 37 37 37 37 37 37 38 40 41 42 42 43 45 49 51 51 51
35 33 33 35 35 34 34 33 34 36 36 36 36 36 36 36 36 36 36 36 36 36 36 37 37 37 37 37 37 37 37 37 40 40 41 42 43 44 45 48 51 51
34 33 34 33 32 32 33 33 34 35 35 35 36 35 36 36 35 35 36 35 35 36 36 36 36 36 36 36 37 37 37 40 40 40 40 41 42 44 45 46 49 52
33 33 33 31 30 32 32 33 34 35 35 35 35 35 35 34 35 35 35 35 36 36 36 36 36 36 36 36 36 37 37 39 40 40 40 41 42 44 45 46 47 51
34 32 31 30 30 32 33 34 35 36 35 35 34 34 34 34 34 34 35 35 35 35 36 36 37 37 36 36 36 37 38 39 40 40 41 41 42 43 45 46 47 47
33 32 31 30 30 32 34 35 36 36 35 34 34 34 34 34 34 34 34 35 35 36 37 37 37 38 37 36 36 37 38 40 40 41 41 42 43 44 45 47 47 47
34 34 32 29 31 33 34 35 36 36 35 34 34 33 33 33 33 33 33 34 35 36 37 37 38 39 40 38 37 37 38 40 40 41 42 43 44 45 46 47 47 48

ECMWFNIL_sfc_dewp_009.txt.gz
Dewpoint
50 49 50 49 48 48 49 50 49 49 48 47 48 48 46 48 49 51 51 50 50 51 51 52 52 52 52 54 54 52 52 55 55 55 55 58 61 63 62 62 61 61
51 50 48 48 47 47 47 49 50 50 49 50 49 48 49 49 50 50 50 50 50 50 50 51 51 51 51 51 53 54 52 54 54 54 56 56 57 61 62 63 62 62
51 50 48 47 46 48 50 50 50 50 49 49 50 50 50 49 50 50 50 50 49 49 50 50 51 51 52 53 53 54 53 52 53 54 54 54 55 57 59 63 63 63
50 50 50 49 48 49 50 49 49 49 49 48 48 49 49 50 50 50 50 49 49 48 48 48 49 50 50 51 53 52 52 52 52 53 53 54 55 55 56 58 59 61
50 50 49 48 48 48 49 48 48 47 47 46 48 48 47 48 48 48 49 48 48 47 47 47 47 48 49 51 51 51 52 52 53 53 52 52 53 54 55 56 56 58
50 48 47 47 48 49 48 47 47 47 46 47 47 46 47 47 46 46 46 47 46 45 45 44 44 45 47 49 50 51 51 51 52 52 51 51 51 52 52 54 55 56
49 49 48 47 48 48 48 47 47 46 45 46 45 45 45 45 44 43 43 44 44 44 43 44 44 45 45 47 48 49 50 51 51 51 50 50 50 50 51 52 53 53
49 49 48 48 48 48 48 47 46 46 47 45 46 45 44 43 42 43 43 43 43 42 43 42 43 43 44 45 45 47 49 50 51 50 51 50 51 50 50 50 52 52
49 49 48 48 48 48 47 46 46 46 46 46 45 44 43 42 41 41 41 41 41 42 41 42 42 41 43 43 44 44 45 48 49 50 50 51 51 50 49 49 49 50
48 47 47 47 48 47 46 46 46 46 45 45 44 44 41 42 41 40 40 40 40 40 40 41 42 42 41 41 41 43 44 44 46 48 49 50 50 49 49 50 50 50
48 46 46 47 47 46 47 46 46 46 45 43 44 43 42 41 41 40 40 39 42 40 41 41 41 41 41 41 42 43 43 44 45 46 48 48 49 49 50 50 50 51
47 46 46 46 46 46 46 46 45 45 43 43 42 41 41 41 40 40 41 40 40 41 41 41 41 41 41 41 41 42 42 43 45 45 46 46 47 49 49 49 51 50
44 45 45 45 46 45 45 43 43 43 42 41 41 40 40 39 39 39 40 41 40 41 41 41 41 41 41 42 42 41 42 41 42 43 44 46 47 47 48 49 49 50
42 44 44 44 44 43 42 43 41 41 41 41 40 40 39 38 38 39 40 40 40 40 40 41 41 41 41 41 41 42 42 42 42 42 43 44 46 47 48 49 49 50
43 43 43 42 41 41 41 41 40 41 40 40 39 39 40 39 39 39 39 39 39 39 39 40 41 41 41 41 42 41 41 42 42 42 43 43 44 46 47 48 49 50
41 42 41 41 40 40 40 40 39 39 39 39 38 38 38 39 39 39 38 38 38 38 39 41 41 42 42 41 41 41 41 41 42 43 42 43 43 44 45 47 48 49
40 39 38 38 39 39 39 39 37 38 38 38 38 38 39 39 39 38 39 39 38 38 39 40 40 40 39 38 38 39 41 41 40 41 42 43 44 44 44 45 47 47
37 37 37 37 37 36 37 36 37 37 36 36 36 38 38 39 39 38 38 39 39 39 39 39 40 39 38 38 38 38 39 41 41 40 41 40 41 43 44 45 46 47
34 35 35 36 36 36 36 37 36 35 35 35 35 37 38 37 37 38 38 38 38 38 38 38 39 38 37 38 37 37 37 39 39 39 39 39 40 41 41 43 45 46
34 33 34 34 35 36 36 34 34 34 35 35 35 36 36 37 37 38 38 37 37 37 37 38 38 38 37 37 37 37 37 37 39 39 39 39 39 39 41 41 43 44
32 33 34 34 35 35 35 34 34 35 34 33 34 35 36 35 35 36 36 37 37 37 37 37 38 37 36 36 36 36 36 37 39 39 38 39 38 39 39 40 41 42
32 33 34 33 34 34 33 32 33 34 33 34 35 35 35 35 35 35 35 35 36 36 36 36 36 36 36 36 36 36 36 38 37 38 38 38 38 39 38 39 40 41
32 33 33 33 33 33 31 32 33 33 33 35 35 35 35 34 34 34 34 35 35 35 35 35 35 36 36 36 36 36 36 37 36 36 36 37 37 38 38 39 40 40
31 31 33 34 33 31 31 32 32 32 34 35 35 34 34 34 34 34 34 34 34 34 34 34 35 35 36 36 36 36 37 37 37 36 36 36 37 37 38 38 39 41
29 32 32 33 33 33 33 32 32 32 33 35 35 35 34 33 33 33 33 33 33 33 36 35 34 35 35 35 35 36 37 37 36 36 36 36 37 37 38 38 39 40
32 34 34 35 34 34 33 32 33 32 34 34 35 33 33 33 33 32 32 32 32 32 33 33 33 34 35 35 36 36 37 37 37 37 37 37 37 36 37 38 39 39

ECMWFNIL_sfc_dewp_012.txt.gz
Dewpoint
54 54 54 54 54 53 54 54 55 54 54 54 54 53 53 54 55 55 55 55 54 53 52 52 52 52 52 53 53 53 52 53 54 54 54 55 56 57 59 61 62 62
53 53 52 53 52 52 55 55 55 55 54 55 54 54 54 54 55 54 54 53 52 52 51 51 51 51 51 51 52 52 52 53 53 54 54 55 55 55 57 60 61 62
53 53 53 52 52 53 53 55 55 55 55 55 55 55 54 55 54 53 53 53 51 51 52 52 51 51 51 51 51 52 52 52 52 53 53 53 55 55 55 56 59 62
53 53 52 52 53 53 54 54 54 54 54 52 52 53 52 53 54 54 53 51 51 50 51 50 50 49 48 47 49 50 50 51 52 53 53 53 53 54 54 55 56 58
52 52 52 51 52 54 53 52 51 52 52 52 53 53 52 52 51 49 49 50 50 50 50 49 49 49 49 49 49 49 50 50 51 52 52 52 53 53 54 54 55 55
52 50 50 50 51 51 51 51 50 51 51 51 52 51 50 50 48 47 48 48 47 47 47 47 47 47 46 46 47 48 49 49 49 50 50 51 51 52 51 53 53 54
51 51 51 50 50 51 51 50 51 51 51 52 51 50 49 48 47 46 45 45 44 44 44 45 46 46 47 47 47 46 47 48 48 48 48 49 50 51 51 51 51 51
52 52 51 50 51 51 50 50 50 51 52 50 49 48 48 46 45 46 45 45 43 42 43 43 44 44 44 45 44 45 45 48 48 48 48 48 50 50 50 51 51 51
52 51 51 51 51 50 50 49 50 50 49 49 48 48 47 47 46 45 44 43 41 42 41 41 42 42 44 45 45 44 43 44 46 46 47 48 48 49 49 49 50 51
50 50 51 50 50 50 50 50 50 50 49 48 47 48 46 47 46 44 43 43 42 41 41 41 42 42 43 43 42 42 42 42 42 44 44 46 47 47 47 48 49 50
50 50 50 50 50 50 50 50 49 48 49 47 47 47 46 46 45 44 43 42 43 41 40 40 41 41 42 42 43 43 43 42 42 42 43 44 45 46 49 48 48 49
50 50 50 49 49 49 49 49 49 48 47 48 46 45 45 45 44 43 43 41 40 40 40 40 40 41 41 41 42 42 43 43 43 43 43 42 43 44 45 46 47 48
49 49 49 49 49 49 49 48 47 48 47 44 44 44 43 43 42 41 41 41 40 40 40 40 41 41 42 42 42 42 42 42 43 43 43 43 43 43 44 44 46 47
49 49 49 48 49 49 48 48 47 46 46 44 44 43 43 41 40 40 40 40 40 40 41 41 41 41 41 41 41 41 42 42 42 43 43 43 43 43 44 44 45 46
49 47 48 47 47 47 47 46 45 45 45 43 44 43 44 41 40 40 39 38 38 39 39 40 41 42 41 40 41 41 42 42 42 42 42 42 42 42 43 43 43 44
45 47 46 47 47 46 44 45 43 45 45 44 42 41 40 41 40 40 39 39 39 39 39 41 42 42 43 41 41 42 41 41 42 41 41 41 42 42 43 43 44 44
43 43 44 44 44 44 45 43 42 43 44 41 42 42 42 40 40 38 38 39 38 38 39 41 41 41 40 38 38 39 41 41 41 41 40 40 40 41 40 41 42 42
42 42 42 42 42 40 41 40 43 42 41 40 41 41 41 42 40 38 38 38 39 38 38 39 39 40 38 38 38 38 39 41 40 40 40 40 40 40 40 40 40 41
40 40 39 40 40 40 41 43 41 41 40 39 39 42 42 38 37 38 38 38 37 36 37 37 37 38 37 37 37 37 37 38 39 39 39 39 39 39 39 39 39 40
39 38 40 42 44 42 42 40 41 39 40 41 42 40 40 41 39 38 37 37 36 36 36 36 37 38 37 37 37 36 36 37 39 38 38 38 38 38 38 39 39 39
37 39 41 40 40 40 43 42 41 40 39 39 39 39 41 40 38 37 37 37 37 36 36 36 37 37 36 36 36 36 36 36 37 38 38 37 38 38 38 38 38 39
43 43 43 39 38 39 39 39 41 41 39 40 40 38 40 41 38 38 37 36 36 35 35 35 36 36 35 36 36 35 36 37 36 37 36 37 37 38 38 38 38 37
42 42 42 40 39 39 38 40 41 40 40 41 39 40 40 37 37 37 36 35 35 35 35 34 35 35 35 35 35 35 36 36 36 36 36 36 36 36 36 36 37 37
39 33 35 39 41 38 40 42 41 40 37 39 37 36 37 36 36 35 35 35 34 34 34 34 34 35 35 35 35 35 35 34 36 36 35 35 35 36 37 36 37 40
40 40 38 38 37 40 43 41 40 38 36 35 40 38 38 36 34 33 33 34 34 34 37 35 34 34 35 34 34 35 35 34 35 34 34 34 35 35 35 36 36 38
41 42 43 42 42 42 41 40 38 36 37 37 37 35 34 34 33 33 33 33 34 33 34 33 33 33 34 34 34 34 35 34 34 34 34 34 34 34 35 35 35 36

ECMWFNIL_sfc_dewp_015.txt.gz
Dewpoint
51 52 51 51 51 51 51 50 50 50 50 49 48 49 48 49 52 50 51 51 51 50 50 50 50 50 51 50 50 51 51 52 52 52 52 53 53 53 53 53 55 59
52 53 53 52 51 51 52 50 50 49 50 49 49 50 49 49 50 49 50 50 51 50 51 50 50 51 50 50 51 50 51 52 51 53 53 53 53 52 52 53 54 55
52 52 51 51 50 49 50 51 50 49 49 50 50 49 50 51 50 50 50 49 49 49 50 50 50 50 50 50 50 50 49 49 49 50 51 51 52 51 51 52 54 55
51 51 50 50 50 49 49 50 49 50 49 49 48 49 50 50 49 49 50 53 49 49 49 50 50 49 49 48 48 47 47 48 49 50 51 51 52 53 53 53 53 54
51 51 50 50 50 50 50 49 49 49 49 49 49 49 49 48 48 48 47 48 48 48 49 49 49 49 49 49 49 48 48 49 49 50 50 49 49 50 51 52 52 52
51 50 50 49 49 49 49 49 49 49 49 49 49 49 47 48 47 47 48 47 47 47 47 47 47 48 48 47 47 46 47 48 48 48 48 48 48 49 50 51 51 51
50 50 49 49 49 49 49 49 49 49 49 48 49 47 47 47 47 47 47 47 46 46 45 44 45 45 46 45 45 46 46 47 47 48 48 48 48 47 48 49 50 50
50 50 49 49 48 49 49 49 49 48 48 48 46 47 47 47 46 46 47 46 45 44 44 44 44 44 44 45 45 45 45 46 46 45 46 47 48 47 47 48 48 48
50 50 50 48 48 48 48 49 48 48 49 47 47 47 47 47 47 46 46 45 45 44 43 43 43 43 43 44 43 43 43 43 44 44 44 45 45 46 47 47 47 47
50 50 49 49 48 48 48 48 48 48 48 47 47 47 47 47 47 47 46 44 44 43 43 42 42 42 43 43 43 43 43 43 43 42 42 42 43 44 45 46 47 47
50 50 49 49 48 48 48 48 48 48 48 47 47 46 47 46 46 46 45 44 44 43 42 42 42 42 42 43 43 43 43 43 43 43 43 43 43 43 45 44 45 46
49 49 49 48 48 48 48 48 48 47 47 47 47 46 45 45 45 44 44 43 43 43 42 42 42 42 41 42 42 42 43 43 42 42 43 42 43 43 43 43 44 43
49 48 49 48 48 48 48 48 47 47 47 46 47 46 45 44 44 43 43 42 42 42 41 41 41 41 42 42 42 42 42 42 42 42 42 43 43 43 43 43 43 44
49 48 48 48 48 48 47 47 47 46 46 46 45 43 43 43 42 41 41 40 41 41 42 43 42 41 41 41 41 42 42 41 41 42 42 43 43 43 43 42 42 43
49 48 48 47 47 47 47 46 46 45 44 44 43 43 44 43 41 41 40 40 40 40 40 40 41 41 42 41 41 40 40 40 40 40 40 40 40 40 40 41 41 41
48 48 47 46 46 45 45 44 44 44 43 43 43 42 40 41 41 41 40 39 39 39 39 40 40 41 42 40 39 39 39 39 40 39 39 40 40 40 40 40 40 40
47 46 46 45 44 44 43 43 43 43 43 42 41 41 40 40 40 38 38 38 38 38 38 39 40 40 39 37 37 38 38 38 38 38 38 38 38 38 38 39 39 39
44 44 44 43 43 42 42 42 42 42 41 40 40 39 39 39 38 38 38 37 38 37 36 37 38 39 37 37 37 37 38 38 37 37 37 37 37 37 37 38 38 38
43 43 42 42 42 42 41 41 41 40 39 38 37 39 39 38 37 36 36 37 36 36 36 37 37 38 37 37 37 37 37 37 36 36 36 36 36 36 36 37 37 38
42 41 40 40 40 40 40 39 39 38 38 37 38 38 37 36 36 36 36 36 36 36 37 37 37 38 37 37 37 37 36 36 36 36 36 35 36 36 36 36 36 37
40 39 38 38 38 38 38 38 38 37 37 37 36 36 36 35 35 34 35 37 36 37 36 36 37 37 36 36 36 36 36 36 36 37 36 35 35 35 35 36 36 37
37 36 37 37 37 37 37 36 36 36 35 36 36 36 35 35 35 35 35 35 36 36 35 35 36 36 36 36 36 35 36 36 35 34 34 34 34 34 35 35 35 35
36 36 36 36 36 36 35 36 36 35 35 35 35 34 34 34 34 34 35 35 35 35 35 34 34 35 35 35 35 35 35 34 33 33 33 32 33 33 33 34 34 35
34 35 35 36 36 36 36 36 36 35 34 34 34 33 33 33 33 33 34 35 34 34 34 34 34 35 35 35 35 35 35 34 34 33 32 32 32 32 33 33 34 38
34 35 35 35 36 37 36 35 34 33 34 35 34 33 33 33 35 34 33 34 34 34 38 35 33 34 34 34 34 34 35 34 32 31 30 30 30 30 31 32 32 35
36 37 35 35 36 36 36 34 33 33 34 34 33 33 32 33 33 32 33 33 33 33 33 33 32 32 33 33 34 34 35 34 32 30 30 30 30 30 31 31 31 32

ECMWFNIL_sfc_dewp_021.txt.gz
Dewpoint
50 49 49 49 48 47 47 47 47 48 47 46 46 47 46 47 49 47 48 48 48 47 47 47 48 47 48 47 47 47 48 48 48 48 48 48 46 47 48 48 48 49
49 49 50 49 48 48 48 48 47 48 48 47 47 46 46 48 48 47 47 48 48 47 47 47 48 48 47 47 47 47 47 46 47 49 47 47 47 46 47 47 48 49
49 49 48 48 48 48 47 48 48 47 47 48 47 46 47 47 47 46 46 46 46 46 47 47 46 47 47 47 47 46 46 46 46 46 47 46 47 47 48 48 48 47
49 49 48 48 48 48 48 48 48 47 46 47 47 48 48 49 47 46 50 51 46 45 45 46 46 46 46 46 47 47 46 46 46 46 46 46 47 47 47 47 48 48
50 49 49 49 48 48 49 48 48 48 48 48 46 47 50 47 45 45 45 45 44 45 45 45 45 46 47 47 46 46 46 46 46 45 45 45 45 46 46 47 46 47
50 50 50 49 49 48 49 49 48 48 48 46 47 49 47 46 46 45 45 44 45 45 45 44 44 45 45 45 45 44 44 45 44 44 44 44 44 45 46 46 45 45
49 50 50 50 49 49 48 49 48 49 48 47 48 47 47 46 46 45 44 45 44 47 45 44 44 44 44 43 43 43 43 43 44 44 44 44 44 43 43 44 45 44
49 50 50 50 49 49 48 48 48 48 47 47 47 47 47 46 46 44 44 44 44 44 44 44 43 43 43 42 43 42 43 43 44 43 43 43 43 42 42 43 43 43
49 49 50 49 49 49 48 48 48 48 48 47 47 47 46 46 45 45 45 44 43 44 43 43 43 43 42 42 41 41 41 42 43 42 42 42 42 42 42 42 43 43
49 49 49 49 49 49 48 48 48 48 48 47 47 47 46 46 45 45 44 44 44 44 43 42 42 42 41 41 41 41 41 41 41 41 41 41 42 42 42 43 43 43
50 49 49 49 49 48 48 48 47 47 48 46 46 46 46 46 45 44 44 44 44 43 42 41 41 41 41 40 41 41 41 41 41 41 41 41 41 41 44 43 43 43
50 50 49 49 48 48 47 47 47 47 47 47 46 45 45 45 45 45 45 44 43 42 41 41 41 40 40 40 40 41 41 40 41 40 41 40 40 41 41 41 42 42
51 50 50 49 48 47 47 47 47 47 47 46 46 45 45 44 43 44 45 43 41 41 41 40 40 40 40 39 40 40 39 39 38 38 39 39 39 39 39 40 40 40
51 51 50 49 48 47 47 47 47 46 46 46 46 45 45 44 44 43 43 41 41 40 41 41 40 39 38 39 39 38 39 38 37 38 38 38 38 38 38 39 39 39
52 51 50 49 48 47 47 47 46 46 46 46 46 45 45 44 43 42 41 40 39 40 40 40 39 38 39 39 38 37 36 37 37 37 36 36 37 37 37 38 38 38
51 50 49 48 47 47 47 47 46 46 45 45 45 44 43 42 41 40 39 39 38 38 37 39 39 39 42 41 41 39 37 37 37 37 37 36 37 37 37 37 37 38
48 48 48 48 47 47 47 46 46 45 45 44 43 42 42 42 40 39 38 38 37 37 35 37 38 38 38 37 37 38 38 37 37 37 37 37 37 36 36 37 37 37
49 47 47 47 47 46 46 46 45 45 44 43 41 40 40 40 38 37 37 37 36 35 35 36 36 39 37 37 37 37 38 39 37 37 37 37 36 36 36 36 36 36
48 47 47 46 47 46 46 45 44 44 42 41 40 40 39 37 36 36 36 35 35 34 35 36 35 38 37 37 37 37 37 37 36 36 36 36 36 35 35 35 35 35
48 47 47 47 46 46 45 44 43 42 40 39 39 38 36 35 35 35 35 35 34 34 35 35 34 37 37 37 36 36 36 36 36 35 35 35 35 34 34 34 34 34
47 47 47 44 43 43 43 42 40 38 38 38 37 35 35 34 34 34 34 36 34 33 32 33 34 36 36 35 35 35 35 35 35 35 35 34 34 34 34 34 34 34
47 45 43 43 43 42 40 39 37 37 36 36 35 35 35 35 34 35 34 32 33 31 32 31 32 35 35 34 34 34 35 35 34 34 33 33 33 33 33 33 33 34
45 44 43 42 40 39 37 37 36 36 36 36 35 34 34 34 34 34 34 32 32 33 31 30 29 33 34 34 34 34 34 33 33 33 32 32 32 32 32 32 33 33
43 42 40 40 38 37 36 35 35 35 35 35 34 33 33 33 33 33 32 33 31 30 30 28 29 33 34 34 34 34 34 33 32 32 32 32 32 32 32 32 32 35
41 40 38 38 36 35 35 35 34 35 35 34 34 34 33 33 35 32 31 30 31 30 36 33 30 32 34 33 33 34 34 33 32 32 32 31 32 31 31 31 31 33
40 39 39 38 36 35 36 35 36 35 34 34 34 34 33 33 35 32 30 30 30 31 31 30 30 30 32 33 33 34 34 34 32 32 32 31 31 31 31 31 31 31

ECMWFNIL_sfc_dewp_024.txt.gz
Dewpoint
49 50 49 48 46 46 46 47 47 47 47 46 46 46 47 47 50 49 49 49 49 49 49 49 49 49 49 48 49 49 50 49 49 49 48 49 48 48 48 49 49 50
49 50 51 50 48 48 47 47 47 47 47 47 47 47 46 49 49 49 49 50 50 48 48 49 49 48 48 48 48 49 48 47 48 50 48 48 48 48 48 49 49 49
49 49 50 49 49 48 47 47 47 47 47 47 47 47 47 49 49 48 49 48 48 48 48 47 47 48 48 48 48 48 47 47 47 47 50 48 48 48 48 49 49 49
49 49 49 50 49 49 48 48 47 47 47 47 47 48 49 49 48 48 48 51 48 47 46 47 47 47 48 48 48 48 47 47 47 48 47 48 49 49 48 48 50 48
49 49 49 49 49 48 48 47 47 48 47 48 48 48 50 49 47 48 49 47 46 46 46 47 46 47 47 47 46 46 48 46 46 46 46 46 46 48 48 48 47 47
50 49 49 49 49 48 48 47 47 48 48 47 47 49 49 48 47 48 47 46 45 46 45 45 45 46 46 46 45 45 45 44 45 45 45 45 45 46 46 45 45 45
49 50 49 49 49 48 48 48 48 48 48 48 48 48 48 47 47 47 46 46 45 47 45 45 45 45 45 44 45 44 44 44 44 44 44 44 46 44 44 44 45 44
49 50 50 50 49 48 48 48 48 48 48 48 48 48 47 47 46 46 46 45 45 46 45 45 44 44 44 44 44 43 43 44 44 43 43 43 43 43 43 44 44 43
50 49 50 49 49 49 48 48 48 48 48 48 48 47 48 47 46 46 45 45 45 45 44 44 44 44 43 43 43 43 42 42 44 43 43 43 43 43 42 43 43 43
50 50 49 49 49 49 49 48 48 48 49 48 47 47 47 47 46 46 45 45 45 45 44 44 43 44 43 43 43 42 42 42 42 43 43 43 43 42 42 43 42 41
50 50 49 49 49 49 49 49 48 48 48 47 47 47 46 46 46 45 45 44 44 44 44 43 43 42 42 42 42 42 42 42 42 42 42 42 42 42 44 43 41 41
51 50 50 49 49 49 49 49 48 48 48 47 47 46 46 46 45 45 45 44 44 44 43 43 42 42 41 41 41 43 42 42 43 42 42 41 40 40 40 41 40 40
52 51 50 50 49 49 49 48 48 48 48 47 47 46 45 45 45 45 46 44 44 43 43 42 42 41 41 41 41 41 41 40 39 39 39 39 39 39 39 39 39 39
52 51 50 50 49 48 48 48 48 47 47 47 47 46 45 45 45 45 45 44 43 43 42 42 41 40 40 41 41 41 41 40 39 39 39 38 39 38 39 39 39 39
52 51 50 50 49 48 48 47 47 46 47 47 46 46 46 45 45 44 44 42 41 41 41 41 40 40 41 40 40 38 38 38 38 38 38 38 38 38 38 38 39 39
51 50 50 49 49 49 48 47 47 47 46 46 46 45 45 45 44 43 43 41 40 39 39 39 39 41 44 40 41 41 39 38 38 38 38 38 38 38 38 38 38 39
50 49 49 49 49 49 48 47 47 47 47 47 46 45 44 44 43 41 40 39 38 38 38 38 39 39 38 37 37 38 39 38 38 37 38 37 38 37 37 37 38 37
50 49 49 49 49 48 48 47 47 47 47 46 45 45 44 43 42 39 38 38 37 36 37 38 38 39 37 37 37 36 38 39 37 36 37 36 36 36 36 37 36 37
49 48 48 48 48 47 47 47 47 46 45 44 44 44 42 41 38 37 37 36 36 35 37 39 36 38 36 36 36 35 35 36 35 35 35 36 35 35 36 35 35 36
48 48 48 47 47 47 47 46 46 46 45 44 43 41 40 38 37 37 36 36 35 36 35 36 35 36 36 36 35 35 34 35 35 34 35 35 35 35 35 35 35 35
47 47 47 46 46 46 45 46 46 44 43 42 41 40 39 38 38 35 35 37 36 34 34 34 35 38 35 35 35 35 34 35 35 35 34 34 35 35 34 34 34 35
46 46 45 44 44 45 45 44 43 42 41 40 39 39 38 38 36 36 35 34 34 33 34 33 33 35 35 35 35 34 34 34 34 33 33 33 33 34 33 34 34 34
46 46 45 44 44 44 43 42 41 40 39 38 37 36 35 34 34 33 32 32 34 33 32 32 31 35 34 35 34 34 34 33 32 33 33 32 32 33 33 33 34 33
46 45 44 44 44 44 42 41 39 38 37 37 35 34 34 33 32 32 31 32 33 33 31 31 31 33 35 34 34 33 34 33 32 32 32 32 32 33 33 33 33 35
45 44 44 43 41 40 39 38 37 37 37 35 35 34 34 33 34 30 32 32 32 31 38 33 32 34 35 34 34 34 34 33 32 32 31 31 31 31 32 32 32 33
43 43 41 39 38 38 39 39 38 37 36 35 35 34 34 34 34 31 31 31 32 35 35 35 32 31 34 34 34 33 34 33 32 32 31 31 31 31 32 32 31 31

ECMWFNIL_sfc_dewp_027.txt.gz
Dewpoint
55 55 55 54 54 54 55 54 54 54 54 54 52 53 53 56 56 56 56 55 55 54 53 53 53 53 52 51 50 46 46 49 49 48 48 47 47 47 47 47 49 47
55 55 54 55 54 53 54 55 55 54 54 55 54 55 56 56 57 56 55 55 54 53 52 52 52 51 50 48 49 47 46 48 48 48 48 47 47 47 47 48 47 48
54 54 55 55 54 54 54 55 55 55 54 54 56 55 55 57 56 56 55 55 53 53 53 52 52 51 50 49 49 47 47 47 47 48 47 46 47 46 47 46 46 47
54 55 54 55 55 55 55 53 54 54 54 54 53 54 55 56 56 55 56 54 53 52 52 52 51 51 49 48 49 47 47 46 47 48 47 48 48 47 47 47 46 46
54 54 54 54 55 55 55 54 53 53 53 53 55 54 54 55 55 54 54 54 53 50 51 51 51 51 50 49 47 47 47 45 48 47 45 46 47 47 47 46 46 45
53 52 52 53 54 55 55 54 54 53 53 54 54 53 54 54 53 53 53 52 51 50 50 49 49 50 49 49 48 47 46 44 47 47 43 44 45 46 43 45 44 42
54 54 54 53 54 54 55 55 55 54 54 54 53 54 54 54 53 52 51 51 49 48 46 48 49 50 50 48 47 47 46 47 46 44 42 43 44 46 45 43 41 39
55 55 54 54 54 54 54 54 54 54 54 53 53 53 53 52 51 53 51 50 48 46 46 46 47 47 48 47 46 47 48 49 47 44 43 43 44 42 43 42 42 39
55 55 54 55 55 54 54 53 54 54 53 53 52 53 53 52 51 52 51 49 48 47 46 47 47 47 48 47 46 45 44 46 46 44 44 44 43 41 37 39 40 40
56 55 55 55 55 54 55 55 54 54 53 53 52 53 51 52 52 51 50 49 48 46 46 47 47 48 47 46 44 43 43 43 44 44 43 42 40 39 37 39 39 39
57 56 55 55 55 54 55 55 55 54 53 51 52 52 51 52 51 51 50 48 49 46 46 47 47 46 46 46 46 45 44 44 43 42 42 40 41 40 39 39 38 38
57 57 56 55 55 55 55 55 54 54 53 53 51 51 51 51 51 50 49 47 46 45 46 46 46 46 45 44 44 44 44 44 42 41 40 39 39 39 38 39 40 38
57 56 57 56 55 55 55 54 54 54 53 52 53 52 51 53 52 50 50 47 46 47 47 47 47 46 45 45 43 42 41 40 41 41 40 41 39 38 38 39 38 37
57 58 57 57 55 55 54 54 54 53 52 51 51 51 50 51 50 50 50 48 48 47 48 49 46 44 43 42 41 41 41 40 40 41 39 39 40 38 39 38 38 37
56 56 56 56 55 55 54 54 54 53 52 51 52 52 52 51 51 52 51 49 48 48 47 46 45 43 42 41 41 39 39 39 38 35 37 36 36 36 37 37 37 38
52 54 55 55 55 55 54 54 53 53 52 51 50 50 50 51 51 51 50 49 47 46 45 45 44 43 42 40 40 35 34 33 36 35 34 34 35 35 36 36 37 38
51 52 53 54 54 55 55 54 52 52 51 50 49 49 51 50 50 49 50 49 46 44 43 43 42 39 38 37 37 38 35 35 33 33 34 34 34 34 34 35 35 34
49 50 51 52 53 53 54 53 52 51 50 50 50 52 51 51 51 49 48 46 44 42 42 41 38 38 36 36 37 36 37 33 34 33 34 33 33 33 33 34 34 36
47 48 49 51 52 52 53 52 51 50 50 50 50 51 51 49 48 47 45 43 42 40 39 37 33 37 36 36 36 35 35 35 30 33 33 32 33 33 34 35 35 36
47 47 48 50 52 52 52 52 51 50 51 51 51 50 49 47 45 44 43 42 41 40 37 35 33 36 35 36 35 35 34 34 33 34 34 33 33 34 35 35 35 35
46 46 47 49 50 50 51 51 51 51 50 50 49 48 46 44 43 42 42 41 39 38 36 36 35 36 35 35 34 35 34 35 34 35 34 34 34 35 35 35 35 36
45 46 47 48 49 49 50 51 51 50 50 49 48 46 44 43 43 42 41 40 39 40 38 36 39 35 35 35 34 34 34 34 32 33 32 32 33 34 33 34 34 35
45 45 46 47 48 48 49 50 50 49 48 46 45 43 41 41 40 39 36 36 37 36 35 35 35 36 34 34 34 33 34 30 31 28 29 31 32 33 33 33 35 34
45 44 45 46 47 47 49 50 49 47 45 44 42 40 39 39 41 39 37 37 35 35 35 34 33 35 35 35 34 34 34 31 27 28 30 30 31 32 33 33 33 34
44 45 45 46 47 48 49 47 44 43 42 41 41 41 40 39 37 35 35 37 37 38 38 36 34 35 36 35 35 35 34 31 28 27 28 29 30 30 32 32 31 32
45 45 46 46 47 48 45 43 42 41 42 41 40 41 39 35 34 34 34 35 37 37 37 37 36 35 36 34 35 35 35 31 29 27 28 28 29 30 30 31 31 30

ECMWFNIL_sfc_dewp_030.txt.gz
Dewpoint
55 55 54 50 49 49 52 49 49 50 48 48 47 49 48 52 53 54 54 55 54 52 51 51 50 51 50 50 49 46 48 51 50 50 50 49 49 50 49 49 50 49
57 56 53 52 50 49 51 51 51 49 49 50 49 48 50 52 54 54 55 55 54 53 51 51 51 50 49 48 48 47 47 50 50 49 51 51 50 50 50 50 49 48
58 58 57 55 53 54 55 54 53 51 49 50 51 50 51 54 54 54 55 55 53 53 52 50 50 49 49 49 48 47 47 48 49 49 49 49 49 49 49 48 47 48
58 58 57 57 56 56 56 54 54 52 51 51 51 52 53 54 53 54 55 54 53 53 52 51 50 49 48 48 49 47 47 47 47 49 49 49 49 48 48 48 47 47
58 58 57 57 56 57 57 56 54 52 52 51 52 52 51 53 54 53 54 53 53 52 51 51 50 50 49 49 48 48 47 46 47 49 48 48 48 48 47 48 47 46
58 56 56 56 56 57 56 55 54 53 52 53 53 52 50 52 51 52 53 52 52 51 51 50 49 49 48 48 48 48 46 46 47 47 46 47 47 47 43 47 46 44
57 57 57 56 57 57 56 55 55 54 53 54 53 53 51 51 50 50 50 51 51 50 49 49 49 49 49 49 48 47 46 46 45 44 43 45 46 46 45 44 42 40
56 56 56 57 57 57 57 55 55 54 55 54 54 54 52 51 49 51 50 51 49 48 48 47 48 47 48 47 46 47 48 47 46 44 43 44 45 44 45 43 45 43
55 55 55 57 57 57 57 56 55 55 55 56 55 54 53 52 51 51 51 50 49 49 47 47 47 46 48 47 47 46 45 46 46 44 45 46 46 44 39 41 43 43
56 56 56 56 56 56 56 56 55 55 55 56 55 54 54 54 51 50 51 50 50 48 47 47 47 47 47 46 45 45 45 45 44 45 45 44 43 41 39 41 42 42
58 57 56 56 57 56 56 57 57 56 55 54 55 54 54 54 52 51 51 50 51 48 47 47 47 47 46 46 47 46 45 45 43 43 44 43 43 43 43 42 42 41
57 57 57 57 57 58 58 57 57 57 56 56 54 53 54 54 53 52 51 50 49 48 48 47 47 47 46 45 45 46 46 46 44 44 43 42 42 42 41 42 43 41
57 58 58 57 58 58 58 57 56 57 56 55 55 54 54 54 56 53 52 50 49 49 48 48 47 47 47 46 46 45 45 44 45 44 44 44 43 41 40 41 40 39
51 54 57 58 58 57 57 59 60 57 56 56 55 55 54 54 54 52 52 51 50 49 49 48 48 47 46 46 45 45 45 45 44 45 43 44 44 42 41 40 39 38
49 49 51 52 54 56 56 56 56 57 57 56 56 55 55 55 55 52 51 51 50 50 49 49 49 48 47 46 45 44 45 45 44 42 42 41 40 39 39 38 38 38
45 47 47 49 51 52 53 54 54 56 57 56 55 54 55 55 55 55 52 52 50 49 49 50 49 50 46 41 43 44 44 42 42 41 39 38 38 38 38 37 37 37
44 46 47 47 48 50 52 52 52 54 56 56 55 54 54 54 54 53 52 54 51 50 49 50 46 41 36 35 36 37 40 41 40 39 38 37 37 37 36 36 35 33
41 42 43 45 47 46 48 50 52 52 52 53 55 54 55 53 53 52 52 53 52 50 50 46 40 35 34 35 35 34 36 38 38 38 37 36 36 35 33 34 34 35
42 42 42 44 45 47 49 50 50 52 52 52 52 54 54 53 52 52 52 51 51 48 45 39 35 35 34 33 33 33 33 35 35 36 34 35 35 34 34 34 35 35
43 43 43 43 45 47 49 49 50 50 52 52 52 53 53 53 53 53 52 51 48 45 40 36 33 35 34 34 34 33 33 34 35 35 35 34 34 34 36 36 36 36
42 42 43 44 45 46 48 49 50 52 52 51 50 51 53 52 52 52 51 48 44 40 36 34 34 34 34 34 34 34 33 34 36 36 34 34 35 36 36 37 37 38
43 43 43 43 44 46 47 48 49 51 52 51 50 51 52 53 52 51 47 44 40 37 35 32 34 34 34 34 34 34 34 39 33 32 32 33 34 35 36 36 36 37
42 43 43 44 44 44 45 47 49 50 50 50 50 50 50 50 49 46 43 40 37 35 33 31 32 34 34 33 34 33 34 33 32 29 30 33 34 35 35 35 36 36
43 42 43 43 44 43 45 47 49 49 49 49 49 49 48 47 44 40 39 38 36 35 33 31 31 34 34 34 33 34 34 31 29 29 31 32 32 34 34 34 35 39
43 43 43 43 43 44 46 47 48 48 48 50 50 47 44 41 38 37 36 36 37 37 38 34 32 33 34 34 34 34 38 31 27 27 29 31 32 31 33 33 33 36
44 45 45 45 44 45 46 46 49 48 49 47 45 41 38 36 35 35 35 36 37 36 36 34 32 31 34 34 35 34 34 32 29 28 29 31 31 30 31 32 32 33

ECMWFNIL_sfc_dewp_033.txt.gz
Dewpoint
52 52 51 49 48 49 51 49 50 51 50 48 48 49 49 51 53 53 53 53 53 51 49 51 50 51 50 49 49 46 48 51 51 50 50 49 49 50 50 49 49 48
54 53 51 50 48 48 50 50 50 50 50 49 49 49 51 51 54 53 54 53 53 51 50 50 51 50 50 48 49 48 48 50 49 48 51 52 51 51 51 50 49 50
55 54 54 52 49 50 52 52 52 51 50 49 51 51 51 52 54 53 54 54 52 52 51 51 50 49 49 49 48 48 49 47 49 50 50 48 50 49 49 50 48 48
56 55 54 53 52 51 52 53 51 51 50 49 50 50 51 52 54 52 54 53 52 53 52 51 51 49 48 48 49 48 48 48 48 49 48 49 50 48 49 48 47 46
57 56 55 54 53 53 54 53 52 51 50 49 51 51 50 54 54 51 53 53 52 52 52 51 50 50 49 49 48 48 47 47 48 48 48 48 49 49 48 49 48 47
57 55 54 53 54 54 53 54 52 51 51 51 51 50 50 53 53 51 52 53 51 52 52 50 49 49 49 49 49 49 47 47 47 48 47 47 47 47 44 47 46 47
56 55 56 54 54 54 54 54 54 53 51 52 51 52 51 52 52 50 50 52 51 51 50 50 50 49 49 49 48 48 47 47 48 44 45 46 47 47 45 46 43 41
56 55 55 54 55 54 55 53 53 54 53 51 51 51 51 49 49 51 50 51 50 49 50 49 49 48 49 49 48 48 48 48 48 44 44 44 48 45 46 45 45 43
57 55 53 54 54 54 55 54 54 53 53 52 51 51 51 50 50 50 49 49 49 50 49 49 49 48 50 49 48 47 47 48 48 46 44 45 45 45 43 43 45 45
58 57 57 57 55 55 56 55 55 55 54 52 51 51 49 52 50 48 49 49 49 49 49 48 49 49 49 49 47 46 47 47 46 46 45 45 45 43 40 43 43 44
61 61 59 59 59 60 60 60 60 60 58 53 53 52 52 51 52 50 49 49 51 49 49 49 49 48 48 49 49 48 48 47 47 45 46 45 46 45 47 43 43 44
60 60 59 58 57 58 59 59 59 60 59 60 54 54 54 53 52 51 49 48 49 50 49 49 48 48 47 48 47 48 49 48 48 46 45 45 44 44 42 41 43 43
58 58 58 58 58 58 59 58 58 58 57 58 57 56 55 54 53 53 54 51 50 51 51 50 49 49 48 48 48 47 48 47 47 46 46 46 44 43 43 43 43 42
46 51 56 58 58 57 57 58 57 58 59 59 57 57 56 54 53 53 54 55 53 52 52 51 51 49 48 48 47 47 48 47 47 47 46 45 46 44 44 43 43 43
45 46 47 47 51 55 55 55 56 56 57 56 56 57 57 56 54 54 57 56 54 57 54 57 54 51 49 49 50 47 47 47 47 45 46 45 45 44 44 43 42 42
41 43 43 45 46 47 49 52 53 55 56 56 58 56 55 55 55 57 56 56 54 53 53 55 58 55 53 46 46 47 47 46 47 47 45 45 44 43 42 41 41 41
38 40 43 42 42 43 45 47 48 50 52 54 55 57 57 57 57 57 57 56 54 53 54 56 53 47 42 38 40 43 47 48 47 46 44 43 42 42 41 41 41 38
37 37 38 39 41 41 42 42 44 47 48 50 53 55 56 56 56 56 55 55 54 54 55 56 49 40 37 37 37 38 42 46 45 44 43 42 41 40 39 39 38 38
36 37 37 38 38 40 41 44 44 44 45 47 49 53 53 54 53 54 54 54 54 53 53 47 42 37 36 36 35 34 34 39 40 41 40 40 39 39 38 38 38 37
36 36 37 37 39 39 40 41 43 43 45 47 48 50 52 51 53 53 53 54 53 53 50 45 40 36 34 34 34 33 32 34 39 39 39 37 37 37 38 37 37 36
38 38 38 38 39 40 42 41 42 45 46 47 48 48 49 50 51 53 53 54 53 53 43 41 38 34 33 33 33 33 32 33 39 39 37 37 37 38 37 37 37 38
37 38 39 40 41 41 41 42 44 45 47 48 48 47 48 48 50 52 53 52 54 43 40 35 34 33 32 32 33 33 33 38 38 37 35 35 35 36 35 36 36 37
37 38 39 40 41 41 41 42 43 44 46 47 47 48 47 48 49 51 52 53 43 40 37 33 31 33 33 33 33 33 33 36 35 33 32 34 34 35 35 35 36 36
36 37 39 41 41 41 42 43 44 45 46 47 46 46 46 46 49 49 51 43 40 38 34 32 31 34 33 34 33 33 36 36 32 32 31 31 31 33 34 34 34 43
38 39 40 41 41 42 43 43 43 45 46 46 46 47 47 48 45 43 41 39 37 35 36 32 31 33 34 33 33 33 37 35 31 27 27 29 30 31 33 34 33 38
41 42 43 43 43 44 45 44 44 45 46 47 48 46 45 44 42 39 37 35 34 33 33 33 32 32 34 33 33 33 34 34 31 28 28 29 31 30 31 31 31 32

ECMWFNIL_sfc_dewp_036.txt.gz
Dewpoint
58 56 58 58 56 57 56 57 56 56 57 58 57 55 56 58 55 59 58 58 58 56 56 57 56 57 57 55 56 51 53 55 55 54 54 53 53 53 53 52 53 53
57 57 56 57 57 56 57 59 58 56 58 59 58 57 56 58 56 58 58 58 56 56 56 56 57 56 56 54 54 58 52 54 53 52 55 55 54 53 53 52 51 53
57 58 56 57 57 58 57 59 60 58 57 58 60 57 57 58 56 58 59 58 55 56 56 56 56 56 55 55 54 58 54 55 55 55 55 52 54 53 53 53 52 52
58 59 58 57 57 59 58 56 59 60 59 56 59 59 57 57 57 57 58 57 57 56 55 56 55 54 54 53 54 56 53 54 54 55 54 54 55 53 53 52 52 50
59 59 60 60 59 60 58 57 58 59 59 58 58 59 58 57 58 56 58 57 57 56 55 55 55 55 55 54 53 55 52 54 53 53 53 53 54 52 54 53 51 50
59 57 58 59 61 61 59 58 57 58 59 59 59 58 59 58 57 56 56 57 55 55 55 54 54 55 54 55 52 54 50 51 51 52 52 52 51 52 47 53 49 49
60 60 61 60 60 60 59 59 60 59 59 59 58 58 57 58 56 55 53 54 54 53 53 54 54 54 54 55 53 54 52 52 50 49 50 50 51 50 50 50 48 48
60 60 60 61 59 61 60 60 59 59 59 59 58 58 57 56 54 55 54 54 53 52 53 52 52 51 53 53 52 52 54 54 53 49 49 50 51 48 50 52 50 46
60 61 60 59 61 60 59 57 58 59 59 59 58 57 55 54 54 55 54 52 52 53 52 52 52 51 53 53 53 52 51 52 54 50 50 51 51 50 46 47 48 47
59 59 59 60 60 61 59 59 59 61 58 58 58 59 55 57 55 52 52 52 52 52 52 52 52 53 53 52 51 51 51 50 52 51 51 51 51 48 46 48 47 49
60 62 61 61 61 61 60 59 59 58 59 57 58 57 56 57 56 53 51 50 52 51 51 51 52 52 51 52 53 53 52 52 51 50 51 50 51 50 51 48 47 49
60 60 59 58 59 59 60 60 59 60 60 59 58 58 59 59 57 57 54 51 50 49 50 50 51 51 50 50 50 51 52 52 52 51 50 49 50 51 49 49 49 48
58 59 60 59 59 59 59 60 59 60 60 60 60 59 58 57 57 57 57 59 59 58 57 53 51 51 51 52 50 50 50 50 52 52 51 51 51 49 48 48 46 47
58 59 59 59 58 59 59 59 60 58 57 58 59 58 58 57 56 59 59 58 58 57 55 56 57 56 56 56 51 50 51 51 51 51 49 50 51 49 49 48 48 47
54 54 59 59 58 58 58 58 58 58 58 58 58 57 58 58 58 58 58 57 56 56 57 58 57 59 57 56 54 54 54 51 50 49 49 49 48 48 49 48 47 48
51 55 54 54 53 53 55 57 56 57 57 56 57 57 57 59 58 57 56 57 56 56 57 57 56 58 54 51 47 51 52 51 52 50 49 49 48 48 48 48 48 47
50 50 52 51 53 54 54 53 52 54 55 55 56 57 57 57 58 57 57 57 55 55 55 56 59 57 49 44 44 43 52 53 51 50 49 49 49 48 46 46 46 42
48 46 48 49 51 50 51 50 51 50 50 53 54 56 57 58 58 58 57 56 56 55 54 55 54 43 43 44 44 43 46 53 51 50 50 48 47 46 45 47 47 46
47 46 45 48 47 47 51 52 50 50 49 50 52 55 55 56 57 57 58 57 56 55 54 54 48 37 39 40 39 41 43 47 47 48 46 45 45 45 46 45 45 45
42 41 42 45 47 47 49 46 47 46 51 52 51 52 55 55 55 56 56 56 56 56 55 46 42 37 37 37 38 38 39 42 45 45 45 44 44 43 45 45 45 43
39 41 44 44 44 44 46 45 46 49 49 51 52 53 52 54 54 54 55 55 54 52 45 42 38 35 35 35 35 36 38 40 43 43 41 41 42 43 44 46 44 45
41 45 47 46 45 48 47 46 48 51 50 52 51 52 52 52 53 53 54 53 48 44 40 35 35 33 34 34 35 36 38 42 41 42 40 40 41 43 43 43 44 43
42 42 46 47 46 45 44 46 48 48 49 49 49 51 51 52 51 52 53 46 43 40 36 32 33 34 33 33 35 37 39 39 40 36 38 40 41 42 42 42 41 40
40 37 41 45 48 44 47 49 50 50 49 51 49 50 49 52 52 47 44 43 40 37 34 32 32 34 34 34 33 34 39 43 38 41 41 40 40 42 42 40 38 45
40 41 42 44 43 45 49 49 49 48 48 50 50 50 49 46 44 43 41 40 38 36 37 33 33 34 33 33 33 33 38 37 35 37 38 38 38 37 41 41 40 41
46 45 47 46 44 46 49 48 49 49 50 49 51 47 44 43 41 40 38 37 36 35 34 33 32 33 35 33 33 34 34 36 35 33 32 34 34 33 33 34 33 34

ECMWFNIL_sfc_dewp_039.txt.gz
Dewpoint
52 53 52 52 52 52 53 51 52 52 52 51 50 52 53 51 54 52 52 53 51 51 51 51 51 50 51 51 51 50 51 51 51 51 50 51 49 49 48 47 49 49
53 54 54 52 53 53 53 52 52 53 53 52 52 53 54 52 52 55 53 53 51 50 52 51 52 51 51 51 52 50 51 51 50 53 51 51 50 49 48 48 48 48
53 53 53 52 53 52 53 54 52 52 54 53 53 53 54 52 52 55 54 53 51 52 52 52 51 51 52 50 52 50 49 50 49 52 53 52 51 50 50 49 49 47
53 53 53 53 54 52 51 55 53 52 53 54 53 54 54 53 52 55 54 58 52 52 52 52 52 51 51 48 50 51 50 51 52 51 48 50 50 50 48 48 49 47
55 53 54 52 55 54 52 53 54 53 52 52 55 54 55 53 52 54 54 55 53 53 52 52 52 50 51 48 49 50 48 50 51 50 49 49 50 49 49 48 48 47
56 55 55 53 55 54 52 51 54 54 54 51 53 54 54 53 51 53 55 54 54 54 52 52 52 51 51 50 49 50 48 51 48 49 51 50 49 49 50 49 47 45
57 56 56 56 56 55 53 53 53 54 54 52 54 53 54 54 53 52 54 54 54 54 53 52 51 51 51 51 48 50 47 50 48 48 50 49 48 47 48 47 47 47
56 56 56 54 55 56 54 54 54 54 55 55 53 53 54 54 54 53 53 54 53 53 54 52 52 51 51 51 49 50 49 51 48 47 48 49 47 45 48 48 47 46
57 57 56 55 56 57 56 56 56 55 55 55 54 54 53 54 54 54 53 53 53 52 52 53 52 51 51 50 51 49 50 49 50 47 46 48 48 46 46 47 43 45
56 56 57 56 54 56 56 56 56 56 55 55 56 55 54 54 54 53 54 53 53 53 52 52 52 51 51 50 50 50 50 49 50 47 47 48 49 47 46 46 43 44
57 58 57 57 57 57 57 56 56 57 57 56 56 56 57 56 55 56 55 54 53 52 52 52 52 52 51 50 50 50 49 49 50 48 48 47 49 48 50 46 45 44
55 56 57 58 57 57 56 57 56 56 56 56 56 55 55 56 56 57 56 55 55 56 55 54 53 53 54 54 51 50 49 50 49 48 48 47 48 47 47 47 46 46
56 57 56 56 55 55 55 56 56 56 57 57 56 55 55 55 56 56 55 56 56 56 55 56 56 56 56 55 54 53 51 50 50 48 48 47 47 47 47 46 46 46
57 57 56 56 55 55 55 56 56 55 56 55 56 55 56 57 57 56 56 56 56 55 56 55 55 56 55 55 56 56 53 51 50 49 48 47 48 47 45 44 45 46
56 56 55 55 55 55 55 55 56 56 56 55 55 55 56 56 56 56 55 55 56 56 56 55 55 55 56 55 55 55 54 53 52 50 48 47 47 45 45 45 45 45
52 56 56 56 55 55 55 55 56 56 55 54 55 56 56 56 56 55 54 54 54 55 56 56 55 56 54 51 52 54 54 53 53 51 48 47 46 45 45 45 45 45
38 41 48 54 55 55 55 55 55 56 56 56 56 56 55 56 55 55 54 54 54 55 55 55 55 55 50 47 46 48 51 52 53 51 49 47 46 45 44 44 44 44
42 40 39 42 43 43 45 47 48 51 54 55 54 54 55 55 55 55 54 54 54 55 53 53 53 51 48 47 45 43 45 52 51 50 49 47 46 45 44 43 43 44
41 41 42 41 42 43 42 43 43 43 43 44 47 52 52 52 55 55 54 55 54 53 53 51 53 45 39 42 43 43 44 48 49 49 48 47 45 44 43 43 42 42
37 37 40 41 43 43 44 43 43 43 45 46 47 47 48 51 52 55 54 54 54 52 49 46 41 38 38 40 40 41 42 44 46 45 44 44 43 43 42 41 40 40
37 37 37 39 40 40 40 41 42 42 43 43 44 44 45 46 49 50 53 53 51 48 43 36 36 36 37 38 39 39 40 41 44 44 43 42 41 42 41 40 40 42
36 37 40 41 41 41 41 41 42 43 44 45 44 45 46 46 46 48 47 47 46 41 35 32 33 35 36 37 38 38 39 41 40 39 40 41 39 41 41 42 43 42
38 38 39 40 41 40 39 40 40 41 41 44 42 44 44 46 45 45 44 42 39 35 31 30 32 35 36 37 37 37 37 37 37 37 37 37 38 39 40 40 41 41
39 38 39 40 41 41 42 43 44 44 44 45 43 43 44 43 42 41 40 38 34 32 31 30 31 35 35 36 37 37 38 37 36 36 35 37 38 40 40 40 40 45
41 41 41 41 42 41 42 42 42 42 43 43 44 44 42 41 40 38 36 35 34 33 37 31 30 33 34 34 35 36 36 34 35 35 35 36 36 35 35 35 35 40
39 39 40 41 41 42 44 44 44 44 44 44 42 41 40 38 37 36 34 34 33 32 33 30 29 30 33 34 35 36 36 35 36 33 33 32 31 32 33 32 35 35

ECMWFNIL_sfc_dewp_042.txt.gz
Dewpoint
52 51 50 51 51 52 51 51 51 49 48 50 49 50 50 49 51 51 51 50 49 49 49 49 49 50 52 50 50 50 50 50 49 48 49 49 47 47 48 46 46 46
52 52 52 51 52 52 51 52 51 50 50 50 50 51 50 51 51 51 51 50 50 49 49 49 50 49 50 50 49 50 49 49 49 52 49 48 48 48 47 47 45 44
53 52 52 51 52 52 52 52 52 51 51 50 51 52 51 52 52 51 51 49 49 50 49 50 49 50 50 49 49 50 49 48 49 50 50 48 48 47 47 46 45 44
53 52 51 51 52 52 52 52 52 52 52 51 51 52 52 52 52 52 51 54 49 50 49 49 49 50 50 49 49 48 48 49 49 49 49 48 49 47 46 47 47 43
53 53 52 52 52 52 53 52 52 52 52 52 52 53 53 51 52 52 52 50 50 50 50 50 49 49 49 48 49 48 48 49 49 47 48 48 48 47 47 47 45 43
53 53 53 53 52 51 52 52 51 52 52 52 52 53 52 51 52 52 52 51 50 50 50 50 50 49 49 48 48 48 48 49 49 48 48 47 47 48 49 47 45 44
53 53 53 53 53 51 51 53 51 52 52 52 53 53 52 51 52 53 53 52 51 51 50 50 50 49 49 48 48 48 48 49 48 48 48 48 48 47 48 46 46 44
56 56 56 54 54 52 51 52 53 52 52 52 52 53 53 51 51 53 53 53 52 51 50 50 50 49 50 49 47 49 47 50 47 48 49 48 46 46 47 47 46 44
55 56 55 54 55 55 54 55 55 55 56 53 53 53 53 52 51 52 53 53 53 53 51 50 50 49 50 50 48 48 48 48 49 46 48 48 47 45 47 47 45 46
54 55 55 55 55 55 55 55 56 57 57 56 55 53 53 53 53 53 53 53 53 53 52 51 51 50 50 49 49 48 49 48 49 46 46 48 47 46 46 47 44 44
54 53 54 54 54 55 54 55 56 56 55 56 55 55 55 55 55 54 53 53 53 52 52 52 52 51 50 50 49 49 48 48 49 47 46 47 48 46 48 46 44 42
53 53 54 53 53 53 54 55 55 56 55 54 55 55 54 54 55 54 54 53 53 53 53 52 52 52 51 50 49 49 49 49 49 48 47 46 48 48 47 46 44 42
53 53 53 53 53 53 54 55 55 55 56 55 56 55 54 54 54 54 54 54 54 55 54 54 54 54 53 53 51 50 49 49 49 49 48 47 47 48 48 46 45 44
54 54 54 54 53 53 53 54 55 55 55 55 56 55 55 55 54 54 54 54 54 54 55 55 54 54 54 54 53 52 51 50 50 49 48 47 47 48 48 47 46 46
53 53 53 53 53 53 53 54 55 55 54 54 53 54 54 55 55 55 54 54 53 53 54 53 54 54 55 54 54 54 53 52 51 50 49 48 47 47 47 46 46 45
52 53 53 53 52 53 53 53 53 53 52 52 53 53 52 53 54 54 53 53 53 53 53 53 54 54 53 51 51 54 53 53 52 51 50 49 48 47 45 45 45 45
47 51 53 53 52 51 51 52 53 52 52 52 52 52 52 52 53 53 53 53 53 52 52 53 54 54 50 46 45 48 52 51 51 51 50 49 48 46 44 44 44 44
42 41 44 46 47 48 48 50 51 51 52 52 51 51 52 51 52 53 53 52 51 50 51 53 53 51 48 46 45 45 48 52 52 52 50 49 47 46 44 44 44 45
41 41 41 42 42 43 43 44 45 46 47 47 48 50 50 50 53 53 53 52 51 51 51 50 47 39 41 43 43 43 43 47 50 51 51 48 47 46 44 44 43 45
37 36 36 38 41 41 41 41 41 40 42 43 44 45 47 48 48 50 51 50 50 49 49 40 39 39 39 42 42 41 41 44 48 47 47 47 47 45 45 44 43 41
38 37 36 38 39 39 39 39 40 40 42 42 42 42 43 44 46 47 48 50 48 44 40 37 37 37 38 39 40 40 41 43 44 44 43 43 42 42 42 41 41 41
37 36 38 40 40 40 40 40 40 40 40 40 41 41 42 42 42 43 46 43 41 38 36 34 35 37 37 38 39 39 40 42 41 40 40 41 41 42 42 42 41 41
38 37 38 39 39 39 39 39 40 41 41 42 41 40 40 40 39 40 40 39 37 35 34 33 34 36 37 38 38 37 38 39 39 38 38 38 38 40 42 42 43 42
39 38 38 39 39 39 41 42 42 41 40 42 41 40 40 38 38 37 36 36 34 33 33 34 33 36 37 37 37 37 38 37 37 37 37 37 38 38 37 39 44 45
39 39 39 39 39 39 40 40 40 41 41 40 40 40 39 37 37 35 34 33 33 34 38 33 33 35 36 35 36 36 37 36 36 35 35 35 34 34 34 35 35 39
39 40 40 41 41 41 41 41 41 40 40 39 38 38 37 35 35 34 33 32 32 32 33 31 31 32 35 35 36 36 36 36 35 32 32 32 33 32 34 32 32 33

ECMWFNIL_sfc_dewp_045.txt.gz
Dewpoint
52 52 51 51 51 51 50 49 48 48 47 48 48 47 48 47 50 48 49 48 48 48 48 49 50 50 50 49 49 49 49 49 48 47 47 48 46 46 46 45 45 45
52 52 52 51 52 52 50 49 49 48 48 48 48 48 48 48 49 49 48 48 49 47 47 48 48 49 48 48 48 49 48 48 48 50 47 47 46 45 44 44 44 44
52 52 51 51 51 51 51 51 50 49 48 49 48 49 50 50 49 49 48 47 47 47 47 48 48 48 48 48 48 48 48 47 48 48 49 46 45 45 44 43 43 43
52 51 51 51 52 51 51 51 50 49 49 49 49 51 50 51 49 49 48 53 47 47 47 47 48 48 48 48 48 47 47 47 48 48 48 47 47 46 45 45 44 42
52 51 51 51 52 52 51 51 51 51 50 50 49 50 51 50 49 49 48 49 47 47 47 48 47 48 48 48 47 47 47 48 48 46 46 46 46 46 45 44 42 41
52 51 51 51 52 52 51 51 51 51 51 50 50 51 50 50 50 50 49 48 48 48 48 47 48 47 47 47 47 46 48 47 47 46 46 46 46 47 46 44 43 41
53 52 51 51 52 52 51 51 52 52 52 51 51 51 51 50 50 51 50 50 48 49 48 48 48 47 47 46 47 46 46 47 47 46 46 46 47 46 46 44 44 42
52 52 52 52 51 51 51 53 52 51 51 51 50 51 51 51 51 51 51 51 50 49 49 49 49 48 48 46 47 47 45 48 48 47 46 46 46 46 46 45 43 42
54 53 53 52 53 53 53 54 54 53 53 53 53 52 53 52 51 51 52 52 52 51 50 49 49 49 49 49 47 48 46 47 48 47 47 47 46 46 46 45 43 44
54 54 54 54 54 54 54 55 55 54 55 55 55 54 54 54 53 52 52 53 53 52 52 50 49 49 49 49 48 47 47 47 48 47 47 48 47 46 46 46 44 44
52 53 53 53 53 53 53 54 53 54 54 54 55 55 55 55 55 54 53 53 53 53 52 52 51 50 49 49 49 48 48 47 48 47 46 47 48 47 48 47 45 44
51 51 51 51 51 51 52 53 53 53 52 53 54 54 54 54 54 53 55 54 54 53 53 53 52 51 51 50 49 49 49 48 48 48 47 46 47 47 47 47 46 44
52 51 52 51 51 51 52 53 53 54 54 53 53 53 53 54 54 53 53 53 54 54 54 54 53 53 53 52 51 50 49 49 48 48 48 47 46 47 47 47 46 44
52 53 53 52 52 52 52 53 53 54 54 53 53 53 53 53 53 54 54 54 54 54 54 54 54 53 53 53 52 52 50 49 49 49 49 48 47 47 48 47 46 44
53 53 51 52 53 52 52 52 53 54 54 54 53 53 53 54 54 54 53 54 54 54 53 53 53 53 54 53 53 53 52 52 50 49 49 48 48 47 47 48 47 45
51 52 53 52 52 52 52 52 52 52 52 52 53 52 52 53 53 53 54 54 54 53 52 53 53 53 53 50 51 52 53 52 51 50 49 49 48 48 47 47 47 46
51 52 52 51 51 51 50 50 51 51 50 50 51 52 53 53 52 52 53 53 52 51 51 52 52 53 50 47 46 46 51 51 51 51 50 50 49 48 47 46 46 46
41 43 45 45 48 49 47 47 48 49 50 49 49 50 50 50 51 51 51 51 50 49 49 49 49 47 43 47 45 44 46 51 51 51 51 49 49 48 47 46 45 45
40 40 40 40 40 41 42 43 44 44 43 44 44 46 47 48 48 49 48 48 48 49 48 48 48 41 40 41 41 42 42 47 50 50 50 50 49 48 47 46 45 46
38 38 38 39 40 41 41 40 40 40 40 41 42 42 43 45 45 45 46 46 46 47 46 41 39 40 38 39 40 39 39 42 47 47 48 47 46 45 45 45 45 45
38 37 38 38 38 38 38 39 39 39 40 41 40 41 42 43 43 41 44 46 44 42 39 36 36 38 37 38 39 40 41 42 42 42 42 41 41 42 42 42 42 42
38 37 38 39 38 38 38 38 38 38 38 40 39 39 38 38 39 41 41 39 38 36 36 35 35 37 38 38 39 40 41 42 41 41 41 40 41 40 41 40 40 40
38 38 39 38 38 39 39 39 39 39 40 40 39 38 37 38 36 36 36 35 36 34 34 33 33 36 37 38 38 38 39 40 39 40 40 39 38 39 41 42 41 38
38 38 38 38 38 39 40 41 40 39 39 39 38 38 38 36 35 34 33 34 33 32 34 33 32 36 37 37 38 38 39 39 38 38 37 36 35 36 38 40 42 41
38 38 38 38 38 38 39 40 39 39 38 37 37 37 36 34 36 33 32 33 33 35 39 33 32 35 36 36 37 37 38 37 37 36 34 34 34 34 34 35 36 38
40 40 39 39 39 40 39 39 39 37 36 37 35 36 35 33 33 32 31 30 31 30 32 31 32 32 35 36 36 37 37 37 36 34 33 33 33 32 32 32 32 33

ECMWFNIL_sfc_dewp_048.txt.gz
Dewpoint
52 53 52 52 51 51 49 48 48 48 47 48 47 47 48 48 52 49 50 49 49 50 50 51 52 51 51 50 50 50 49 49 49 48 48 48 47 47 46 46 46 46
52 53 53 52 52 51 50 49 48 48 48 48 48 48 49 49 51 49 49 50 49 48 49 50 50 50 49 49 49 49 49 49 49 49 47 46 46 46 46 46 45 45
53 53 52 52 52 51 50 50 49 48 49 49 49 49 49 51 50 49 49 48 48 48 48 49 50 50 49 49 49 49 48 48 48 48 48 46 46 45 45 45 45 45
52 52 52 52 52 51 51 51 50 49 49 49 49 50 51 52 50 49 49 54 48 48 48 48 49 49 49 49 49 49 48 49 49 48 48 47 48 46 45 46 45 44
52 52 52 52 52 52 51 50 50 50 50 50 50 51 52 51 50 50 49 50 48 48 48 49 49 49 49 49 48 49 50 50 49 47 46 46 47 46 45 44 44 44
52 52 52 52 52 52 51 51 50 50 50 50 50 52 51 50 50 50 50 49 49 48 49 49 49 49 49 49 48 48 49 49 48 47 47 47 47 47 44 43 44 43
52 52 52 52 52 52 52 52 52 51 51 51 52 51 51 51 51 51 50 50 49 51 50 49 49 49 49 48 48 48 48 49 48 48 47 47 49 47 46 43 43 43
52 52 53 53 52 52 52 52 52 52 52 52 51 52 52 51 51 52 52 51 51 50 50 50 49 49 49 47 49 48 48 49 48 48 47 47 48 47 46 45 44 44
53 53 53 53 52 52 52 52 52 52 53 52 52 52 52 52 51 52 53 52 52 52 51 51 50 50 49 49 48 48 47 49 49 48 48 48 47 47 46 45 44 45
53 53 53 53 52 53 52 53 53 53 54 54 53 53 53 53 53 53 52 52 53 53 53 53 52 50 50 50 50 48 48 48 48 48 48 48 48 47 47 45 44 44
52 52 52 52 52 53 53 53 53 54 54 54 55 54 54 54 54 54 54 54 53 53 53 53 53 52 51 50 50 51 49 49 48 48 48 48 48 48 49 47 45 44
52 51 51 52 52 52 52 53 53 53 54 54 54 54 54 54 54 54 54 54 54 54 53 53 53 53 53 52 52 51 51 50 49 49 49 48 48 48 48 48 47 46
51 51 52 51 52 52 52 52 52 53 53 53 53 53 53 53 53 53 53 54 54 54 54 54 54 54 54 54 53 53 51 50 50 50 49 49 48 48 49 48 48 48
52 52 52 52 51 52 53 53 53 53 53 52 53 52 52 53 53 53 53 53 53 53 54 54 54 54 54 54 54 53 53 51 51 50 50 49 49 49 49 49 48 49
51 52 52 52 52 51 51 52 52 53 52 52 53 53 53 53 53 53 53 53 53 53 53 53 53 53 53 53 53 53 53 52 51 50 50 50 49 49 49 49 49 48
51 51 51 51 51 52 51 51 52 52 52 52 52 52 53 53 52 52 52 52 52 52 52 52 53 53 52 49 49 53 53 53 53 52 51 50 50 50 49 48 49 49
50 51 51 51 51 51 50 51 51 51 51 51 51 51 51 52 52 51 52 51 52 52 51 51 52 52 50 46 45 45 50 52 52 52 51 51 50 50 49 49 49 48
49 50 50 49 51 52 51 51 51 51 51 51 51 51 52 51 51 51 51 51 50 50 50 51 51 47 42 41 41 42 45 51 52 52 52 51 51 50 50 49 49 48
44 45 45 44 44 44 46 49 50 50 50 50 50 50 49 49 50 50 50 50 50 51 51 51 50 43 39 39 39 40 40 44 50 51 51 51 50 50 49 49 48 48
40 40 40 41 41 41 42 43 44 44 44 45 45 45 46 46 46 48 48 47 47 48 49 46 44 40 38 38 38 39 39 41 49 49 49 47 47 47 48 48 47 47
37 37 38 39 39 39 40 40 41 41 42 42 41 42 42 42 43 44 45 45 46 44 42 39 38 38 37 37 38 40 39 42 44 44 43 42 42 42 43 44 45 45
39 39 39 39 39 39 40 40 39 39 40 41 41 40 39 40 41 42 42 41 39 38 39 40 37 37 37 38 39 40 40 43 42 42 41 41 41 42 42 42 42 42
39 39 40 39 39 40 40 40 41 41 40 40 40 38 39 39 37 37 38 37 39 37 36 36 36 37 37 38 38 38 40 41 41 40 39 39 39 40 42 40 39 38
39 39 40 40 40 41 41 40 39 38 39 40 40 39 39 37 35 34 34 36 35 34 34 36 36 37 37 38 38 39 40 41 40 38 37 37 37 37 39 41 42 40
39 39 39 39 39 39 40 40 40 40 39 38 38 38 37 36 37 34 33 33 35 37 39 34 34 37 37 37 37 38 39 39 38 36 36 35 35 35 35 36 37 38
41 42 41 41 41 40 41 42 40 38 37 37 36 36 35 34 34 33 31 31 31 31 33 33 33 35 38 36 37 37 38 39 37 36 35 34 34 34 33 33 34 35

ECMWFNIL_sfc_dewp_054.txt.gz
Dewpoint
59 59 58 57 55 55 55 54 52 51 50 51 50 51 50 53 54 55 54 53 53 52 52 53 53 54 52 53 52 46 48 52 51 51 51 52 52 53 51 50 51 47
60 60 58 58 56 55 55 55 53 51 52 52 52 52 53 54 55 54 54 54 54 53 52 51 52 52 51 50 51 49 48 50 49 46 50 51 49 50 52 52 51 48
62 61 60 59 57 58 57 56 55 52 52 53 54 54 54 55 56 55 54 54 53 54 54 53 52 51 51 52 51 50 50 50 49 48 48 47 48 49 50 49 49 49
60 61 59 59 59 59 58 56 54 53 54 53 54 54 54 55 56 56 55 54 54 54 55 54 53 51 50 51 51 49 50 48 48 49 49 48 48 48 49 48 48 47
60 60 59 59 58 58 58 56 54 53 53 53 55 55 53 55 54 53 54 54 53 53 54 54 53 53 53 52 51 51 50 49 51 49 47 49 48 49 49 48 48 47
60 59 58 58 58 58 56 55 53 52 51 53 54 52 53 54 52 51 52 53 52 51 52 52 52 53 53 53 53 53 51 49 50 50 48 47 47 47 43 47 47 46
59 59 59 58 58 58 57 56 54 53 53 53 51 53 53 53 52 51 49 51 51 50 50 52 52 53 54 54 53 53 53 52 50 49 48 48 47 47 45 46 45 44
60 60 59 59 59 58 57 56 55 54 54 52 53 53 53 51 50 51 51 51 50 50 51 51 52 52 53 54 52 53 54 54 53 51 50 50 51 47 47 46 48 46
59 59 58 59 59 58 58 56 55 56 55 54 52 53 52 51 50 52 51 51 51 52 51 52 52 52 54 54 54 54 53 54 54 53 53 53 52 50 46 47 48 49
58 58 59 59 59 58 58 57 55 55 54 53 52 53 51 52 52 51 52 53 52 51 51 52 52 54 54 54 53 53 53 54 54 54 53 53 52 50 48 49 49 49
58 58 58 59 59 58 59 58 57 57 55 53 54 53 52 53 53 52 53 53 55 52 52 53 54 54 54 54 55 56 54 54 54 53 54 54 53 52 54 52 51 51
59 59 58 59 58 58 59 58 57 56 56 55 54 53 54 54 53 54 53 52 52 50 52 53 53 53 53 53 53 55 56 56 55 55 55 54 54 54 53 53 53 52
58 58 58 58 59 59 59 57 56 57 56 56 55 54 55 54 54 54 55 53 52 53 54 54 54 54 55 56 55 55 56 56 57 56 56 56 56 55 54 54 54 53
58 58 58 59 59 58 58 58 57 58 56 56 56 55 55 53 54 55 56 54 55 55 55 56 56 55 55 56 56 57 57 57 57 58 57 57 57 55 56 55 55 55
58 58 57 58 58 57 57 58 57 57 57 56 56 56 57 56 56 56 56 54 55 57 55 57 56 58 59 58 58 57 57 58 58 57 57 57 57 57 57 56 56 56
57 58 57 57 56 57 57 57 57 58 58 57 57 57 56 57 56 57 55 56 56 56 58 59 59 60 52 47 46 56 58 57 58 58 57 58 58 58 58 57 57 57
55 55 56 55 55 55 56 56 56 57 57 57 58 58 59 59 59 57 56 57 57 58 58 59 57 55 42 41 43 44 56 59 59 59 58 58 57 58 57 58 57 55
55 55 55 55 56 55 56 56 57 56 55 55 56 57 58 58 58 57 59 59 59 58 58 58 58 42 40 40 41 43 43 56 56 55 55 54 53 53 52 53 54 55
54 54 54 54 54 54 55 55 54 55 56 57 56 57 59 58 58 59 58 59 59 58 57 57 56 38 38 39 39 39 40 47 53 54 53 53 53 53 52 52 53 53
53 54 55 54 54 54 54 54 55 56 57 57 57 57 57 57 58 57 55 54 53 53 54 56 55 38 37 39 39 40 41 44 54 55 54 53 53 53 54 54 54 53
48 49 50 50 51 52 53 53 54 56 55 55 55 54 53 52 51 51 52 51 50 50 50 55 50 37 38 38 38 39 40 40 54 55 53 53 53 53 52 53 53 54
45 44 45 46 47 48 49 49 51 50 50 50 49 49 49 50 50 50 50 51 51 50 49 50 51 36 38 39 38 40 39 56 52 52 51 50 50 50 49 50 51 51
40 41 43 43 43 43 43 47 48 48 48 47 47 46 46 47 48 49 48 47 48 48 48 49 52 42 38 39 38 38 40 50 51 48 49 50 49 49 48 48 49 49
40 38 40 42 42 41 44 46 45 46 46 46 44 45 45 46 46 46 46 47 46 46 49 48 51 43 38 38 38 39 41 51 47 48 49 48 48 47 46 44 44 44
38 38 39 41 41 43 45 45 44 45 45 45 44 44 45 44 43 44 45 46 47 50 44 52 51 44 37 38 38 39 48 50 46 46 47 47 46 45 45 44 42 40
41 41 41 40 39 44 45 44 44 45 46 45 44 41 42 41 41 42 44 44 47 48 50 51 51 50 44 37 38 39 39 49 46 44 44 45 44 43 43 43 41 39

ECMWFNIL_sfc_dewp_057.txt.gz
Dewpoint
56 57 56 53 53 53 53 51 50 51 50 50 48 49 50 52 50 51 51 51 51 52 51 52 51 52 50 50 49 43 46 49 49 50 49 49 50 52 50 49 50 46
58 58 56 55 53 53 52 52 52 50 51 51 50 50 52 52 52 51 51 51 50 50 51 52 51 49 50 49 49 48 47 49 48 46 50 49 48 50 51 51 49 46
59 57 57 55 53 55 54 53 54 53 51 51 53 52 53 53 52 52 52 51 51 52 52 51 51 49 49 50 49 49 48 48 48 47 48 47 49 49 49 49 47 47
60 58 56 55 55 55 54 53 53 53 54 52 51 51 52 53 54 53 52 52 52 52 53 52 52 50 48 48 50 48 48 47 48 49 48 48 47 47 49 49 48 46
60 59 57 55 55 55 54 52 52 53 53 53 53 52 51 53 53 52 52 51 52 52 53 52 52 52 51 50 49 50 50 49 50 49 48 48 49 49 48 48 48 47
60 58 58 57 56 55 53 52 51 52 52 54 53 51 52 52 50 50 51 51 50 50 51 51 51 52 51 51 52 52 51 49 50 49 47 47 47 47 43 47 47 45
60 60 60 58 56 55 53 53 52 52 52 54 51 51 52 51 49 49 48 50 49 49 50 52 52 53 54 54 53 53 52 51 51 49 48 47 46 47 45 46 45 44
61 60 60 60 61 55 53 51 51 50 53 51 52 50 51 49 47 48 48 49 47 47 49 50 52 52 53 54 53 54 54 53 52 51 50 50 50 47 48 47 48 46
60 60 59 62 62 57 54 51 51 51 50 51 51 50 50 49 48 49 48 48 48 49 49 50 50 51 54 54 54 54 52 54 54 53 52 52 52 50 46 47 49 49
60 59 59 61 60 58 54 52 52 52 50 50 49 50 48 50 49 48 49 50 50 49 49 50 52 53 54 54 53 54 54 54 54 54 54 53 52 51 49 49 50 50
60 60 59 60 60 58 57 53 52 53 52 48 49 49 47 48 49 48 50 49 51 49 50 51 52 52 54 53 54 55 55 54 54 54 55 54 55 53 55 51 51 51
59 59 60 60 60 58 57 55 52 52 52 52 50 49 49 49 50 49 49 48 49 49 50 50 51 52 51 52 52 54 55 56 55 54 55 54 54 55 53 53 53 52
58 59 59 59 59 59 58 55 52 51 50 49 50 48 49 50 51 50 51 51 51 51 50 51 51 52 52 53 52 52 54 54 56 56 56 56 55 55 54 55 54 54
60 60 61 59 59 59 57 54 54 53 50 48 49 50 50 50 50 50 53 55 55 52 50 52 52 53 52 53 53 54 54 55 56 58 58 56 58 56 56 55 56 55
59 58 60 58 58 57 58 55 55 54 52 50 51 51 52 50 52 53 56 55 57 53 54 55 56 59 59 59 59 57 55 58 59 58 58 58 57 57 56 56 55 56
59 58 58 58 58 58 58 58 57 58 57 54 52 51 54 59 58 59 58 59 55 55 58 60 60 59 50 46 46 55 57 56 57 59 58 58 59 58 58 56 56 56
56 56 56 57 57 57 58 57 57 57 57 58 58 58 58 58 57 56 56 58 59 58 58 59 58 52 42 41 41 44 57 60 58 57 58 58 57 57 58 57 57 55
55 55 54 55 56 56 57 57 59 57 56 56 58 58 58 58 58 57 57 58 58 58 58 59 55 43 41 42 41 41 43 56 58 54 55 53 54 53 52 52 53 55
54 54 55 56 56 56 57 56 56 57 56 55 56 56 57 57 57 59 58 59 59 58 57 58 54 39 40 41 42 40 40 48 55 52 51 51 52 51 50 50 50 50
54 54 54 55 55 56 55 55 54 53 54 54 55 57 57 57 59 59 59 55 56 56 57 56 53 38 39 39 40 40 39 42 55 50 51 49 50 50 50 51 51 50
52 52 53 54 53 52 52 52 53 54 54 55 56 58 57 57 57 55 54 55 56 55 56 56 52 37 38 38 38 39 39 39 54 51 50 51 50 49 49 51 51 51
47 47 49 49 49 49 50 51 52 54 53 53 53 53 53 52 50 50 49 48 48 49 51 53 50 36 38 38 39 38 38 55 51 49 48 49 48 49 49 50 51 50
42 43 44 45 46 47 47 49 49 50 49 49 49 49 48 48 47 47 46 47 47 47 47 52 52 42 39 39 39 38 40 55 48 46 47 48 48 49 48 48 48 49
40 39 41 42 42 43 45 47 47 47 47 46 45 45 45 45 45 45 45 45 45 46 47 47 52 45 39 38 38 37 40 54 47 47 48 48 47 47 46 46 45 43
38 39 40 40 41 42 44 44 44 44 44 45 44 44 45 43 41 42 43 44 45 47 48 48 51 46 38 38 39 38 46 52 47 45 47 46 43 44 45 45 44 41
41 40 41 40 39 42 43 43 43 43 44 43 44 42 40 40 39 40 42 44 45 43 44 48 50 50 48 38 39 38 38 47 50 43 45 44 43 40 43 44 42 41

ECMWFNIL_sfc_dewp_060.txt.gz
Dewpoint
60 61 59 59 58 59 58 58 57 56 56 57 55 55 57 55 54 57 58 58 58 58 58 57 58 57 54 54 53 47 50 54 53 54 53 54 55 54 54 53 52 52
60 60 57 59 59 58 59 58 57 57 57 56 57 57 56 57 57 56 56 56 56 58 58 58 57 57 55 55 56 55 55 55 52 51 55 54 53 55 55 54 53 52
61 60 59 59 59 60 58 58 59 58 57 57 58 57 57 58 57 57 57 57 57 58 59 57 55 55 55 55 56 54 53 54 54 54 54 53 54 53 54 54 53 52
61 61 61 59 59 59 58 58 59 57 58 56 56 56 56 56 58 58 57 57 58 58 58 58 59 58 53 55 57 55 54 54 54 55 53 54 52 52 53 54 53 50
63 62 61 59 59 58 58 58 56 57 56 56 56 57 56 57 57 56 57 57 58 58 58 58 58 57 57 56 54 55 56 56 56 54 52 52 53 52 52 54 53 53
62 60 61 59 58 57 58 56 56 56 56 56 56 56 57 57 56 55 56 56 57 56 58 57 57 57 57 57 58 57 57 54 55 54 52 54 54 55 48 54 51 49
61 61 61 61 57 58 57 56 57 56 56 57 55 56 56 55 54 54 53 54 54 54 54 57 57 58 59 59 58 58 56 56 56 55 50 51 51 52 52 51 50 47
62 61 61 59 60 58 57 56 57 56 57 55 55 56 55 53 52 54 54 53 52 52 54 54 57 57 58 59 58 58 58 57 57 55 53 55 55 52 53 55 55 50
60 60 61 61 61 57 56 54 57 57 56 55 54 55 54 54 53 54 53 52 52 54 52 54 55 56 58 59 58 58 56 58 59 57 56 56 55 54 49 51 54 53
59 60 60 61 61 59 55 55 55 56 55 55 53 54 53 56 54 51 52 54 52 52 53 53 54 56 58 58 55 57 57 57 57 57 57 57 56 55 51 52 53 54
59 61 60 61 60 61 58 55 55 54 54 52 55 53 52 56 53 53 52 52 55 50 51 52 54 54 56 58 58 59 58 58 57 56 58 57 58 57 57 55 54 54
60 59 60 60 60 59 60 57 55 54 54 54 53 51 53 56 53 52 51 51 51 50 51 52 53 57 55 56 56 58 57 58 57 58 59 58 57 57 57 57 55 54
58 59 60 59 60 60 60 57 53 55 54 53 53 52 53 55 55 53 57 56 51 54 54 55 56 55 58 58 58 56 58 58 57 58 58 57 59 58 58 58 57 57
59 60 59 60 60 62 60 59 57 55 56 56 56 55 54 51 53 55 55 56 55 56 58 58 58 58 57 59 59 58 59 59 59 57 57 57 58 58 58 59 58 58
60 59 59 59 58 59 59 59 58 58 55 53 56 56 56 52 55 53 55 58 58 58 58 59 59 58 54 54 58 58 58 58 58 58 58 58 58 58 59 58 57 59
58 58 58 59 58 58 59 58 58 58 57 59 55 55 58 59 57 57 58 58 57 58 58 59 58 56 48 45 48 56 57 58 58 58 58 58 58 57 57 58 58 58
57 57 58 58 58 59 58 57 57 58 58 59 58 58 58 58 57 57 58 57 57 58 58 59 57 51 42 41 41 43 57 59 58 58 58 58 57 57 57 57 57 57
57 57 57 57 58 57 57 57 57 57 57 58 59 58 58 58 57 58 58 57 57 57 58 58 55 44 40 41 41 41 43 54 59 58 58 57 57 56 56 57 57 57
56 56 57 58 58 58 58 57 57 55 56 58 58 59 57 56 58 58 58 58 57 57 57 57 54 40 40 41 41 39 39 47 57 57 55 56 54 54 54 54 53 55
56 58 57 57 57 57 57 56 56 56 57 57 58 59 58 57 56 57 58 57 56 56 57 56 53 41 39 40 40 39 38 41 57 55 54 52 51 52 53 53 53 53
55 57 56 57 56 56 55 55 55 56 56 56 57 58 58 58 56 55 56 56 56 57 57 56 52 39 38 39 38 38 39 39 54 54 52 52 52 53 52 52 52 54
56 54 54 55 55 54 55 55 56 56 56 57 57 57 57 57 56 56 55 55 56 57 56 54 49 35 38 38 39 39 38 51 56 53 51 50 50 49 47 47 48 52
47 49 51 51 51 52 52 54 54 54 55 56 56 55 54 53 53 53 54 54 55 55 55 53 51 41 37 38 38 37 46 56 56 50 50 50 49 48 46 45 46 49
46 43 47 47 48 48 50 53 54 53 53 53 52 52 50 50 50 50 50 50 50 51 53 53 52 43 38 38 38 37 42 53 55 50 50 48 47 47 46 44 45 47
42 43 44 46 46 48 52 51 51 50 50 51 51 50 49 48 47 47 48 48 50 51 51 52 52 45 38 38 38 37 47 53 53 47 48 47 47 46 46 44 41 42
46 46 46 45 46 50 50 50 50 49 52 50 48 46 45 47 47 46 46 47 48 49 51 51 51 50 43 38 38 37 38 50 52 49 48 48 45 44 44 43 41 38

ECMWFNIL_sfc_dewp_063.txt.gz
Dewpoint
56 55 55 55 54 54 55 53 51 51 51 53 52 53 54 51 52 52 54 53 51 50 50 50 49 49 49 48 49 48 49 51 50 51 51 51 51 50 49 47 47 46
57 56 56 55 55 56 55 53 52 51 52 52 53 52 52 52 54 53 52 52 52 52 53 52 52 51 52 52 52 52 51 50 51 55 52 51 50 50 50 49 48 48
57 56 56 55 55 55 53 53 54 52 52 53 52 51 53 53 51 51 52 52 54 54 52 51 50 51 51 50 49 49 49 50 51 51 51 49 49 48 49 48 48 48
56 56 56 56 56 54 54 54 53 53 54 53 52 53 53 53 52 54 55 57 52 49 48 49 51 51 50 50 51 51 51 50 49 50 49 49 51 51 51 50 50 49
58 58 57 56 55 55 55 54 54 53 52 53 53 53 53 53 54 53 53 53 52 52 54 54 52 52 52 50 50 50 52 52 52 50 50 49 49 48 49 48 47 46
58 59 57 55 54 54 54 54 54 53 53 53 53 53 54 54 53 53 53 53 54 53 52 51 52 52 50 50 52 52 51 48 47 47 48 46 46 48 48 48 46 46
58 58 58 56 54 55 55 55 54 53 53 53 54 54 54 54 53 53 54 54 53 53 51 52 53 52 53 55 55 53 50 50 52 50 48 48 49 49 49 47 48 48
59 60 59 58 55 55 55 55 54 54 54 53 53 54 54 54 53 53 53 53 52 52 53 54 54 54 55 55 54 54 53 56 53 49 50 53 50 48 49 50 49 48
58 59 60 60 59 55 55 56 55 55 53 53 54 54 54 53 53 53 52 52 52 52 52 53 54 54 56 54 54 53 54 54 55 52 52 53 52 50 47 51 50 50
57 58 59 60 60 60 56 56 56 55 54 54 54 53 53 53 53 52 52 52 52 52 52 53 54 54 56 54 54 55 55 55 55 55 55 56 55 55 54 54 53 52
56 58 58 59 59 60 60 58 57 55 54 53 54 52 53 53 52 52 52 52 53 52 52 53 53 53 55 55 56 55 56 56 56 57 56 56 56 56 57 55 54 54
56 56 57 58 59 59 59 58 58 56 55 54 53 51 52 53 50 51 51 52 52 52 52 55 57 57 57 56 56 57 57 57 57 57 57 56 55 56 55 55 55 55
56 56 57 58 58 58 58 58 57 56 55 53 53 51 51 53 50 51 52 53 53 53 54 57 56 56 57 57 57 57 57 56 57 56 56 55 55 56 56 56 56 56
57 58 58 58 58 58 58 58 57 57 54 54 54 52 51 53 50 55 55 54 56 57 57 56 55 54 56 56 56 57 57 56 55 55 55 54 54 54 55 56 56 56
57 58 58 57 57 57 57 57 57 56 58 58 56 53 52 52 53 57 57 56 56 57 57 56 55 54 54 56 56 57 57 55 55 54 54 54 55 55 55 54 55 56
57 57 57 56 56 56 56 56 56 56 56 58 58 56 57 56 57 57 56 56 57 57 56 55 54 53 51 49 52 56 56 56 56 55 54 54 54 54 54 55 55 55
57 57 57 56 55 56 56 56 56 56 56 56 57 56 56 57 57 56 56 56 56 56 55 54 52 49 43 42 42 48 56 56 56 56 56 55 54 54 54 54 54 55
56 57 56 56 56 55 56 56 56 56 56 56 56 56 56 57 56 56 56 56 56 56 55 53 50 45 40 41 41 43 49 56 56 56 56 55 55 55 54 54 55 55
56 56 56 56 56 56 55 56 55 55 55 55 55 56 56 56 56 56 56 56 56 55 54 52 49 41 40 41 40 40 40 49 57 56 56 55 54 54 54 54 54 55
56 56 56 56 56 55 54 54 54 53 53 54 55 55 55 55 54 55 55 54 54 54 53 52 49 43 40 40 40 39 38 43 54 53 53 52 51 51 51 51 54 54
55 55 55 55 55 55 54 54 53 54 54 53 54 54 54 53 48 53 53 53 54 54 52 51 50 40 39 39 39 39 38 41 52 51 50 48 47 47 48 50 52 50
54 55 54 54 54 54 54 54 53 53 53 53 53 54 53 53 53 53 53 53 54 53 52 50 45 37 38 39 39 40 39 48 52 49 48 47 46 46 48 50 49 47
53 52 53 53 53 53 53 52 53 53 53 54 54 54 54 54 54 53 53 53 53 52 51 49 45 38 37 38 39 38 43 51 50 48 46 45 45 46 48 48 47 45
52 51 50 51 52 52 51 51 52 53 54 54 54 54 53 53 53 53 53 54 53 51 51 50 47 39 37 38 38 38 46 50 49 47 46 45 45 44 45 46 47 46
45 47 50 50 50 51 52 52 52 52 51 51 51 51 51 50 50 52 52 51 50 51 52 50 47 42 38 37 38 36 42 49 49 46 45 45 44 43 42 41 42 43
42 44 44 47 48 49 50 51 50 49 48 49 49 48 48 47 47 50 50 49 49 50 51 49 47 44 40 37 36 36 40 47 48 46 45 44 43 42 40 38 37 37

ECMWFNIL_sfc_dewp_066.txt.gz
Dewpoint
55 55 55 55 53 54 54 51 51 52 51 50 50 52 53 52 53 52 50 49 50 50 50 50 50 50 50 50 50 50 50 51 51 50 50 50 48 46 47 46 46 46
55 55 56 54 54 55 52 51 51 51 51 51 52 52 52 52 52 51 50 50 50 49 49 49 49 49 49 50 50 50 50 50 50 51 48 47 47 47 47 47 46 46
55 55 54 54 54 53 51 52 52 52 51 52 52 51 52 52 51 50 51 51 50 50 50 50 50 50 50 50 49 49 49 49 48 48 48 47 47 47 47 47 47 47
55 55 54 54 55 53 52 52 52 52 52 51 51 52 52 52 51 51 53 55 50 49 49 49 49 49 49 49 49 49 49 48 48 48 49 49 50 48 48 47 47 47
55 55 55 55 54 53 53 52 52 52 50 51 52 52 52 51 51 52 51 49 48 48 49 49 49 49 50 50 49 48 49 49 49 49 47 47 47 47 47 46 46 46
56 56 55 55 54 54 52 52 52 51 51 52 51 52 51 52 52 52 51 49 50 51 50 50 50 50 50 50 50 50 50 48 47 47 46 46 47 47 46 47 47 47
57 56 55 54 54 53 53 52 52 52 51 52 52 52 53 52 52 52 52 52 52 52 50 50 49 49 50 51 51 49 48 48 48 48 48 48 48 47 48 48 49 48
58 57 55 54 54 53 53 52 52 52 52 52 51 54 53 52 52 53 53 53 51 51 51 51 50 51 52 52 51 50 50 52 49 48 50 49 48 48 48 50 48 49
58 58 58 56 55 54 53 52 52 53 53 52 53 54 54 52 53 53 53 52 52 52 53 52 53 53 53 52 53 53 53 52 52 52 52 51 51 50 51 50 50 49
58 59 59 58 57 56 53 53 53 53 53 53 53 54 53 53 53 53 52 52 52 52 53 53 54 54 53 53 54 54 54 54 54 54 54 53 53 52 52 51 50 50
56 57 58 58 57 57 56 54 53 53 53 53 53 53 53 53 53 52 52 52 53 52 53 53 53 54 55 55 55 54 54 55 54 54 54 54 53 53 55 52 52 51
55 56 57 57 57 57 57 57 56 54 54 53 52 52 53 52 52 52 52 51 52 52 54 56 55 55 55 55 55 54 55 55 55 55 55 54 53 53 53 52 52 52
56 56 55 56 57 57 57 56 56 56 55 54 53 53 53 52 51 51 52 52 53 55 56 56 56 56 56 56 56 55 55 55 55 55 54 54 54 54 53 53 52 53
56 56 56 57 56 56 55 56 56 56 56 56 55 54 53 52 51 53 54 53 55 56 56 56 56 55 55 56 56 56 55 54 54 54 54 53 53 53 54 54 54 54
56 55 55 56 55 55 55 56 56 56 57 57 56 54 53 52 53 54 54 55 56 55 55 55 55 55 55 56 56 55 55 54 54 53 53 53 53 52 53 53 54 54
55 55 55 55 55 55 54 54 55 55 55 56 57 55 53 54 54 55 55 55 55 55 54 54 54 54 54 52 52 55 55 54 54 54 54 54 54 53 52 52 53 53
55 55 54 54 55 54 54 54 54 54 53 54 55 55 55 55 55 54 55 55 55 54 53 53 53 52 48 46 47 50 55 54 54 54 55 54 54 53 53 53 52 52
54 54 54 54 54 54 54 54 53 53 53 53 55 55 55 55 55 54 55 55 55 54 53 52 51 48 42 43 45 47 51 55 54 54 55 54 54 53 53 53 53 51
53 53 53 52 52 52 53 53 53 53 53 53 55 55 55 55 54 54 54 55 54 53 52 51 50 42 41 43 44 45 47 52 55 54 54 54 54 53 53 53 53 52
53 53 52 52 52 52 52 52 52 52 52 52 53 54 55 54 54 53 53 54 53 52 52 52 51 44 41 42 42 42 42 48 55 54 53 53 53 54 54 53 54 53
53 52 52 52 52 52 52 52 51 51 52 51 53 54 54 54 54 53 53 53 53 52 52 51 52 42 40 40 40 40 39 44 53 51 49 48 48 50 53 53 52 51
52 51 50 50 51 51 51 51 51 51 51 50 51 51 51 51 52 53 52 52 52 51 51 51 48 39 39 39 39 39 39 50 50 48 47 48 49 50 51 50 49 48
51 50 50 49 50 50 51 51 50 50 50 50 51 51 51 50 50 52 52 53 52 51 50 50 46 40 38 39 39 38 44 50 47 46 47 48 48 48 47 46 46 45
50 50 50 50 50 50 49 49 49 50 49 50 50 48 50 49 50 50 50 51 52 51 49 49 49 40 37 38 39 38 46 48 46 46 46 46 46 45 45 45 45 46
45 47 48 48 48 48 49 49 49 51 50 51 51 51 52 51 51 50 49 49 49 49 51 50 48 40 37 38 38 37 46 48 46 45 45 45 45 42 42 43 43 43
38 38 42 46 47 47 47 48 49 48 49 51 50 51 51 49 50 50 50 49 48 49 50 49 47 43 40 37 37 37 41 47 46 45 44 44 43 41 40 37 37 37

ECMWFNIL_sfc_dewp_069.txt.gz
Dewpoint
55 55 55 54 53 53 52 51 51 51 51 51 51 51 52 51 52 51 51 51 51 51 51 50 51 51 50 50 50 50 51 50 50 48 48 48 46 46 47 47 48 51
55 55 55 54 54 53 52 52 51 51 50 50 52 52 51 51 50 50 51 51 51 50 49 49 49 49 49 50 49 49 48 48 48 50 46 46 46 46 46 46 47 48
55 55 54 53 53 52 51 51 51 51 51 52 51 52 52 51 50 50 50 49 49 49 49 49 49 49 49 48 48 48 47 46 46 47 48 46 47 46 46 46 46 47
55 54 54 54 53 52 52 51 51 52 52 51 51 52 52 51 50 51 51 53 49 48 48 49 49 49 48 48 48 48 48 47 47 48 48 47 48 46 46 47 47 46
55 54 54 54 53 52 52 51 51 51 51 51 51 51 52 50 51 51 49 48 48 48 48 48 48 48 49 48 47 48 48 47 47 46 46 46 46 47 47 46 46 45
55 54 54 53 52 52 51 51 51 51 50 50 51 52 50 51 51 50 48 48 48 49 48 48 48 49 48 48 48 48 47 46 45 46 46 46 45 47 47 47 47 47
55 55 54 53 52 52 51 51 51 51 50 51 51 50 51 51 51 50 49 49 50 50 48 48 48 48 49 48 48 46 47 47 47 48 47 46 48 48 48 48 49 48
55 55 54 53 52 52 51 52 51 51 51 51 50 51 52 51 51 51 51 51 50 50 49 49 48 49 50 48 48 48 48 50 48 48 48 46 47 47 47 49 48 49
55 55 55 54 53 52 51 51 51 51 52 50 51 52 51 52 52 52 52 51 51 50 51 50 50 50 50 50 49 49 49 50 50 48 48 47 48 48 48 48 49 49
56 55 55 55 53 53 52 51 51 51 52 51 52 52 51 51 52 52 52 51 51 52 52 51 52 51 51 51 52 51 51 52 51 50 50 49 50 49 49 49 49 49
56 56 55 55 54 54 52 52 52 52 52 51 52 52 51 52 53 52 52 51 52 52 52 53 53 52 52 52 52 52 52 53 52 51 51 51 51 51 55 50 50 49
56 55 55 55 55 54 54 53 52 52 52 52 52 51 51 52 52 52 51 51 51 52 53 54 54 54 54 53 52 52 52 52 52 52 52 52 51 51 51 50 51 50
56 56 55 56 56 55 55 55 53 53 53 52 53 52 52 51 52 51 52 51 52 53 54 55 55 54 54 53 53 52 53 53 52 51 52 51 52 52 51 51 51 51
55 55 56 56 55 55 55 55 55 54 54 54 54 53 52 52 51 51 52 52 52 54 55 55 55 55 54 53 53 53 53 52 52 52 52 52 52 53 52 52 52 52
55 55 55 54 56 55 54 54 55 55 55 55 54 54 54 52 52 52 53 53 54 54 55 56 55 55 54 54 54 54 53 53 52 52 52 52 52 52 52 52 52 53
55 55 55 54 54 54 54 53 54 55 55 54 54 54 53 53 52 53 53 53 54 54 54 55 55 55 54 52 52 54 54 53 52 51 51 51 51 51 51 51 52 51
54 54 53 54 53 52 53 53 54 53 54 55 55 54 53 53 54 53 53 54 54 54 54 54 54 54 49 47 47 49 53 53 52 51 51 51 51 51 51 51 50 48
53 53 53 53 52 51 53 52 52 52 52 53 54 54 54 53 53 53 53 54 53 53 53 53 53 51 47 44 45 46 50 53 53 53 52 52 52 52 51 51 50 49
52 52 51 51 51 52 51 51 51 51 51 52 53 53 53 53 53 52 51 52 53 52 52 52 52 48 43 44 43 43 45 51 53 53 53 52 52 51 51 51 50 49
52 51 50 50 50 50 50 50 50 51 50 50 51 52 52 51 51 52 52 52 52 52 52 51 51 46 42 43 43 42 43 48 53 53 53 52 52 52 52 52 50 50
53 51 51 51 50 50 50 49 49 49 50 49 50 51 51 52 52 52 52 52 51 51 51 51 51 45 41 41 42 42 42 47 53 52 52 51 51 52 52 52 51 50
51 51 52 52 52 50 50 50 48 48 49 48 49 50 50 49 48 50 50 51 51 50 49 50 49 40 40 41 41 41 41 50 50 49 48 48 48 50 51 52 51 50
51 51 50 51 52 51 49 49 49 48 48 47 48 47 47 47 48 49 50 50 50 50 49 49 45 40 40 40 40 39 41 49 48 48 47 47 47 49 49 50 49 48
43 48 50 50 50 49 48 47 47 47 47 48 49 48 48 48 48 49 48 49 49 49 49 46 45 42 40 40 39 38 42 49 48 48 47 46 45 45 46 46 47 48
38 38 39 42 41 43 46 47 47 48 48 48 48 48 49 48 48 48 47 48 50 49 50 47 48 43 39 39 39 38 42 47 47 47 46 45 45 43 43 44 45 45
37 38 37 37 38 38 39 41 44 46 48 50 48 48 48 47 48 47 47 49 48 48 48 49 49 45 41 38 39 39 40 47 47 47 46 45 44 44 43 39 39 39

ECMWFNIL_sfc_dewp_072.txt.gz
Dewpoint
56 55 55 54 54 54 53 53 52 52 52 52 52 51 52 52 54 53 53 52 52 52 52 52 52 51 51 51 52 50 50 51 50 49 49 50 49 51 51 53 55 56
56 55 55 54 54 53 53 53 52 52 52 51 52 52 52 52 52 52 52 52 52 51 50 50 51 50 51 50 50 49 49 49 49 51 48 48 48 49 49 51 53 54
55 55 54 53 53 52 52 52 52 52 51 52 52 52 51 51 51 51 52 51 50 49 50 50 50 50 50 49 49 48 48 48 48 49 50 48 48 48 48 49 52 54
55 54 54 53 52 52 52 52 51 52 52 52 51 52 51 51 51 51 52 53 49 49 49 50 50 50 49 48 48 48 48 49 48 49 48 48 49 48 48 49 50 51
55 54 54 53 52 52 52 51 51 52 52 51 51 52 52 51 51 51 50 49 49 49 49 49 49 49 49 49 48 49 49 48 48 48 47 48 49 49 49 49 49 48
55 54 54 52 52 52 51 51 51 51 51 51 51 52 50 51 50 49 49 48 49 49 48 49 49 49 49 49 48 48 48 47 47 48 47 48 48 49 48 48 48 47
54 54 54 52 52 52 51 51 51 52 51 51 51 50 51 50 50 49 48 49 48 49 48 49 49 49 49 49 48 47 48 48 48 48 47 48 50 49 49 49 49 47
55 55 53 52 52 52 51 51 51 51 51 51 50 51 51 50 49 49 49 49 48 49 49 49 49 50 50 49 48 49 49 49 48 48 48 48 49 49 49 49 49 48
55 54 53 52 52 52 51 51 51 51 52 51 50 51 52 51 50 50 50 50 49 49 49 49 50 51 50 49 49 49 50 50 50 49 48 49 49 49 49 49 49 50
55 55 54 53 52 52 51 51 51 51 52 51 51 51 51 52 51 51 51 50 50 50 50 50 52 52 51 50 50 51 51 52 51 50 50 50 50 50 50 50 49 50
55 55 54 54 53 53 52 51 51 51 51 51 51 51 51 52 52 51 51 51 51 50 51 51 52 52 52 52 52 52 53 53 52 52 51 51 51 51 53 51 51 50
55 55 54 53 53 53 52 52 52 51 51 52 51 51 51 52 52 52 51 51 51 51 51 52 53 53 53 53 53 54 54 54 53 53 53 53 53 53 52 52 52 51
55 55 55 54 54 54 53 53 52 52 51 51 52 51 51 51 52 52 52 51 52 53 53 53 54 54 54 54 54 54 54 54 53 53 53 53 52 53 52 52 53 52
55 55 54 55 54 54 54 53 53 52 52 52 53 51 51 51 51 52 52 52 53 53 54 55 54 54 54 54 54 54 54 54 54 53 53 53 53 53 53 53 53 53
55 55 55 55 54 54 54 54 54 53 53 53 53 52 52 51 52 52 52 52 53 54 55 55 55 55 55 54 54 54 53 54 53 53 53 53 53 52 52 52 52 52
55 55 55 55 54 54 54 54 54 54 54 53 53 53 52 52 52 52 52 52 53 54 55 55 55 54 54 51 51 54 54 53 53 53 53 53 53 52 52 52 52 51
54 54 54 54 54 54 53 53 53 54 54 54 54 53 53 53 52 52 53 53 53 54 54 55 54 54 49 46 47 49 53 54 54 53 53 53 52 52 52 52 51 50
52 51 51 53 52 53 53 53 52 52 52 53 53 53 53 53 53 53 53 54 54 54 54 54 53 51 46 45 45 46 49 54 53 53 53 53 53 52 52 52 51 50
53 52 51 51 51 51 51 51 52 52 51 51 52 53 53 52 53 53 53 54 54 53 53 53 52 48 44 43 43 42 43 50 53 53 53 53 53 52 52 52 50 50
53 52 51 50 51 50 50 50 49 50 50 50 51 52 52 51 51 52 52 52 52 52 52 51 51 47 42 43 43 43 42 45 53 53 53 53 53 53 53 52 51 50
53 52 52 52 50 50 49 50 48 48 49 49 50 51 50 49 50 51 51 51 51 51 51 50 50 43 43 43 43 42 41 42 53 53 53 52 52 52 52 52 51 50
53 53 53 53 52 50 49 50 48 48 49 49 49 48 47 47 48 49 50 50 50 50 50 50 47 40 41 42 42 42 41 50 53 53 52 52 52 52 52 52 51 51
45 48 49 50 51 50 49 49 49 50 49 48 50 48 49 49 48 48 49 50 49 49 49 48 46 42 41 41 41 40 43 50 52 51 51 51 51 52 52 52 51 50
37 38 38 39 40 42 45 48 49 48 48 48 49 48 49 48 48 49 48 49 49 48 49 48 48 43 39 40 40 39 44 50 51 50 49 49 49 50 51 51 51 49
37 37 36 37 36 37 40 42 45 48 49 49 49 49 48 47 48 49 48 47 48 48 50 48 48 47 40 40 40 39 42 48 50 50 49 48 48 47 47 49 49 49
37 38 37 37 36 36 37 39 41 43 45 49 49 49 49 47 48 48 49 48 47 47 48 47 47 47 43 39 39 39 39 46 49 49 49 47 47 48 47 46 46 46

ECMWFNIL_sfc_dewp_075.txt.gz
Dewpoint
60 61 60 60 60 60 60 60 60 61 60 60 59 59 59 61 60 61 61 60 61 60 59 59 58 58 57 57 57 53 53 56 56 56 59 61 61 62 62 62 62 60
61 60 60 60 59 59 60 60 61 60 60 60 60 59 60 60 60 59 59 59 58 58 57 57 57 56 56 54 56 56 54 57 55 54 59 60 60 62 62 63 62 61
61 60 60 60 59 59 59 60 61 61 59 58 60 60 59 59 59 58 59 58 57 57 57 57 57 57 56 55 56 56 56 56 56 55 56 56 58 60 61 61 62 61
61 61 60 61 60 59 59 58 59 59 59 58 58 58 58 58 58 58 57 57 57 57 57 57 57 56 53 54 55 54 55 54 54 56 55 56 57 58 60 61 61 60
60 60 60 59 59 58 58 58 57 58 58 58 58 57 57 58 58 57 56 57 57 55 56 56 56 56 55 54 55 54 55 52 54 55 54 55 56 58 59 60 60 60
59 58 57 57 58 58 57 57 57 57 57 58 57 57 57 57 56 55 55 56 55 54 55 54 53 54 53 54 55 55 54 51 53 54 52 53 53 55 54 59 60 59
58 58 58 57 57 58 58 58 58 57 57 58 56 57 57 57 56 55 53 54 53 52 52 53 53 54 55 55 53 53 54 53 52 52 50 52 53 54 54 56 57 56
59 58 57 56 58 58 58 57 57 57 58 56 57 56 56 55 54 55 54 53 51 51 53 51 51 52 53 54 51 53 54 55 54 52 51 52 54 51 54 54 57 56
58 58 57 57 57 57 57 56 57 58 56 57 56 55 56 55 55 54 53 52 51 52 51 52 50 51 54 54 54 52 50 53 56 54 52 53 53 52 48 51 54 56
58 58 57 57 57 56 57 56 56 57 56 56 55 55 54 56 55 53 53 53 52 51 51 51 52 53 52 51 49 50 49 49 51 54 53 52 51 49 49 52 53 54
59 58 58 57 57 57 57 56 56 56 56 54 56 55 55 54 54 54 53 51 53 50 50 51 51 51 51 52 53 53 51 52 51 51 54 53 55 54 56 53 54 54
59 59 58 57 57 57 56 56 56 56 56 56 54 54 55 55 53 53 51 50 50 49 49 50 50 51 49 49 50 53 55 56 55 54 54 54 55 54 52 54 54 54
58 58 59 57 57 57 56 55 55 56 55 54 55 55 55 54 54 52 54 51 50 52 51 52 52 52 54 55 53 53 54 54 57 57 56 57 57 55 56 57 55 54
59 60 59 58 57 56 56 56 55 56 55 56 55 55 55 53 52 52 54 53 54 52 53 55 56 55 55 56 55 56 57 57 57 58 57 57 59 58 59 58 57 56
59 59 58 58 56 55 55 55 55 56 55 55 56 56 57 54 54 54 53 53 53 55 55 57 56 57 59 59 58 57 59 58 57 56 57 57 58 58 59 59 58 59
59 58 59 59 58 56 56 56 56 56 56 55 55 54 55 56 55 55 54 54 54 55 58 59 58 58 55 52 53 57 58 59 59 59 57 57 58 58 59 59 59 59
56 56 58 58 58 57 58 56 56 58 57 55 56 55 56 55 56 54 55 55 54 56 58 59 59 58 50 47 47 49 57 59 58 58 58 58 58 59 58 59 58 56
55 55 55 55 55 55 56 56 57 57 57 56 57 57 56 56 56 55 55 56 56 56 58 59 59 49 45 45 45 45 49 59 59 58 58 57 57 57 58 58 58 58
56 55 55 55 55 56 55 55 56 57 57 57 57 57 57 56 56 57 57 57 57 56 57 57 57 45 44 43 44 43 42 48 57 59 58 58 57 57 57 58 58 57
55 55 55 55 56 56 56 56 56 56 56 57 58 58 58 57 57 58 58 57 58 57 57 57 56 45 43 42 43 42 42 44 57 59 59 58 58 58 58 58 58 57
55 55 55 54 54 55 55 55 55 55 55 54 57 58 58 58 58 57 57 57 58 58 58 58 55 41 42 42 42 41 41 40 56 58 58 58 59 59 59 59 58 58
45 48 49 52 54 55 55 55 54 54 54 54 55 56 56 57 57 57 57 57 57 57 57 57 54 40 41 41 41 41 40 51 55 57 57 57 57 58 58 58 57 57
39 41 43 45 48 50 52 53 54 54 54 55 56 56 56 57 56 56 56 56 56 57 57 57 56 45 40 41 41 40 44 54 55 55 56 57 58 57 57 57 57 56
38 38 38 40 42 45 48 52 53 54 54 55 56 56 56 55 55 56 55 55 56 56 56 57 57 49 39 40 40 39 45 54 54 55 56 56 56 56 56 56 56 53
39 39 39 39 39 41 43 46 49 51 53 55 55 55 55 55 55 55 55 54 55 55 52 55 56 49 39 40 40 39 46 52 53 54 55 56 55 55 55 52 54 52
39 40 40 39 39 40 41 42 43 45 48 50 50 50 50 51 52 54 54 54 54 54 54 54 54 54 46 38 40 39 40 51 53 52 53 55 54 54 53 54 54 54

ECMWFNIL_sfc_dewp_078.txt.gz
Dewpoint
64 64 66 64 63 63 63 62 62 61 59 58 57 58 58 60 60 61 61 61 60 59 59 60 60 60 59 60 60 54 55 58 58 59 62 63 62 64 64 64 64 62
64 65 63 63 63 64 64 63 61 59 59 59 58 58 60 61 61 61 60 59 58 58 58 59 59 58 57 55 56 55 54 57 56 55 60 62 61 63 64 65 64 63
63 64 64 63 63 63 63 62 61 59 58 58 60 60 60 61 61 61 60 59 57 57 58 57 57 56 55 54 55 56 56 57 57 58 57 56 58 59 64 64 64 63
63 64 63 63 63 63 63 63 62 60 60 60 59 60 60 61 61 61 61 58 56 56 57 57 57 54 52 52 55 53 55 55 56 57 56 56 57 58 62 63 63 62
63 63 60 60 60 61 62 61 61 60 59 58 60 60 59 60 60 59 59 57 56 54 56 56 56 56 53 53 52 52 52 52 55 54 52 53 57 59 60 61 62 61
64 61 59 58 59 60 61 60 59 59 59 60 59 58 58 59 58 58 57 56 54 53 53 53 53 54 53 52 52 51 50 49 51 51 48 52 55 57 54 59 60 59
64 62 60 58 59 61 60 60 59 59 58 58 57 57 58 58 57 56 54 54 51 50 49 51 52 53 53 53 52 51 49 48 48 46 46 50 54 57 54 55 53 54
64 63 61 59 61 61 60 58 59 58 59 57 56 57 58 56 55 55 54 52 49 47 48 47 49 51 51 51 49 50 51 48 48 46 48 50 53 51 55 54 56 52
63 62 61 62 61 60 59 57 58 58 58 56 55 55 56 56 55 55 53 50 48 47 46 47 47 48 51 49 48 48 46 49 49 48 49 50 51 50 48 51 54 55
62 61 61 61 61 59 59 58 57 57 56 55 54 54 53 56 55 53 52 50 47 45 46 47 47 48 48 45 45 45 46 47 48 49 48 49 48 46 46 49 51 53
62 62 61 61 60 59 60 59 58 57 56 54 55 54 53 55 54 53 51 48 48 44 45 46 46 46 45 46 48 47 46 47 46 46 48 48 49 49 53 49 50 50
62 61 61 61 60 60 61 59 58 57 57 56 53 53 53 53 53 52 49 46 43 42 43 44 44 45 45 45 47 48 49 48 48 48 47 46 47 47 47 49 50 49
60 60 60 59 60 60 60 58 57 57 55 54 53 53 52 51 52 51 50 46 43 43 43 45 45 45 47 48 48 49 50 51 52 52 51 51 50 48 48 48 47 48
60 60 59 59 58 58 57 58 58 57 55 54 53 52 52 49 49 50 50 47 46 44 45 47 48 47 48 49 49 51 52 52 53 53 53 54 55 53 54 53 52 50
60 59 58 58 57 57 56 57 56 56 56 55 54 53 53 50 49 49 49 48 46 48 48 50 50 52 52 52 53 52 53 53 53 52 53 54 54 55 55 55 54 55
59 58 57 58 59 59 56 56 56 57 56 55 54 53 53 51 49 50 48 49 47 48 49 53 54 56 59 52 52 55 55 55 55 55 54 55 55 55 55 55 55 56
57 57 57 58 59 61 58 56 55 55 54 53 54 54 54 52 52 51 51 49 48 50 53 54 55 59 47 47 48 47 56 57 56 56 56 56 56 56 55 56 56 54
57 58 57 58 57 56 55 56 56 55 54 54 54 55 55 53 53 51 52 52 52 52 54 55 57 46 43 45 46 45 45 60 57 56 56 55 55 55 55 56 56 56
56 54 54 55 56 57 57 56 57 58 57 57 57 57 55 55 54 55 54 54 54 52 53 54 57 41 43 41 43 42 42 49 55 57 56 56 56 56 56 57 57 57
55 54 54 53 54 54 56 57 57 58 58 59 59 57 57 56 56 56 54 54 53 53 53 54 57 43 42 40 41 41 41 45 56 57 58 57 57 56 57 57 58 58
54 54 54 55 55 55 55 54 56 57 57 59 59 60 59 57 56 56 57 57 57 55 55 57 58 40 41 41 41 41 40 41 57 59 58 58 58 58 57 58 58 58
54 55 55 55 55 55 55 55 55 56 57 58 59 60 60 58 58 57 57 57 57 57 56 57 56 39 40 40 40 40 40 56 57 58 58 56 56 58 59 58 58 59
49 52 54 54 55 56 55 56 56 56 56 57 56 57 58 58 57 57 57 57 57 57 57 56 57 44 39 40 40 38 44 56 57 56 55 56 57 57 57 58 58 58
46 47 49 52 53 54 55 56 56 56 57 57 56 57 56 57 57 56 56 57 57 57 57 57 56 44 39 38 40 39 43 55 56 56 56 56 56 58 58 57 57 56
42 43 44 47 49 51 53 53 55 56 56 56 56 56 56 56 56 56 56 56 57 56 53 58 55 46 39 39 39 39 46 55 55 54 55 56 56 56 58 57 57 56
41 42 43 42 43 45 47 48 50 52 53 53 54 53 53 53 53 54 55 56 55 56 56 56 56 54 47 38 39 40 39 52 54 53 53 54 55 54 55 57 57 57

ECMWFNIL_sfc_dewp_081.txt.gz
Dewpoint
64 64 64 65 64 64 64 64 63 60 59 59 58 58 58 60 59 59 59 59 59 59 58 60 60 60 59 60 59 56 56 59 59 62 63 63 62 63 62 61 61 61
64 64 63 64 64 64 65 65 60 59 59 59 58 58 59 59 59 59 59 58 57 57 58 59 59 58 58 57 57 55 55 58 57 55 62 62 62 64 64 64 63 63
64 64 64 63 63 65 64 62 60 60 58 57 59 60 59 59 59 58 58 57 56 57 58 59 58 57 56 56 56 56 56 56 56 57 57 56 58 62 64 64 62 61
62 62 63 63 64 63 62 61 60 59 59 58 58 59 58 59 59 59 59 57 57 56 58 58 57 56 54 54 55 54 55 55 55 57 57 57 57 58 62 63 61 60
62 62 62 63 62 61 61 60 58 58 59 58 59 58 58 58 59 58 58 56 55 54 56 57 56 55 54 53 53 54 54 54 55 55 54 55 56 57 59 62 61 61
60 60 59 60 58 61 60 59 57 57 57 58 59 58 58 58 57 57 57 55 53 53 55 56 55 53 52 52 53 53 52 51 53 51 49 51 53 55 53 58 61 60
62 58 60 58 60 59 59 58 57 57 57 58 57 58 58 57 57 57 54 53 50 50 51 53 54 53 53 53 52 50 50 50 47 47 46 49 52 54 53 55 55 55
63 62 59 58 58 58 57 57 57 57 58 57 57 56 57 55 56 55 53 51 48 47 48 49 50 51 51 51 49 50 50 47 47 46 49 50 52 51 53 51 55 53
63 63 60 59 59 58 57 56 57 57 56 57 55 56 57 56 55 54 52 49 47 47 45 46 48 50 51 51 50 49 47 48 49 50 52 52 51 51 49 50 51 53
62 63 62 59 58 57 57 57 57 57 56 55 54 55 56 56 55 52 51 49 46 44 43 45 47 49 49 48 46 46 47 47 47 50 50 50 50 48 47 49 51 52
62 60 61 58 57 56 57 56 57 57 55 52 54 55 54 55 53 52 51 47 47 43 43 45 46 46 45 45 46 48 47 47 46 47 49 48 49 49 53 49 49 50
60 61 62 59 57 56 56 55 56 56 54 54 51 52 54 55 53 52 49 45 42 42 43 43 42 43 42 42 43 46 48 48 48 48 49 48 47 47 47 48 50 48
59 60 62 62 61 59 57 56 55 56 54 53 53 52 53 53 52 52 49 45 42 43 43 42 42 43 44 46 44 44 46 46 47 48 47 48 47 46 46 48 47 47
60 61 61 60 60 61 56 56 55 55 54 53 53 53 52 50 51 51 49 45 43 42 43 44 44 44 45 47 47 49 50 50 50 51 50 50 51 49 49 48 49 48
61 59 58 58 58 58 57 55 55 55 53 52 53 53 51 49 50 50 47 44 42 44 43 46 47 49 50 51 52 52 52 52 52 51 52 53 53 52 53 51 50 50
59 60 58 58 58 57 57 55 54 55 54 52 51 51 50 49 48 49 46 47 44 44 46 50 50 58 52 46 46 54 54 54 54 54 52 53 54 54 55 54 54 54
58 58 58 59 58 58 59 55 55 55 54 52 52 51 51 50 49 48 47 49 45 47 50 53 56 57 43 43 44 43 58 57 54 55 55 56 55 55 55 55 55 52
60 58 57 57 57 57 57 57 57 53 52 52 53 53 52 52 50 49 48 49 48 48 52 52 56 41 43 42 43 42 44 57 56 55 55 55 54 54 54 55 54 55
58 57 57 57 57 57 56 56 56 56 58 58 58 57 53 51 50 50 50 50 50 49 52 52 57 41 41 40 41 43 40 47 54 56 54 54 54 54 54 54 54 56
56 55 56 56 57 57 58 58 57 58 59 58 59 59 57 56 54 53 52 51 51 51 52 53 57 42 40 40 41 41 41 43 54 56 56 55 54 54 56 60 59 59
55 56 55 54 54 55 56 58 57 57 59 60 61 61 58 57 56 56 58 56 56 54 53 58 52 40 39 40 40 40 40 41 56 56 56 56 57 57 57 56 57 59
56 55 57 54 53 53 54 55 55 56 56 58 60 60 60 61 61 59 58 57 57 56 57 56 50 38 39 40 40 41 40 56 56 56 55 54 54 54 54 55 57 59
57 56 58 57 57 54 53 54 55 56 56 57 57 58 59 61 59 61 60 59 57 56 56 56 53 42 39 40 40 40 42 56 55 52 51 52 52 53 51 52 56 58
53 55 57 56 55 55 57 57 58 57 56 57 57 58 58 57 57 58 59 59 58 57 56 57 53 45 39 39 41 41 42 56 57 55 53 53 53 54 53 53 55 58
51 50 51 52 54 55 56 56 56 58 58 58 59 60 59 58 58 59 59 59 59 57 56 56 54 46 39 40 40 39 46 55 55 54 54 54 54 52 57 55 57 56
46 48 49 49 50 53 54 57 58 59 58 57 59 58 59 59 59 59 58 59 59 59 58 57 57 55 48 38 39 39 40 49 54 53 53 54 54 56 54 55 57 59

ECMWFNIL_sfc_dewp_084.txt.gz
Dewpoint
64 63 64 64 64 65 65 65 65 64 64 64 62 62 62 63 63 63 64 63 63 63 64 64 63 64 62 63 62 60 60 63 64 64 65 65 64 64 64 64 64 63
64 64 64 64 64 65 66 66 65 64 63 63 63 63 62 62 63 62 62 62 62 62 62 63 63 62 62 61 63 61 60 62 61 62 63 63 64 65 64 65 64 64
64 64 64 64 64 65 65 64 63 64 65 63 63 63 63 64 63 62 62 62 61 62 64 63 63 62 62 62 62 60 60 62 61 60 61 61 61 65 65 66 64 64
64 63 63 64 64 65 64 63 64 64 63 62 62 62 62 63 63 63 62 61 60 63 63 63 63 61 57 61 61 60 61 59 60 61 60 60 62 63 63 64 64 63
64 64 63 64 64 65 65 64 63 63 62 62 61 62 61 63 62 61 61 59 60 61 62 62 61 62 60 60 60 60 61 59 60 60 60 60 61 62 64 64 63 62
63 64 62 63 63 63 63 62 62 61 61 61 61 60 62 61 60 59 59 57 58 59 61 61 59 59 59 60 59 60 58 58 60 58 55 57 57 59 58 63 64 62
62 62 62 61 62 62 62 61 61 60 61 62 60 62 61 61 59 58 56 56 56 56 57 60 59 59 60 59 58 58 62 54 55 55 52 56 57 58 56 58 58 59
61 61 62 61 61 60 60 58 59 59 61 60 61 60 61 59 57 58 56 55 53 53 56 55 57 58 58 58 57 59 56 57 56 56 54 53 57 55 57 57 60 58
63 61 60 60 59 59 59 56 59 59 59 59 59 60 60 60 58 57 55 54 53 54 52 54 55 56 58 59 58 56 53 56 59 57 56 57 56 55 52 55 58 58
62 63 63 58 57 58 58 59 59 59 59 58 57 58 57 61 58 55 56 55 54 51 51 52 54 57 57 54 54 54 54 55 56 56 57 57 56 54 51 54 56 58
61 62 63 62 60 60 60 60 60 59 59 56 59 59 58 58 58 56 55 52 55 48 48 51 51 53 55 54 56 55 56 55 55 55 56 57 58 54 57 54 55 55
61 62 63 62 63 60 60 60 59 58 59 58 57 57 58 57 57 56 51 47 47 47 48 49 49 52 49 49 52 55 56 56 56 56 56 54 52 53 52 55 57 55
61 61 61 61 64 60 60 58 58 58 56 55 58 58 59 57 58 56 58 49 50 50 49 50 48 49 51 52 51 54 55 56 56 56 56 55 54 54 54 55 54 54
62 61 60 61 63 60 58 58 58 57 57 56 57 57 58 55 53 53 57 53 54 50 50 53 53 50 49 51 50 54 56 55 57 57 55 55 57 55 55 55 56 55
61 61 61 61 62 61 59 58 58 60 57 56 57 57 57 56 56 53 55 51 52 53 49 54 55 57 55 55 58 53 56 57 56 56 56 56 56 56 56 54 56 55
60 60 59 60 60 59 58 57 59 60 57 56 56 54 58 56 56 54 53 54 50 51 53 56 56 54 48 46 47 54 57 58 59 57 58 58 57 57 58 58 56 58
59 60 59 58 58 59 59 56 57 59 56 56 56 55 58 57 57 54 56 56 49 54 54 57 54 51 42 41 42 45 54 59 57 57 57 58 58 57 57 57 58 58
59 58 59 58 58 57 57 58 58 58 57 57 58 57 59 58 58 55 55 58 55 55 56 54 51 41 40 41 41 41 45 56 59 58 60 58 56 58 58 57 58 58
59 58 57 57 57 57 57 57 57 57 58 58 57 57 58 57 56 56 56 57 57 54 55 54 50 41 40 41 41 41 41 52 55 59 58 59 58 58 58 58 58 57
58 57 56 56 57 57 57 56 56 56 57 57 58 59 58 58 57 57 57 56 56 56 54 52 49 42 40 41 41 40 39 47 56 58 60 59 58 58 58 58 59 59
56 57 56 56 57 57 57 57 57 58 57 57 59 60 59 58 57 57 58 57 56 56 54 50 47 40 40 41 41 40 39 47 58 60 59 60 60 59 58 59 57 59
57 55 55 55 56 57 57 57 57 57 57 58 59 59 59 59 59 58 57 57 57 56 53 51 48 39 40 40 40 40 40 56 59 59 58 58 57 58 58 59 59 59
58 58 57 55 55 55 55 56 56 57 58 58 58 58 58 59 59 60 60 58 57 56 55 53 50 41 39 40 40 39 46 56 59 56 56 56 55 56 56 56 57 58
57 57 57 57 55 54 55 57 57 57 57 57 57 57 57 58 58 58 58 58 58 57 56 53 51 44 40 40 40 39 43 54 55 56 56 56 56 57 57 57 58 57
57 57 57 57 57 57 57 57 58 57 58 59 58 58 58 58 58 58 58 57 57 57 54 54 53 48 41 40 40 39 44 50 53 54 55 56 55 55 57 57 58 56
49 55 55 54 54 55 56 57 57 58 59 58 58 58 58 59 59 58 58 58 58 58 58 56 53 50 44 39 40 39 40 48 53 55 53 54 54 54 54 55 57 57

ECMWFNIL_sfc_dewp_087.txt.gz
Dewpoint
62 62 62 62 61 62 63 62 62 61 61 61 61 62 61 62 62 62 62 62 61 60 60 59 60 60 61 62 61 61 62 61 63 63 63 62 61 61 61 61 60 60
62 62 62 62 62 63 63 63 62 62 61 61 61 61 61 61 61 61 60 60 60 60 60 60 59 58 58 58 60 61 62 62 62 62 62 62 61 61 61 60 60 60
63 61 61 63 63 63 62 61 61 61 61 61 61 60 61 61 60 59 59 59 58 59 59 59 59 59 59 59 59 59 60 61 61 62 62 61 61 62 62 61 61 60
63 63 63 63 63 62 61 61 60 60 61 61 60 60 61 60 59 59 60 60 59 59 60 59 59 60 58 58 57 58 59 60 60 61 60 59 60 61 60 61 61 61
62 63 63 63 62 61 61 61 60 60 60 60 60 60 59 59 59 58 57 58 58 58 58 58 59 57 57 58 57 58 57 58 59 59 59 59 59 61 60 61 60 60
62 63 63 63 62 61 61 60 61 61 59 58 58 59 59 58 57 56 56 56 57 57 58 57 55 55 57 57 56 56 55 56 57 58 59 59 60 60 63 61 60 60
63 63 62 62 61 61 61 60 60 59 58 58 58 59 59 58 56 55 55 56 57 57 57 54 54 56 56 55 54 55 56 55 56 57 56 57 58 58 60 60 60 59
62 62 62 61 60 60 60 60 59 59 59 58 58 59 59 57 55 55 55 55 55 57 56 55 56 54 53 53 54 53 52 53 52 54 55 55 56 57 57 58 58 59
62 61 61 60 60 59 59 59 58 58 58 58 58 58 59 57 56 55 54 54 55 55 55 54 54 53 55 53 51 49 51 55 55 53 54 55 55 55 56 58 58 58
61 61 60 60 59 58 58 58 58 58 58 58 58 58 58 56 54 54 54 52 53 53 53 54 54 54 53 50 51 52 53 54 54 54 54 53 54 54 56 57 57 57
61 60 60 59 58 58 58 58 58 57 57 57 57 57 58 54 54 55 51 51 52 51 52 52 52 53 51 50 52 53 52 52 52 52 53 55 54 54 58 56 56 56
60 60 59 58 57 58 58 57 57 56 56 57 57 57 55 54 54 52 49 48 48 49 51 50 51 52 49 50 52 52 51 52 54 54 52 52 53 54 54 55 54 55
59 59 59 59 58 58 57 56 56 56 56 56 57 55 53 54 55 50 47 47 48 49 50 50 51 49 49 49 51 52 53 53 52 51 52 53 51 52 53 54 55 55
58 59 59 59 58 57 56 55 55 55 55 56 56 55 55 54 52 49 46 47 49 48 49 52 51 50 49 49 51 52 51 53 52 50 51 52 52 53 54 53 52 51
58 58 59 59 57 56 56 55 55 54 54 55 55 55 55 54 53 53 51 49 50 53 52 52 51 51 52 52 51 51 51 52 52 52 54 54 55 55 55 55 54 53
58 58 59 58 57 56 55 56 56 54 54 54 54 54 54 54 51 51 50 50 53 52 51 50 50 49 48 48 52 54 55 55 55 55 55 55 55 55 56 56 57 57
58 57 57 57 57 56 55 56 55 54 54 53 52 53 54 53 50 49 50 52 52 49 49 48 48 47 43 42 45 50 55 56 56 55 55 55 55 55 55 55 55 57
57 56 56 56 56 56 56 57 56 56 56 56 55 56 54 53 50 50 53 53 51 50 49 48 46 43 41 42 43 47 51 55 56 56 56 56 56 56 56 55 55 56
56 55 55 55 55 55 55 55 56 56 56 56 56 56 55 56 55 55 54 53 51 50 50 49 46 41 41 42 42 44 48 53 56 56 55 55 56 56 55 55 56 55
57 56 55 55 55 56 56 55 55 56 56 57 56 56 56 56 54 53 53 52 51 50 49 48 46 42 41 41 42 42 45 52 57 57 56 56 56 56 55 55 55 54
56 55 55 56 56 56 55 56 56 56 57 57 57 57 56 55 54 53 52 51 51 50 49 47 45 40 41 41 42 44 47 51 56 57 57 57 56 55 55 54 55 55
54 55 55 56 54 56 56 55 56 57 56 56 56 57 57 57 56 54 53 52 52 51 50 48 45 39 41 41 42 45 49 55 56 55 55 55 56 55 55 54 54 55
55 54 55 55 55 56 55 56 56 56 56 56 56 56 57 57 57 56 56 54 52 51 50 48 46 41 40 41 42 45 49 55 55 55 55 55 55 56 57 57 56 56
56 55 54 54 54 55 55 55 56 55 55 56 56 56 56 56 57 56 56 54 53 52 51 49 46 42 40 41 42 43 48 53 54 55 54 54 55 56 56 55 52 51
53 55 55 55 56 55 55 55 55 56 56 57 57 57 56 56 56 54 54 53 53 52 52 50 48 44 40 41 41 43 49 53 54 53 53 53 54 55 56 54 51 48
49 51 54 55 55 54 54 55 54 56 56 56 56 57 56 56 56 56 56 55 55 54 51 50 48 45 43 40 42 43 46 51 51 51 51 52 53 53 53 51 49 47

ECMWFNIL_sfc_dewp_090.txt.gz
Dewpoint
61 61 62 62 61 61 61 61 61 61 61 61 60 61 61 61 61 61 61 61 61 61 61 61 62 62 63 62 62 63 62 62 62 62 61 61 60 60 60 59 58 59
61 62 62 61 61 61 61 61 61 61 61 61 61 61 61 61 61 61 61 61 61 61 60 61 61 62 62 62 61 61 61 61 61 63 61 61 60 60 60 60 59 58
61 61 61 61 61 61 61 62 61 61 61 61 61 61 61 61 61 61 61 61 61 59 59 60 60 61 61 61 61 61 61 60 61 60 61 61 60 60 60 59 58 59
61 61 61 61 61 62 62 62 61 61 60 61 61 61 61 61 60 60 59 62 59 58 58 58 59 59 59 60 60 60 60 60 60 60 60 58 59 60 60 59 59 58
61 61 61 61 62 62 62 61 61 60 60 61 60 61 60 59 58 58 59 58 58 58 58 58 58 58 59 59 59 59 59 59 59 60 59 59 59 60 59 60 59 59
61 62 62 62 62 62 61 61 60 60 60 60 60 60 59 59 58 58 58 58 58 58 58 58 58 57 58 58 58 59 59 59 59 59 59 59 59 58 61 60 59 58
62 62 62 62 61 61 61 60 60 60 60 60 59 59 58 57 57 57 57 57 57 57 57 56 56 57 57 57 57 57 57 58 58 58 58 58 59 59 60 59 59 58
62 63 62 62 60 60 60 60 60 60 60 60 59 59 57 56 56 57 56 57 57 56 55 55 56 56 56 56 56 56 56 57 57 57 58 57 57 58 57 59 58 58
62 62 62 60 60 59 60 60 60 59 60 59 59 59 57 56 56 56 56 56 56 55 54 54 54 54 54 54 54 54 53 54 56 56 56 56 56 56 57 58 58 58
61 61 60 60 59 59 59 59 60 60 60 59 60 59 56 55 55 55 56 56 56 54 54 53 53 53 52 51 52 52 52 53 54 55 56 56 56 56 57 58 58 57
60 60 59 59 59 59 58 59 59 59 58 58 59 57 55 55 54 54 54 55 55 54 53 53 52 51 50 51 53 53 53 53 54 54 55 55 55 56 59 57 56 56
59 58 59 58 58 58 58 59 59 58 57 58 58 56 55 54 54 53 53 53 53 53 53 52 52 49 49 51 52 52 52 53 53 54 54 54 55 56 56 56 56 55
58 58 58 58 58 57 57 58 57 57 56 57 57 56 54 54 52 51 52 52 52 52 52 52 51 50 50 51 51 52 52 51 52 53 53 53 54 54 54 54 54 54
57 58 57 57 57 58 57 57 56 56 56 56 56 54 53 53 50 50 50 50 50 51 51 51 50 49 49 51 52 52 51 51 52 52 53 52 52 51 51 51 51 50
57 57 57 58 57 57 57 56 56 56 56 55 54 54 54 52 49 48 50 52 52 51 51 52 51 51 51 51 51 51 52 53 53 53 53 53 53 54 54 54 54 52
57 57 57 57 57 57 56 56 55 55 55 54 54 54 53 51 50 51 51 51 50 50 50 50 49 49 50 50 51 54 54 54 54 54 54 54 54 54 54 55 55 56
56 56 57 57 57 56 56 56 55 55 54 54 54 53 52 51 51 51 51 50 50 49 48 49 48 48 47 46 47 50 54 54 54 54 54 54 53 53 54 54 54 54
56 55 56 56 56 56 56 55 54 54 53 53 53 53 52 51 51 50 50 50 49 49 48 48 47 45 45 46 47 48 51 55 55 54 54 54 54 54 54 54 54 54
55 55 55 55 55 55 55 55 54 54 54 54 54 54 52 52 51 50 50 50 49 49 48 48 46 42 44 45 46 47 48 52 54 54 54 54 54 54 53 53 53 54
55 54 54 54 55 55 54 55 55 55 55 55 54 53 52 51 50 50 50 50 49 48 48 47 47 43 43 45 45 46 47 51 55 55 54 54 54 54 53 53 52 52
55 55 55 55 55 55 55 55 55 55 55 55 54 53 52 50 50 50 50 49 49 48 47 47 45 41 43 45 46 46 47 50 56 56 55 54 53 53 53 53 54 54
54 54 55 55 55 55 55 54 54 54 55 54 54 54 53 52 51 50 50 49 49 49 48 47 45 40 43 44 44 44 46 54 56 55 55 55 56 56 56 55 55 55
54 54 54 54 54 54 54 54 54 54 55 55 55 54 54 53 52 52 51 50 50 49 48 47 46 42 41 44 44 44 47 53 55 55 56 55 55 53 52 52 54 54
54 54 54 53 53 54 54 54 54 54 55 55 55 54 54 54 53 53 52 51 50 49 49 47 46 43 41 43 45 47 50 55 55 55 55 54 53 52 49 48 50 52
50 53 54 54 53 54 54 54 54 55 54 56 55 55 54 53 52 52 51 51 50 50 50 48 47 45 42 42 44 46 51 54 54 54 54 53 52 50 48 47 45 45
47 48 50 53 54 54 54 54 54 55 55 55 55 55 54 54 54 53 51 49 48 48 48 48 47 45 42 41 42 44 46 52 53 53 53 52 51 48 46 46 45 44

ECMWFNIL_sfc_dewp_096.txt.gz
Dewpoint
61 61 61 61 61 62 63 63 63 63 63 62 62 62 62 62 62 62 62 62 62 62 62 62 62 62 62 61 61 61 61 61 61 60 61 61 60 60 60 59 59 60
60 60 61 61 61 61 63 63 63 63 63 62 62 63 62 61 61 62 61 61 62 61 61 61 62 62 61 61 61 61 61 61 61 60 60 60 60 60 60 60 60 59
60 61 61 61 61 61 62 62 62 63 63 62 62 62 61 61 61 61 61 61 61 61 60 60 61 62 62 61 61 61 61 61 60 61 60 60 59 60 60 60 59 59
60 61 61 62 61 61 61 61 61 62 62 62 61 61 61 61 61 61 60 62 60 60 60 60 60 61 61 61 61 61 61 61 61 61 60 59 59 60 59 59 59 58
61 61 61 61 62 61 60 61 61 61 60 61 60 60 60 60 60 60 60 60 60 59 59 60 60 61 61 61 61 60 60 60 60 60 60 59 59 59 59 60 59 59
61 61 61 61 61 60 60 61 60 60 60 60 60 61 60 60 60 60 60 60 59 59 59 59 60 60 60 60 60 60 60 60 60 60 60 59 59 59 59 59 59 59
60 61 60 61 61 61 60 60 60 61 61 60 61 60 60 60 60 60 60 60 59 59 59 59 59 59 60 60 60 59 59 60 59 60 60 59 59 59 59 59 59 59
60 60 60 60 61 61 60 60 60 60 60 60 60 60 60 60 59 59 59 59 58 58 58 59 59 59 59 59 59 58 58 59 59 59 59 59 59 60 59 59 58 58
59 60 60 60 60 59 59 60 60 60 60 60 60 59 60 60 60 59 59 58 58 57 58 58 58 58 59 59 58 58 58 58 59 59 59 59 59 59 59 58 58 58
59 59 60 60 59 59 59 59 59 60 60 60 60 60 60 59 59 59 59 58 57 56 57 57 57 58 58 58 58 58 58 58 58 58 58 59 59 58 58 58 58 57
59 59 60 59 59 59 59 59 59 60 60 60 59 59 59 59 59 59 58 58 57 56 56 56 57 57 57 57 57 57 58 58 57 57 58 58 58 58 59 58 58 57
59 59 59 59 59 58 58 59 59 59 59 59 59 59 59 59 58 57 58 57 56 55 55 56 56 56 56 56 56 56 57 57 57 57 57 57 57 58 58 58 58 57
59 59 59 59 58 58 59 59 59 59 59 59 59 58 58 57 57 56 56 55 54 54 55 55 55 55 55 55 55 54 55 55 55 55 56 56 57 57 57 57 57 56
58 58 58 58 58 58 59 59 59 58 59 59 58 58 58 57 56 56 55 54 54 53 54 54 53 53 53 54 54 54 55 55 55 55 55 54 55 55 55 55 56 56
57 58 58 58 58 58 58 58 59 58 58 58 58 58 57 57 56 55 53 52 52 52 51 52 52 53 53 53 53 53 54 54 54 54 54 53 53 52 52 52 52 52
56 58 58 58 57 57 57 57 58 58 58 57 58 58 57 55 54 53 52 51 50 50 50 51 52 52 53 50 50 53 54 54 54 53 53 53 53 52 52 53 53 54
56 57 57 57 56 56 56 56 56 57 57 58 57 55 54 53 53 52 51 50 49 49 49 50 51 51 46 45 46 49 53 54 53 53 53 53 52 51 51 52 52 52
56 56 56 56 56 55 55 55 55 56 56 55 55 53 53 52 52 51 50 49 49 49 49 50 50 48 43 44 45 47 50 54 54 53 53 52 52 52 52 53 54 55
55 55 55 55 55 55 54 55 55 54 54 55 55 52 51 51 50 50 49 49 49 49 49 50 49 45 43 44 45 45 47 51 53 53 53 53 53 53 54 55 55 54
54 54 54 54 54 54 54 54 53 53 53 52 52 51 50 50 50 49 49 49 49 49 49 49 49 45 43 43 44 44 45 49 53 53 53 53 53 54 54 54 54 54
54 54 53 53 54 54 53 53 52 52 52 51 50 50 49 49 49 49 49 49 49 49 49 48 47 43 43 43 43 45 46 48 53 54 54 54 54 54 54 54 53 53
53 53 53 53 53 53 53 52 51 51 50 50 49 50 49 49 49 49 49 49 49 49 49 47 45 41 43 44 44 45 48 54 55 54 54 54 54 54 53 52 52 52
51 53 52 52 52 52 51 51 50 50 50 51 50 49 49 49 49 49 49 49 49 49 49 47 46 41 41 44 45 45 49 54 54 53 53 53 52 52 52 51 51 51
49 51 52 52 52 52 51 51 51 51 51 51 50 49 49 49 49 49 48 48 48 48 48 48 46 42 40 44 45 46 49 53 53 52 51 50 49 49 49 48 49 50
46 48 50 52 52 52 51 51 50 50 50 50 50 50 49 49 48 47 47 46 46 47 48 46 46 45 42 43 44 46 50 52 52 51 49 48 47 46 46 45 45 45
44 45 47 49 51 51 51 51 50 49 49 48 48 48 47 47 46 46 45 45 45 45 45 45 45 45 42 42 44 44 46 52 51 49 47 47 47 46 45 45 45 44

ECMWFNIL_sfc_dewp_099.txt.gz
Dewpoint
64 64 64 64 64 64 63 65 64 64 63 63 63 63 63 64 64 64 64 64 64 65 65 65 65 65 64 64 65 63 63 65 65 65 65 65 65 63 63 64 65 64
63 63 63 63 64 64 64 64 63 63 64 64 64 64 64 63 64 64 64 64 64 64 64 65 65 64 64 64 64 64 63 65 65 63 65 65 65 64 64 64 65 65
62 62 62 62 62 63 64 64 64 64 64 65 64 64 63 64 64 64 64 65 64 64 65 64 65 64 64 64 64 64 64 64 64 64 64 64 64 63 63 65 65 65
62 62 62 62 63 63 63 62 62 63 63 63 63 63 63 63 63 64 64 64 64 64 64 64 65 64 64 64 65 64 64 64 63 63 63 64 64 64 64 65 64 64
62 62 62 62 63 62 62 61 61 62 63 63 62 63 63 63 63 63 63 64 64 64 64 64 65 64 63 64 64 64 64 63 63 63 63 63 63 64 64 64 64 64
63 62 62 62 62 61 61 61 61 62 62 63 63 63 63 63 63 63 63 63 63 63 63 64 64 63 63 63 64 64 64 63 63 63 62 63 63 63 61 63 64 64
62 62 62 62 62 62 61 61 62 62 62 63 63 63 63 63 62 62 63 63 63 63 63 63 63 63 63 63 62 62 63 63 63 62 62 63 63 62 62 62 61 62
61 62 62 61 62 62 61 61 61 62 62 62 62 62 63 62 62 62 62 62 61 61 62 62 63 63 63 63 62 63 62 64 64 63 63 63 63 62 62 61 62 61
61 61 61 62 62 62 61 61 61 62 63 62 62 62 63 63 62 62 62 62 61 61 61 62 62 62 63 63 63 62 63 63 64 64 64 63 63 63 61 61 62 62
60 61 61 61 61 62 61 61 62 62 62 62 62 62 62 63 63 62 62 62 61 61 62 62 62 62 63 63 63 63 63 63 63 64 64 63 63 62 61 62 62 62
61 61 61 61 62 62 62 61 61 62 62 61 62 62 62 62 62 62 62 61 61 61 61 61 62 62 62 63 64 64 63 63 63 63 64 63 64 62 63 62 62 62
61 61 61 60 61 62 61 61 62 61 61 62 61 61 61 61 61 61 61 60 60 60 60 60 60 61 62 62 62 63 63 64 63 63 63 63 63 63 62 63 62 62
60 60 61 61 61 62 62 61 61 62 61 61 61 61 61 61 60 60 61 60 59 59 59 60 60 61 62 62 62 62 62 62 63 63 63 63 63 62 62 62 62 61
59 60 60 61 61 60 60 61 61 61 61 61 61 61 61 60 59 59 59 60 60 60 60 60 60 60 60 61 60 61 62 62 62 63 62 62 63 62 63 63 62 62
58 59 60 60 60 60 60 60 60 60 61 61 61 61 60 60 59 59 58 58 58 60 59 59 59 59 60 60 60 60 61 62 62 61 62 61 61 61 61 61 60 61
58 58 59 59 59 59 60 60 60 60 61 60 61 62 60 59 59 60 57 56 56 56 57 59 59 59 57 53 54 59 60 61 61 61 60 60 59 58 58 59 59 59
56 57 58 58 59 59 59 59 59 60 60 60 61 60 59 59 59 58 57 56 55 55 56 58 58 57 48 46 48 51 58 60 60 60 60 59 58 57 57 57 56 54
55 56 57 58 58 58 58 58 59 60 60 59 60 59 60 59 59 58 56 55 54 54 56 56 57 49 44 45 46 48 52 59 60 60 59 59 58 56 56 55 55 55
54 55 56 56 56 57 58 58 58 59 59 57 56 57 58 57 55 57 55 54 53 53 54 54 54 43 42 44 45 46 48 54 58 59 58 57 57 56 56 56 57 57
54 54 55 55 56 57 56 57 56 55 55 56 55 56 56 56 54 54 54 53 54 54 54 54 53 44 42 43 44 45 47 52 58 58 58 56 56 57 58 58 58 57
52 54 54 55 55 55 54 54 54 54 54 54 55 55 54 55 54 52 53 53 54 54 54 53 51 41 42 43 44 45 46 51 58 58 57 58 58 58 58 59 59 59
50 53 53 53 54 53 52 52 52 52 52 53 52 52 52 53 52 52 53 53 53 54 54 53 50 41 42 43 44 44 48 57 58 57 57 56 56 56 56 57 57 58
49 51 53 53 53 52 51 51 51 51 51 52 51 51 51 51 51 52 52 53 53 53 54 52 51 43 41 43 44 46 51 57 57 56 56 55 55 55 55 55 56 57
48 49 51 52 52 51 51 51 51 51 51 51 51 51 50 50 51 49 50 50 51 52 52 53 51 45 42 43 45 48 52 57 55 55 55 54 53 52 51 50 50 50
47 48 49 51 51 51 51 51 50 50 50 50 50 49 49 49 49 48 49 49 49 50 50 51 51 48 42 42 44 47 54 56 54 53 52 52 50 50 50 48 47 45
46 47 48 49 51 51 51 51 50 50 49 49 48 49 48 49 48 47 47 48 48 49 50 51 50 48 44 42 44 45 47 54 54 52 51 51 50 48 48 48 47 46

ECMWFNIL_sfc_dewp_102.txt.gz
Dewpoint
64 64 64 63 63 64 66 65 65 66 66 64 63 63 64 65 65 65 64 65 65 65 66 66 67 65 65 65 65 64 64 65 63 65 65 66 65 63 63 63 63 63
64 64 65 65 64 65 66 66 65 64 65 65 64 64 65 64 64 64 64 65 65 65 66 68 66 65 64 65 65 65 65 66 63 63 64 63 65 64 64 64 65 64
64 64 63 63 64 65 65 64 64 64 64 65 65 65 64 64 64 64 65 65 65 65 64 65 64 65 66 65 64 67 64 64 63 64 64 62 64 64 64 65 66 65
62 63 62 63 64 64 64 63 64 63 64 65 65 65 64 64 64 64 65 65 65 65 65 66 65 65 64 63 65 65 64 65 65 65 65 64 64 63 64 64 65 65
62 62 62 62 63 63 64 63 63 63 64 64 65 64 64 64 64 63 64 65 65 65 65 64 65 65 65 64 64 65 65 65 64 63 63 64 65 64 64 64 63 63
62 60 62 61 62 64 65 62 62 63 62 63 64 63 64 64 63 63 64 65 65 65 64 64 65 64 64 64 65 64 63 64 63 62 63 63 62 63 62 63 63 63
61 62 62 62 63 63 63 63 62 62 62 62 62 63 63 63 62 62 62 63 63 64 63 63 63 64 64 64 64 65 63 63 62 61 60 65 64 62 60 61 63 61
60 62 62 62 62 63 63 62 62 62 63 62 63 63 63 62 62 62 63 63 63 63 63 62 63 63 64 63 63 64 64 64 64 60 60 61 64 61 61 60 61 60
61 62 62 63 63 63 61 63 62 63 63 62 63 63 63 62 62 63 63 63 63 63 63 62 62 62 63 62 63 64 63 64 64 63 62 61 61 59 58 59 60 60
61 62 62 62 63 62 62 63 62 62 62 62 62 63 62 63 63 63 63 63 63 62 62 62 63 63 63 63 63 63 63 63 62 62 62 61 60 59 58 59 61 61
61 61 62 62 62 62 62 63 63 62 62 61 62 62 63 63 62 63 63 63 63 62 62 62 62 63 63 63 63 63 63 64 63 61 62 62 62 62 61 60 61 61
60 60 61 61 62 62 63 63 62 62 61 61 61 62 62 63 62 62 62 62 62 62 61 62 62 62 62 62 62 62 63 63 62 61 61 60 60 60 60 60 61 60
59 59 61 60 61 61 62 62 62 62 61 61 61 62 62 63 63 62 64 63 62 63 62 61 62 64 63 62 62 63 62 62 62 62 62 60 61 60 60 61 61 60
58 59 59 60 61 61 61 62 61 61 61 61 62 62 63 61 61 63 62 62 62 62 62 63 63 61 62 62 62 64 63 62 61 62 61 61 63 61 61 61 61 61
57 58 59 59 59 60 60 61 61 62 62 61 62 62 62 61 62 62 62 62 61 62 61 63 63 63 62 63 62 62 61 62 62 61 61 62 62 62 62 61 60 60
56 57 57 59 59 59 59 60 61 62 62 62 61 62 62 62 61 62 61 61 61 60 62 62 62 63 61 56 56 60 61 61 62 62 62 62 62 62 62 62 62 62
55 57 57 57 59 59 59 59 60 61 61 61 62 62 61 61 62 60 60 61 61 60 61 62 62 61 53 51 52 53 57 60 61 62 62 62 62 62 62 62 62 59
55 56 57 57 57 58 58 60 61 60 60 60 61 61 61 61 62 60 60 61 61 61 61 61 62 54 48 48 49 52 54 58 59 60 61 61 61 61 61 60 59 59
54 55 55 56 57 57 58 59 59 59 59 58 59 61 61 60 61 61 59 60 59 59 60 60 58 43 45 45 47 50 52 54 55 57 57 58 59 58 59 59 59 59
54 54 54 55 56 56 57 56 58 57 57 58 58 60 59 58 59 59 58 58 59 59 59 56 55 44 43 45 46 47 50 51 54 57 57 57 58 59 60 60 59 59
53 54 54 54 54 54 54 54 56 55 55 55 56 56 56 57 56 56 56 57 58 58 55 53 49 40 42 43 44 46 48 50 57 58 58 58 59 60 60 59 59 58
52 53 54 53 53 53 52 52 53 53 54 55 55 55 55 56 56 56 56 55 57 56 55 52 49 39 42 43 44 46 48 58 60 60 59 59 59 59 58 59 57 57
51 52 53 53 52 52 51 51 52 52 53 55 54 54 54 54 53 54 55 56 56 56 55 53 50 42 41 43 45 46 51 58 59 58 59 58 58 57 58 59 58 58
50 51 52 52 51 51 51 51 51 52 52 52 52 52 51 52 53 53 53 53 53 54 54 52 51 45 41 41 43 40 49 59 57 58 58 57 56 56 55 54 51 47
50 51 51 51 51 51 51 51 51 51 51 52 52 51 51 52 52 50 51 52 53 53 51 53 52 48 41 41 41 42 54 58 56 56 56 55 54 53 54 53 52 47
49 50 50 51 50 51 51 51 50 51 51 51 51 51 51 51 51 49 49 49 49 50 50 52 51 49 44 41 42 43 44 59 56 54 54 55 53 52 52 52 51 50

ECMWFNIL_sfc_dewp_105.txt.gz
Dewpoint
65 63 63 63 64 63 64 65 65 64 64 64 64 62 61 63 64 66 65 65 66 67 66 66 65 66 66 66 65 64 63 64 64 65 65 65 65 65 65 66 65 65
63 63 63 63 63 64 65 65 65 64 64 65 63 64 64 63 63 65 65 65 65 65 65 65 65 65 66 65 66 65 66 65 64 64 65 63 65 63 65 65 65 64
63 63 62 62 62 63 65 65 66 65 65 65 65 64 65 64 65 65 65 65 64 65 65 65 65 65 66 66 65 65 66 66 65 65 65 65 65 65 64 65 65 64
62 62 62 62 62 62 63 64 65 64 64 65 64 64 64 64 65 64 65 64 64 65 65 65 66 65 65 65 65 66 65 65 65 64 64 64 65 64 64 64 65 65
62 61 61 61 62 62 63 63 63 63 64 64 64 63 64 65 64 64 64 65 64 65 64 64 64 66 65 65 65 65 64 64 64 64 64 63 64 64 64 64 62 62
62 60 60 61 60 61 62 63 63 62 62 63 63 62 65 64 64 64 63 63 65 66 65 64 63 64 64 65 65 65 65 64 64 63 63 63 63 63 63 63 63 62
62 61 61 61 61 62 63 63 63 63 62 64 63 62 61 63 63 62 62 64 63 63 64 65 64 64 64 65 64 63 64 63 63 62 62 62 62 64 62 63 63 62
61 62 61 61 62 65 65 63 63 63 62 62 63 62 61 62 62 62 62 63 64 63 64 63 64 63 63 64 62 63 63 63 62 62 62 62 63 62 62 62 63 61
60 61 61 61 62 63 64 63 63 63 63 62 63 63 62 62 62 62 62 62 62 64 63 63 63 63 64 63 63 63 62 63 62 63 63 62 62 62 60 61 61 62
60 60 61 62 61 62 62 63 63 63 63 62 61 64 64 63 63 62 62 62 63 63 63 62 62 63 64 63 62 62 61 62 63 62 62 61 62 61 61 61 61 61
59 59 60 61 61 62 62 62 63 63 63 62 63 62 62 64 63 62 63 63 63 63 63 62 63 62 63 62 64 64 63 62 61 61 62 61 61 61 62 61 60 61
58 59 59 60 61 61 61 63 64 63 62 62 61 61 62 63 64 63 64 62 63 63 62 62 61 63 62 62 62 62 63 62 61 62 62 60 62 62 60 61 62 59
57 58 59 59 60 60 61 61 62 63 62 61 62 62 62 62 62 62 63 62 63 63 62 63 63 63 62 63 63 62 62 62 62 61 62 62 63 62 62 62 62 60
57 58 58 59 59 60 60 61 61 61 62 62 62 62 62 63 62 62 62 62 62 62 61 62 62 64 63 63 63 63 63 62 62 62 62 62 63 63 63 62 61 61
57 58 58 59 59 59 60 60 61 61 62 61 61 61 62 61 61 61 62 62 62 63 62 63 63 63 63 63 63 62 64 63 62 61 63 62 62 62 63 62 62 63
56 57 57 58 59 59 59 59 59 60 61 61 61 62 61 61 62 62 62 62 62 62 63 63 63 63 62 58 60 63 63 63 63 63 62 62 61 63 62 61 62 62
55 56 56 57 58 58 59 59 58 60 60 60 61 62 61 61 61 61 60 62 61 61 62 63 63 62 52 51 52 55 61 63 63 63 62 61 62 60 60 61 61 60
54 55 55 56 57 57 57 57 58 58 59 60 60 61 61 61 61 60 61 61 62 61 62 63 63 56 48 48 49 50 56 62 62 62 61 61 61 62 60 61 62 61
53 54 54 55 55 56 56 56 56 56 57 58 59 60 60 60 60 60 60 61 61 61 60 60 57 42 45 45 47 48 50 56 61 62 62 61 62 61 61 61 60 59
53 53 53 54 54 54 55 55 55 55 56 56 57 58 58 58 59 60 60 60 60 60 59 55 52 44 40 42 44 46 49 52 57 61 60 60 60 59 60 60 60 60
52 53 53 53 53 53 54 53 54 54 54 54 55 55 57 56 56 56 57 57 57 57 56 54 50 41 40 41 41 43 44 49 56 57 56 59 60 59 60 60 60 60
52 52 52 52 52 52 52 52 53 53 53 53 54 54 55 57 56 56 56 57 57 57 54 53 50 40 41 41 42 43 43 60 60 57 57 59 60 60 61 61 61 61
51 52 52 52 52 52 51 52 52 52 52 53 53 53 53 54 54 54 55 55 55 55 54 53 50 43 40 40 40 39 51 59 59 57 57 58 60 59 57 56 54 58
51 51 51 51 51 51 51 51 52 52 52 52 52 52 52 52 53 54 53 53 52 53 53 51 50 45 40 40 41 41 45 59 58 58 59 57 58 57 56 53 50 47
50 50 50 50 50 51 51 51 51 51 52 52 52 52 51 51 51 50 51 50 49 49 47 50 49 46 41 40 41 42 50 58 59 59 59 59 56 55 54 54 50 47
49 49 49 49 49 49 50 50 51 51 51 52 51 50 50 50 50 50 49 50 49 48 47 46 47 48 43 40 41 42 45 57 59 59 55 54 53 52 51 50 49 48

ECMWFNIL_sfc_dewp_108.txt.gz
Dewpoint
65 65 65 65 65 65 65 65 65 64 64 65 65 64 65 65 64 64 63 65 66 66 66 65 64 65 66 66 65 65 65 65 65 65 65 65 65 65 64 63 64 64
64 64 64 64 64 64 65 67 66 65 65 65 65 65 65 64 64 64 64 64 65 65 66 65 65 65 65 65 65 65 65 65 64 65 65 64 65 64 64 63 64 65
64 64 64 63 63 63 64 64 65 66 65 65 65 65 65 64 62 63 64 64 64 64 65 65 64 64 65 64 65 65 65 65 64 64 64 64 64 64 63 64 65 64
63 63 63 62 63 63 64 64 64 65 65 65 64 65 64 63 63 63 64 64 64 64 64 64 64 64 64 64 64 64 64 64 64 64 63 63 64 64 63 65 65 64
62 62 62 62 62 63 63 63 63 63 64 64 64 64 64 63 62 61 63 64 64 63 64 64 64 64 64 65 64 64 64 65 63 63 62 62 63 63 64 64 64 64
62 61 61 62 62 62 63 62 63 63 62 63 63 63 64 63 62 62 63 64 64 63 64 63 64 65 65 64 65 64 64 64 64 64 63 63 63 63 63 63 63 63
61 61 61 61 62 62 63 63 63 63 63 64 63 63 63 63 63 62 62 63 63 62 62 63 64 64 65 64 64 64 63 63 63 63 62 63 63 63 63 63 62 62
60 61 61 61 61 62 62 62 62 63 63 64 64 63 63 63 63 62 63 62 62 63 63 64 64 63 63 64 63 63 63 62 63 63 62 62 63 62 63 62 63 62
59 59 59 60 60 61 62 62 62 62 62 62 62 62 63 63 63 63 62 62 63 63 63 63 64 62 64 64 63 62 62 63 63 62 61 62 62 62 62 62 63 62
58 58 59 59 60 60 61 62 62 63 63 63 63 63 62 63 63 62 62 63 63 63 63 63 63 64 64 64 63 63 63 62 63 62 63 62 62 62 62 62 62 62
58 58 58 59 59 60 61 62 62 63 63 62 63 63 62 62 64 64 63 64 63 63 63 63 63 63 62 63 63 62 62 62 62 62 63 62 62 62 63 62 61 61
57 58 58 59 59 60 61 61 61 62 62 62 62 62 63 64 63 62 63 63 62 62 63 63 63 63 64 63 63 63 63 62 63 63 63 63 62 62 62 63 62 62
56 57 58 59 60 60 61 60 60 62 62 62 62 62 62 61 62 62 63 63 63 63 63 63 62 62 63 62 63 63 63 62 62 62 64 62 63 63 63 63 63 62
56 58 58 58 60 60 60 60 60 60 62 62 63 62 62 61 62 63 63 63 63 63 63 63 63 63 63 63 63 63 63 63 62 62 63 64 63 62 63 62 62 62
56 57 57 57 58 58 58 58 58 59 60 61 62 62 62 61 62 63 63 63 63 63 63 63 64 63 63 64 64 64 63 62 63 63 62 62 63 63 63 62 62 63
55 55 55 56 56 56 57 57 57 58 58 58 60 61 60 60 60 61 61 62 62 62 63 63 63 63 61 57 58 63 62 62 62 62 62 62 62 63 61 61 62 63
54 54 54 54 55 55 56 55 55 55 55 56 57 58 60 60 60 61 61 61 61 61 61 62 58 50 43 44 49 54 62 63 63 62 62 62 62 62 61 61 62 60
53 53 53 54 54 54 54 54 54 54 54 54 55 56 58 59 60 60 60 61 59 57 56 55 53 45 41 42 42 43 48 60 62 62 62 61 62 62 61 61 61 60
52 53 53 53 53 53 53 53 53 53 53 53 54 55 56 57 57 57 57 57 57 56 54 53 50 42 41 42 41 41 40 50 61 62 62 61 60 60 61 61 61 61
52 52 52 52 53 52 52 52 52 52 53 53 53 54 54 55 55 55 55 56 55 54 53 51 47 42 41 42 42 42 41 47 58 62 62 62 61 61 61 62 61 61
51 51 52 52 52 51 51 51 52 52 52 52 52 52 53 53 53 54 54 54 54 54 52 50 46 40 41 41 41 42 44 51 58 60 60 60 60 60 61 62 62 61
50 50 51 51 51 51 51 51 52 52 52 52 51 51 52 51 50 49 49 50 51 52 51 50 47 40 40 42 42 42 49 58 59 59 60 60 56 54 53 53 58 60
49 49 50 50 50 50 50 51 51 52 52 51 51 51 51 50 49 48 48 47 47 48 49 48 46 42 40 41 42 44 52 57 57 59 59 56 54 53 51 49 48 54
49 49 49 49 49 49 50 50 51 51 51 51 51 50 50 50 49 49 49 48 46 46 46 47 46 43 41 42 43 47 52 58 57 58 57 53 52 51 50 49 47 45
48 48 48 49 48 49 49 49 49 50 51 51 51 50 50 49 49 48 48 48 46 46 45 45 45 43 40 41 42 44 53 57 56 55 54 53 50 49 48 47 47 45
47 47 47 47 47 47 48 48 49 48 48 49 50 50 49 49 48 48 47 46 46 45 44 44 45 44 41 40 41 43 45 51 51 49 48 48 48 47 45 44 44 44

ECMWFNIL_sfc_dewp_114.txt.gz
Dewpoint
62 62 62 62 62 62 62 62 62 62 61 60 61 61 61 61 61 61 61 60 61 61 62 62 62 62 62 63 63 63 63 63 62 62 62 63 63 62 62 62 61 62
61 61 61 60 60 60 60 59 60 60 60 60 61 61 61 61 61 61 61 60 60 61 61 62 62 62 62 62 63 62 62 63 62 63 63 63 62 63 62 62 61 62
59 59 59 59 59 59 60 60 60 60 59 60 59 60 61 60 61 61 61 61 61 61 61 62 62 62 62 62 63 62 62 62 62 63 63 62 63 62 62 62 62 61
59 60 60 60 60 60 60 60 60 60 59 60 59 60 60 60 61 61 61 62 61 61 61 62 62 62 63 63 62 62 62 62 63 63 63 62 62 63 62 62 62 62
59 59 58 58 58 58 58 59 59 59 59 59 60 60 60 60 60 60 60 61 61 62 61 61 62 62 62 61 61 61 61 62 62 62 62 62 62 62 62 62 62 62
57 57 57 58 58 57 58 58 59 59 59 59 60 60 60 60 60 60 61 61 62 62 62 62 62 62 62 62 62 61 61 62 62 62 62 62 62 62 63 62 62 61
56 56 57 57 57 57 57 58 60 60 59 60 60 60 60 60 60 60 60 60 61 61 61 61 61 61 62 62 62 61 62 62 62 62 62 61 61 61 62 62 61 61
56 57 58 58 58 58 58 59 60 60 60 60 59 59 59 60 60 60 60 60 60 60 60 60 61 61 61 61 62 62 62 62 62 61 61 61 61 61 61 61 61 61
57 57 58 58 59 59 59 59 59 59 60 59 60 60 60 60 61 61 61 60 60 60 61 61 62 62 62 62 62 62 62 62 61 61 61 61 60 61 61 61 61 60
57 57 57 57 57 57 56 57 57 58 59 59 59 60 60 60 61 61 61 61 61 61 61 61 61 61 62 62 62 61 62 62 61 61 61 61 61 61 61 61 61 60
56 56 56 56 55 55 55 55 55 56 57 58 59 59 59 60 60 60 61 61 61 60 60 61 61 62 62 61 61 61 61 61 61 60 60 61 61 61 62 62 61 60
55 55 55 54 54 54 54 54 54 55 55 56 57 58 58 59 59 59 60 59 60 60 60 61 61 62 61 61 60 60 61 61 60 60 60 60 60 61 61 62 62 61
54 54 54 53 53 53 53 53 54 54 55 55 56 57 56 57 57 56 56 57 57 57 58 60 61 61 61 61 61 61 61 60 60 60 60 60 60 61 60 60 61 61
54 54 53 53 53 52 53 53 53 53 54 54 55 55 55 55 55 55 54 54 55 55 55 55 55 56 57 58 60 60 60 60 60 60 60 60 60 60 60 60 60 60
53 53 53 52 52 53 52 52 52 52 52 52 52 52 53 53 53 54 53 52 52 52 53 52 52 52 52 51 55 60 59 59 58 59 59 59 59 59 60 60 60 60
53 52 52 52 52 52 51 51 51 51 50 50 49 49 49 50 50 50 51 52 51 51 51 51 51 50 49 46 45 55 60 60 59 59 59 59 59 59 60 60 60 60
52 52 52 52 52 52 51 51 51 50 49 49 48 48 48 48 48 48 48 49 50 51 50 50 50 48 43 41 43 51 60 60 59 59 59 59 59 58 58 59 58 58
51 52 52 52 52 51 51 50 50 50 49 48 48 47 47 47 46 46 46 47 49 50 50 49 48 46 42 44 47 48 52 57 56 56 57 58 58 59 58 57 57 57
51 51 51 51 51 51 51 50 49 49 48 48 47 47 46 45 45 45 45 46 47 48 49 49 47 44 44 45 45 45 46 50 51 51 51 50 51 53 56 57 57 57
50 50 50 50 51 51 50 49 48 48 47 47 46 46 45 45 45 44 45 45 46 48 49 48 46 44 44 44 44 44 45 47 50 49 48 48 48 48 50 51 56 57
49 49 49 49 50 50 50 49 48 47 46 46 45 45 44 44 44 44 44 45 46 47 47 47 45 42 43 43 43 44 44 46 49 48 48 47 47 47 47 48 49 52
49 49 49 49 49 49 49 49 48 47 46 46 45 44 44 44 43 43 43 44 45 45 45 45 44 40 41 42 43 43 44 49 48 47 47 47 46 46 46 47 48 49
48 48 48 48 48 47 47 48 48 47 47 46 45 44 43 43 43 42 43 43 43 44 44 43 43 40 39 41 42 43 45 48 47 47 46 46 45 46 46 45 46 47
47 47 47 47 46 46 46 46 46 47 47 46 44 43 43 42 42 42 42 42 42 43 43 42 42 41 39 40 41 42 45 48 47 47 46 45 45 45 45 45 45 45
46 46 45 45 45 46 46 45 45 45 45 45 44 43 43 42 42 41 41 41 42 42 43 41 41 41 39 39 40 41 45 46 46 46 45 45 45 44 44 44 44 44
43 44 44 44 44 44 45 45 45 44 44 44 43 43 42 42 42 41 41 41 41 41 41 41 41 40 39 38 39 40 41 44 44 44 43 43 43 43 43 43 43 43

ECMWFNIL_sfc_dewp_117.txt.gz
Dewpoint
61 61 60 59 59 60 60 60 59 58 59 58 58 60 60 61 61 60 60 60 60 60 60 61 61 62 62 62 62 63 63 63 63 62 62 62 62 62 62 62 62 61
60 60 60 59 59 58 58 58 58 58 59 58 59 59 60 60 61 60 60 60 60 60 61 62 62 62 62 62 62 62 62 62 62 63 62 62 62 61 61 62 62 62
59 59 59 58 57 57 57 58 57 58 57 58 58 58 59 60 60 60 60 60 60 61 61 62 62 62 62 62 62 62 62 62 62 62 62 62 62 62 62 62 62 61
58 58 58 58 57 56 57 57 57 58 58 58 58 59 59 59 60 60 60 61 60 60 61 61 62 62 62 62 62 62 62 62 62 62 62 62 62 62 62 62 62 61
58 58 58 57 57 58 57 57 57 58 58 58 58 59 59 59 59 59 59 59 60 61 60 60 61 61 62 62 62 62 62 62 62 62 62 62 62 62 62 62 61 61
57 57 57 56 56 56 57 58 60 59 59 59 59 59 59 59 60 60 60 60 61 61 60 61 61 62 62 62 62 61 61 61 61 61 61 61 62 62 62 62 61 61
56 56 57 58 58 58 58 58 58 58 59 59 60 60 60 60 60 60 60 61 61 61 61 61 61 61 62 62 61 61 61 61 61 61 61 61 61 61 62 62 62 61
56 57 58 57 56 56 56 56 56 57 58 58 58 60 60 60 60 61 61 61 61 61 61 61 61 61 62 62 61 61 61 62 62 62 61 61 61 61 61 62 61 61
57 56 56 55 55 55 54 54 55 55 57 57 58 59 59 59 60 60 60 61 61 61 61 60 61 61 62 62 61 61 61 62 62 62 61 61 61 60 60 61 60 61
55 55 54 53 53 53 53 53 53 54 56 56 57 58 57 58 58 57 57 57 58 58 59 60 60 61 62 62 62 62 62 62 62 61 61 61 60 61 61 61 61 60
54 54 53 52 52 52 52 53 54 54 55 55 56 56 56 56 56 55 55 55 55 55 56 56 58 61 61 61 61 61 61 61 61 61 60 60 60 61 61 61 60 60
53 52 52 51 52 52 52 53 53 53 53 53 54 54 54 54 54 54 54 53 53 53 53 54 55 57 58 59 61 61 60 61 60 60 60 60 59 60 61 61 61 61
53 53 52 51 52 52 52 52 52 51 51 50 51 51 51 50 51 51 52 52 52 52 52 52 53 53 54 55 57 60 60 59 57 59 59 59 59 60 60 60 61 61
53 53 52 52 52 51 51 51 51 50 50 49 49 49 49 49 48 49 49 50 51 52 51 52 52 52 52 52 53 57 59 58 59 59 59 59 60 60 60 59 60 60
53 53 52 51 51 51 51 50 50 49 49 49 48 48 48 48 47 48 48 49 50 51 51 51 51 51 51 51 51 55 59 58 58 59 58 59 59 59 60 60 60 60
52 52 52 51 51 50 50 50 49 49 48 48 47 47 46 47 46 47 47 48 49 49 49 50 49 50 50 48 48 54 59 59 58 57 57 58 58 58 59 59 59 59
52 52 51 51 51 50 49 49 48 48 47 47 46 46 46 46 46 46 46 48 49 48 48 48 47 46 43 43 43 47 53 52 52 52 52 52 53 54 56 57 57 57
51 51 51 51 50 49 48 48 47 47 46 46 45 45 45 45 45 45 47 48 48 48 46 47 46 45 42 42 43 44 47 50 49 49 49 49 50 50 51 54 56 56
51 50 51 50 49 48 47 47 46 46 45 45 44 45 44 44 44 45 45 47 47 47 46 45 44 42 41 42 42 42 43 47 48 47 47 47 47 48 49 50 53 55
50 50 50 49 48 48 47 46 46 45 45 45 44 44 43 43 44 44 44 45 46 46 46 44 43 41 40 41 42 42 42 45 47 47 47 46 46 47 47 48 50 52
49 49 49 49 48 48 47 46 46 45 44 44 43 43 43 43 43 43 43 44 44 45 45 44 42 40 40 40 41 42 43 44 47 46 46 46 46 46 46 47 48 49
48 48 48 47 47 47 47 46 45 44 44 43 43 42 42 42 42 42 42 42 42 42 43 42 42 39 39 40 40 41 43 47 46 46 45 45 45 46 46 47 47 47
48 47 47 46 46 45 45 45 44 44 43 43 42 42 41 41 41 41 41 41 41 41 41 41 41 39 39 39 40 41 44 46 46 45 45 45 45 45 45 45 45 46
47 47 46 46 45 45 44 44 44 43 43 43 42 41 41 41 41 40 41 41 41 41 41 40 40 39 38 39 39 40 43 44 44 44 44 44 44 44 44 44 45 45
46 46 46 45 45 44 44 43 43 43 43 42 42 41 41 41 41 40 40 40 40 41 42 40 39 39 38 38 38 39 42 43 43 43 42 43 43 43 43 43 43 43
44 44 44 44 43 43 43 42 42 41 41 41 41 41 40 41 41 40 40 40 40 40 40 40 39 39 39 38 38 38 39 42 42 42 41 42 42 43 42 42 42 42

ECMWFNIL_sfc_dewp_120.txt.gz
Dewpoint
60 59 59 58 58 59 59 60 60 59 59 59 59 60 60 60 61 60 61 60 61 61 61 61 61 61 61 62 62 62 62 62 62 63 63 62 62 61 62 62 62 62
59 60 60 59 58 59 59 59 59 59 59 59 59 59 59 60 60 60 60 60 61 61 61 62 62 62 62 62 62 62 62 62 62 63 62 62 62 62 61 62 62 62
58 58 58 58 58 58 58 59 59 59 59 59 58 58 59 60 60 60 60 61 61 61 62 62 62 62 62 62 62 62 62 62 62 62 62 62 62 62 62 62 62 62
58 58 58 58 58 58 58 58 58 58 58 59 59 60 60 60 60 60 61 61 61 61 61 62 62 62 62 62 62 62 62 62 62 62 62 62 62 62 62 62 62 62
57 57 58 58 58 58 58 58 58 59 59 59 59 60 60 60 60 60 61 61 61 61 61 61 61 62 62 62 62 62 62 62 62 62 62 61 62 62 62 62 62 62
57 58 58 57 57 57 57 57 57 57 58 58 59 60 60 60 60 60 60 60 61 61 61 61 62 62 62 62 62 62 62 61 62 61 61 61 61 62 62 62 62 61
56 56 56 56 55 55 55 55 55 56 56 58 58 59 59 59 59 58 58 59 59 59 59 60 61 61 61 62 62 62 62 62 61 61 61 61 61 61 62 62 62 61
55 55 54 54 54 54 54 54 54 54 55 57 57 58 58 58 56 56 56 56 56 56 56 57 58 59 61 62 62 62 61 62 61 61 61 61 61 61 61 62 62 61
53 53 53 53 53 53 53 53 53 54 56 56 56 56 56 56 55 54 54 54 54 55 55 55 56 56 59 61 62 61 61 62 62 62 61 61 61 61 61 61 61 61
53 53 52 52 52 52 52 53 54 53 53 53 53 53 53 53 53 53 53 53 53 53 53 53 54 55 56 58 60 61 61 61 61 61 61 61 61 61 61 61 60 60
52 52 52 51 51 52 52 52 52 51 51 51 51 51 51 51 51 51 52 52 52 52 52 52 52 53 54 55 57 59 60 61 61 61 61 61 61 60 61 61 61 60
52 51 51 51 51 51 51 51 50 50 50 50 50 49 49 49 49 49 50 50 51 51 51 51 52 52 53 53 54 56 58 60 60 60 60 60 60 60 61 61 61 61
51 51 51 51 51 51 51 50 49 49 49 48 48 48 48 48 48 48 49 50 50 50 50 50 50 50 50 51 52 54 57 59 59 60 60 60 60 60 60 60 60 60
51 51 51 51 51 50 50 49 49 48 48 48 48 47 47 47 47 48 48 49 49 49 49 48 47 47 47 49 52 55 58 57 57 57 58 59 59 60 60 60 60 60
52 51 51 51 50 49 49 48 48 47 47 46 46 46 47 47 47 48 48 47 47 47 47 47 47 47 47 48 51 54 54 53 53 53 54 55 56 57 58 58 58 59
51 51 50 50 48 48 47 47 47 46 46 46 46 46 46 47 46 47 47 46 46 46 46 46 46 46 47 45 46 50 51 51 51 51 51 52 53 54 55 56 57 56
51 50 49 48 47 47 47 46 46 46 45 45 45 45 45 45 46 46 46 47 46 45 45 45 45 45 42 41 42 44 49 49 49 49 49 49 50 51 51 54 55 55
50 49 48 47 47 46 46 46 45 45 44 44 44 44 44 44 44 45 46 46 46 45 44 44 44 43 41 42 42 42 45 48 48 48 48 48 48 49 50 51 52 53
49 48 48 47 47 46 46 45 44 44 44 44 43 44 43 43 43 43 44 45 45 44 44 44 43 41 41 41 42 42 42 46 47 47 47 47 47 48 48 49 50 51
49 48 47 47 47 46 45 44 44 43 44 43 43 43 42 42 42 42 42 42 43 44 43 42 42 40 40 41 41 41 42 44 46 46 46 46 46 46 47 48 49 49
48 47 46 46 46 45 44 44 43 43 43 43 42 42 41 41 41 41 41 41 41 42 42 41 40 39 39 40 40 41 42 44 46 46 45 45 45 45 45 46 47 48
47 46 45 45 45 44 43 43 43 43 42 42 42 41 41 41 41 41 41 40 40 40 41 40 40 38 38 39 40 41 42 46 46 45 45 44 44 44 44 44 45 47
46 45 45 44 44 43 42 42 42 42 42 42 41 41 40 40 40 40 40 40 40 40 39 39 39 38 38 38 39 40 43 45 45 44 44 44 44 44 44 44 44 45
46 45 44 44 43 42 42 42 42 42 41 42 41 40 40 40 40 40 40 40 40 40 40 39 39 39 38 38 38 39 42 43 44 44 43 43 43 43 43 43 43 44
45 44 43 43 42 42 41 41 41 41 41 41 41 41 40 40 40 40 40 40 40 40 41 39 38 39 38 38 38 39 42 42 42 42 42 42 42 42 42 42 42 42
44 43 42 42 41 41 41 40 40 40 40 40 40 40 39 40 40 39 39 39 39 39 39 39 38 38 38 37 38 38 39 41 41 41 41 41 41 42 41 41 41 41

ECMWFNIL_sfc_dewp_123.txt.gz
Dewpoint
63 63 63 62 62 62 62 61 61 61 61 61 61 61 61 61 61 61 61 62 62 62 61 61 61 62 61 62 62 62 62 62 62 63 62 64 64 63 61 62 62 62
62 62 62 62 61 61 61 61 61 61 61 61 61 61 61 61 60 61 62 62 62 62 61 61 61 61 61 62 62 62 63 62 62 62 62 62 63 63 63 63 62 63
62 62 61 61 61 61 61 61 61 60 60 60 61 62 61 61 60 60 61 61 61 61 61 61 61 61 61 62 62 62 62 62 62 63 63 61 63 63 63 64 64 63
60 60 60 60 60 60 60 60 60 60 60 59 60 60 60 60 60 60 60 60 60 60 61 61 61 61 61 61 62 62 62 62 62 63 62 62 62 63 64 64 64 64
59 59 59 59 59 59 60 59 58 58 58 59 59 59 60 59 58 57 58 59 59 59 59 60 60 61 62 62 62 63 63 63 62 63 62 62 62 62 63 64 63 63
58 57 57 57 58 58 57 57 57 57 57 57 58 59 57 57 57 57 56 57 57 57 58 58 58 59 60 61 62 62 62 63 63 63 62 61 61 62 63 63 62 61
57 57 57 57 56 56 56 56 56 57 56 57 57 57 56 56 56 55 55 55 55 56 56 56 57 57 58 60 62 62 62 62 62 62 62 62 62 62 62 62 62 62
56 55 55 55 56 56 56 55 55 55 56 55 55 54 55 55 54 54 55 55 55 55 54 54 55 55 56 58 59 60 61 62 61 61 61 61 62 61 62 62 62 61
55 54 54 54 55 54 54 54 54 54 54 54 53 54 53 53 53 53 54 53 53 54 53 53 53 54 55 56 57 57 58 60 61 61 61 61 61 61 60 61 61 62
53 53 54 54 54 53 53 53 53 53 53 52 52 52 51 52 52 52 52 52 52 52 52 52 52 53 53 54 55 56 57 59 61 61 61 61 60 60 60 61 60 60
53 52 52 53 52 52 52 52 52 51 51 51 51 50 50 50 51 51 51 51 51 50 50 50 50 51 51 52 54 55 57 59 60 60 61 61 61 61 61 61 61 61
52 52 52 52 52 52 51 51 50 50 50 50 49 49 49 49 50 50 50 49 49 49 49 49 49 49 50 51 54 56 58 58 59 59 59 60 60 60 60 60 61 61
51 51 51 51 51 51 50 50 49 49 48 48 49 49 49 49 49 48 48 48 48 48 48 48 48 48 49 50 54 54 55 55 55 56 57 58 58 58 58 58 58 58
51 51 51 50 50 49 49 49 48 48 47 48 48 48 48 48 48 47 47 47 47 47 47 48 47 47 47 48 51 52 53 53 53 53 54 55 55 55 56 57 57 57
50 50 50 49 49 48 48 48 47 47 47 47 47 48 48 47 48 47 47 46 47 47 46 47 47 47 47 47 50 51 51 51 51 51 51 52 52 53 54 55 55 55
49 49 49 48 48 47 47 47 47 47 47 46 46 46 46 47 47 47 46 46 46 46 46 46 46 46 46 44 45 49 50 50 50 50 49 50 50 51 52 53 53 53
49 48 48 48 47 47 47 46 46 47 46 46 46 46 46 45 45 45 46 46 45 45 45 45 45 45 42 41 41 43 49 49 48 48 48 48 49 49 50 51 52 52
48 48 47 47 47 46 46 45 45 45 45 45 45 45 45 45 46 45 45 45 45 45 45 45 45 43 40 41 41 42 45 48 48 47 47 47 48 48 49 50 51 51
48 47 47 46 46 45 45 45 44 44 44 44 44 45 45 46 46 46 45 45 45 44 44 44 44 40 40 41 41 41 42 46 47 47 47 46 47 47 48 48 49 50
47 47 46 46 45 45 44 44 44 43 44 44 45 46 46 45 46 45 45 45 44 44 43 43 42 40 39 40 41 41 41 44 47 47 46 45 45 46 47 47 47 48
47 46 45 45 44 44 44 43 43 43 43 44 44 46 46 46 45 45 44 44 44 44 43 43 41 38 38 39 40 41 41 44 47 47 46 45 45 45 46 46 46 47
46 45 45 44 44 43 43 43 43 43 43 43 44 44 44 44 44 44 43 44 44 44 44 42 41 38 38 38 39 40 42 46 46 46 45 45 44 44 44 45 45 46
46 45 44 43 43 43 42 43 43 43 43 43 43 43 43 42 44 43 42 42 42 43 43 43 42 39 37 38 39 39 43 46 46 45 44 44 44 44 43 43 44 44
45 44 44 43 43 43 43 43 43 42 42 43 42 42 42 42 42 41 42 42 42 41 42 42 41 39 37 38 38 38 42 45 44 44 44 43 43 43 43 42 42 43
44 44 43 42 42 42 42 42 42 42 42 42 42 42 42 41 41 40 41 41 41 42 41 41 40 39 37 37 37 38 43 45 43 43 43 43 42 42 42 42 41 40
44 43 43 42 41 41 42 42 41 41 42 41 41 40 40 40 40 40 40 40 41 41 41 41 40 39 38 36 37 37 39 43 43 42 41 41 41 40 40 40 40 39

ECMWFNIL_sfc_dewp_126.txt.gz
Dewpoint
65 64 64 63 62 62 63 62 62 61 61 60 60 60 60 61 60 61 61 61 62 62 61 61 61 62 62 62 62 62 62 62 62 62 62 61 61 62 61 62 62 63
63 62 62 62 62 62 62 62 62 61 60 61 60 60 61 60 61 61 60 60 60 60 60 61 61 61 61 61 62 62 61 61 62 61 61 61 61 61 61 62 63 63
63 62 62 62 62 61 61 61 61 60 60 60 60 60 60 61 60 59 60 60 59 60 61 61 61 61 61 62 62 62 61 62 62 62 62 61 61 61 61 62 62 63
62 62 61 60 60 60 61 60 59 59 59 59 59 59 59 59 59 58 58 59 59 59 60 60 60 61 61 62 62 61 62 62 62 62 61 61 62 62 61 61 62 63
61 60 60 60 60 60 60 59 58 57 58 58 59 59 58 58 57 57 58 58 58 58 59 59 59 60 60 61 61 61 62 61 61 61 61 60 62 62 62 61 62 62
60 58 58 58 59 59 58 57 57 57 57 58 58 57 57 57 56 56 56 56 56 57 57 58 58 58 59 60 60 61 61 61 61 61 61 60 60 61 63 63 62 61
59 59 58 57 58 57 57 57 57 57 57 57 55 56 56 55 55 55 55 56 56 56 56 57 57 58 58 59 59 60 60 61 61 61 60 60 60 60 60 62 62 62
58 58 57 57 57 56 56 56 56 56 56 55 55 55 55 55 54 55 55 55 55 55 55 55 55 55 56 57 58 59 59 60 61 61 61 60 61 59 60 61 63 62
57 56 56 56 56 55 55 54 54 55 54 55 54 54 54 54 54 54 54 54 54 54 53 53 54 54 55 56 57 57 58 60 60 60 60 61 60 60 59 60 61 62
55 55 55 55 55 54 54 54 54 54 54 54 54 53 53 54 54 53 53 53 53 52 52 52 53 54 55 55 56 57 58 59 59 59 60 60 60 60 60 60 60 61
55 54 54 54 54 54 54 53 53 53 53 52 53 53 52 52 52 52 51 51 52 52 52 53 53 53 53 55 56 57 57 58 58 58 59 59 59 58 59 59 59 59
54 53 53 53 53 53 53 53 53 53 52 52 51 51 51 51 51 51 51 50 51 51 52 52 52 52 52 53 54 55 56 56 56 56 57 57 56 57 57 57 57 56
52 53 52 53 53 52 53 52 52 52 51 51 51 51 51 50 50 50 51 51 51 51 51 51 51 50 50 51 53 54 54 54 54 55 55 55 55 55 55 56 56 55
52 52 52 52 52 52 51 52 52 51 51 51 50 50 50 49 49 50 51 51 51 50 50 50 49 49 48 49 51 53 53 53 53 53 54 54 55 54 55 54 55 54
52 52 52 51 51 51 51 51 51 51 50 50 49 49 49 49 50 50 50 50 49 49 49 49 49 48 48 47 49 52 52 52 52 52 52 52 53 53 53 53 53 54
51 51 51 51 51 51 51 51 51 50 50 49 48 48 49 49 50 50 49 49 48 48 49 49 48 47 45 43 44 48 52 52 52 51 51 51 51 51 52 52 52 53
50 50 50 50 50 50 51 50 50 50 49 49 49 49 50 50 50 49 49 48 48 48 48 48 47 45 41 40 41 43 51 52 51 50 50 50 50 50 50 51 51 51
50 49 49 49 50 50 49 49 49 49 49 49 49 50 50 51 50 49 48 48 48 48 48 47 47 41 39 40 41 41 44 51 50 50 50 49 49 49 50 50 50 51
49 49 49 49 49 49 48 48 49 49 49 49 49 50 50 50 49 49 48 48 48 47 47 47 46 40 39 39 40 40 42 47 49 49 49 49 49 49 49 49 49 50
49 48 49 49 49 47 47 47 49 49 50 50 50 50 50 50 50 49 48 48 48 48 48 46 44 40 38 39 39 39 42 45 48 49 49 48 48 48 49 49 49 49
48 48 48 47 47 47 47 47 49 49 49 49 49 49 49 49 49 49 48 48 48 48 48 47 44 38 38 38 38 39 40 44 49 48 47 47 47 47 47 48 48 49
48 48 48 46 46 46 47 47 48 49 49 49 48 48 49 48 48 48 48 48 48 48 48 46 45 37 37 38 38 38 41 48 48 48 48 46 45 45 44 45 46 47
48 47 47 46 46 46 46 47 47 48 48 48 48 48 47 47 47 47 47 47 47 48 47 46 45 39 37 37 37 38 44 48 48 46 46 46 46 45 43 43 43 44
47 46 46 46 45 45 46 46 46 47 47 47 47 46 46 46 46 45 46 46 46 45 45 45 44 40 37 37 37 38 43 48 46 46 46 45 44 44 43 42 42 42
47 47 47 46 45 46 46 46 46 46 46 47 46 46 45 45 44 44 44 45 45 45 43 44 43 41 37 36 37 37 44 47 45 44 44 44 43 42 43 42 42 41
47 46 47 46 45 45 46 45 45 46 46 46 45 43 43 43 43 43 43 43 44 44 44 44 43 41 38 36 36 37 38 46 44 43 42 42 42 40 41 42 41 41

ECMWFNIL_sfc_dewp_129.txt.gz
Dewpoint
64 65 64 63 62 63 63 62 62 62 61 60 59 60 60 61 60 61 61 61 61 60 59 60 60 61 61 61 61 62 61 62 62 62 62 61 61 62 61 60 61 61
64 63 62 62 62 62 63 63 62 61 61 61 60 60 61 60 61 60 60 60 59 59 60 61 61 61 61 61 61 62 62 62 62 62 62 62 62 61 61 62 62 62
64 63 63 63 62 62 62 62 62 61 60 60 59 60 61 60 60 59 59 59 59 60 60 60 60 60 61 61 62 62 62 62 61 61 62 62 62 61 61 62 62 63
63 63 62 62 62 62 62 61 60 60 59 59 59 59 59 59 59 57 58 58 58 59 59 59 59 60 60 60 60 60 61 61 62 62 62 61 61 61 62 63 63 63
62 62 61 61 60 60 60 60 59 58 58 58 59 58 58 58 57 56 57 57 57 57 57 58 58 59 59 60 60 60 61 60 60 61 61 61 61 61 61 62 63 62
61 60 59 59 60 60 59 58 58 58 58 58 57 57 57 56 56 55 56 56 56 57 57 58 58 58 59 59 60 60 60 60 60 61 60 60 60 60 61 61 61 61
60 60 59 59 59 59 58 58 58 57 57 57 56 57 56 56 55 55 55 56 56 56 56 57 57 58 58 59 59 59 59 60 60 60 60 60 61 61 60 61 61 60
59 59 58 58 58 57 57 56 57 56 57 56 56 56 56 55 55 56 56 56 56 55 56 56 56 57 57 58 58 58 59 60 60 59 59 60 61 60 60 60 61 60
58 58 57 57 57 56 56 56 56 56 55 55 55 55 55 55 55 55 55 55 55 55 55 55 56 56 57 57 58 58 57 58 58 58 59 59 58 58 58 58 58 58
57 57 57 56 55 55 56 55 55 55 55 55 54 55 54 55 55 54 54 54 54 54 54 54 55 55 55 55 56 56 56 57 57 57 58 57 57 57 56 56 55 54
56 56 56 55 55 55 55 55 55 54 54 53 54 54 54 54 54 54 54 53 54 53 53 53 53 53 53 54 55 56 56 56 56 56 57 56 56 56 56 55 54 52
55 55 55 55 55 55 55 54 54 54 54 54 54 53 54 54 54 54 53 52 52 52 52 52 52 52 51 52 53 55 55 55 55 55 55 55 55 55 55 55 53 51
54 54 54 54 54 54 54 53 53 54 53 53 53 53 53 53 53 52 53 52 51 52 51 51 51 50 50 51 52 54 54 54 54 54 54 54 54 54 54 54 53 52
53 54 53 53 53 53 53 53 54 54 53 53 53 53 53 52 52 51 51 51 51 51 51 50 50 49 49 48 49 52 54 53 53 53 53 53 54 53 53 53 53 53
53 53 53 53 52 53 53 53 53 53 53 53 53 53 52 51 51 51 51 50 50 51 50 50 49 49 48 46 47 49 54 53 52 52 52 52 52 52 52 52 52 53
52 52 52 52 52 52 53 53 53 53 53 53 52 52 51 51 51 51 50 50 50 50 50 50 49 48 44 42 43 46 53 52 52 51 51 51 51 51 51 51 52 52
51 51 51 51 52 52 53 52 52 53 53 52 52 51 52 51 51 50 50 50 50 50 50 49 48 45 40 39 39 41 48 53 51 51 50 50 50 51 50 51 51 51
51 51 50 51 51 51 51 52 52 52 52 51 52 52 52 52 51 50 50 51 51 50 49 49 48 41 38 39 39 39 41 49 51 50 50 50 50 49 49 50 50 51
50 50 50 50 50 50 51 52 51 51 51 51 51 52 52 51 50 51 50 50 51 49 49 48 47 39 38 39 38 38 38 45 49 50 49 49 49 49 49 49 50 50
50 50 50 50 50 50 51 51 51 50 51 51 51 51 51 50 50 50 50 50 50 50 49 47 45 40 37 38 38 38 38 41 48 48 48 47 47 48 49 49 49 49
49 50 50 49 49 50 50 50 50 50 50 50 50 50 50 49 49 50 50 49 50 50 49 47 45 37 37 37 38 38 38 43 49 48 47 46 45 45 45 46 47 48
49 49 49 49 49 49 49 49 49 50 50 50 50 49 49 49 49 49 49 49 49 50 49 47 45 37 37 37 37 37 39 49 48 48 47 46 45 44 43 44 45 46
49 49 49 48 48 49 48 49 49 49 50 49 49 49 48 48 49 48 48 48 48 48 49 47 45 39 36 37 37 37 43 48 48 46 46 45 45 44 42 42 42 43
49 48 48 48 48 48 49 49 49 49 49 48 48 47 47 48 47 47 47 47 47 47 46 46 45 40 36 36 37 37 40 49 46 46 45 44 43 43 42 41 41 42
48 48 48 48 47 48 49 48 48 48 48 48 47 47 47 46 46 46 46 47 47 46 46 45 43 41 37 36 37 37 41 49 44 44 43 44 42 41 42 41 40 40
49 48 48 48 47 48 48 48 47 47 47 47 46 45 44 44 44 44 44 44 44 44 44 45 44 41 38 36 36 37 37 44 44 42 41 41 41 40 40 40 39 38